     2.11           OBSERVATION DATA    G (GPS)             RINEX VERSION / TYPE
teqc 2010Oct21 OPUS Account 20111029 19:19:23UTC            PGM / RUN BY / DATE
M 1522                                                      MARKER NAME
1167                                                        MARKER NUMBER
CSMIDDLETON NGS                                             OBSERVER / AGENCY
0220320676 TRIMBLE 5700 1.30                                REC # / TYPE / VERS
12518007 TRM41249.00 NONE                                   ANT # / TYPE
  -739524.6273 -5498085.1871  3136833.2568                  APPROX POSITION XYZ
        2.0000        0.0000        0.0000                  ANTENNA: DELTA H/E/N
     1     1                                                WAVELENGTH FACT L1/2
     5    L1    L2    C1    P1    P2                        # / TYPES OF OBSERV
    15                                                      LEAP SECONDS
  2011     9    25     0     0   30.0000000     GPS         TIME OF FIRST OBS
                                                            END OF HEADER
 11  9 25  0  0 30.0000000  0  9G12G02G29G30G10G25G15G05G26
 -26205394.42658 -20408368.09153  21911222.8984                   21911223.7584
 -31448399.65257 -24493297.18453  21838101.1024                   21838099.6804
 -16495471.94957 -12843971.14653  22273378.7504                   22273379.6334
 -12179121.42257  -9479660.88553  22761612.9304                   22761614.6844
 -17023039.61716                  24133400.172
 -23170171.59858 -18042809.14854  21672218.3914                   21672221.0864
  -2292477.00457  -1775727.32852  24339564.1174                   24339569.3984
 -31864288.00458 -24817537.20954  20520728.7894                   20520728.4734
  -9654886.76657  -7512533.27253  23411599.9924                   23411605.4534
 11  9 25  0  1  0.0000000  0  9G12G02G29G30G10G25G15G05G26
 -26153464.66048 -20367903.37643  21921105.3674                   21921106.2114
 -31428737.02747 -24477975.64843  21841842.5944                   21841841.0354
 -16597139.27047 -12923192.38443  22254031.9064                   22254032.9804
 -12224213.10247  -9514797.22143  22753032.0634                   22753034.2194
 -16937612.703 6                  24149657.023
 -23172739.70748 -18044810.30244  21671729.5314                   21671732.8324
  -2411065.68747  -1868134.01243  24316996.5864                   24317001.1994
 -31853189.93048 -24808889.33144  20522840.6884                   20522840.4574
  -9770834.66847  -7602882.10952  23389534.5554                   23389538.3714
 11  9 25  0  1 30.0000000  0  9G12G02G29G30G10G25G15G05G26
 -26101163.18747 -20327149.01044  21931057.8984                   21931058.3204
 -31408963.81247 -24462567.95244  21845605.1334                   21845603.2584
 -16698658.42647 -13002298.10943  22234713.2424                   22234713.9224
 -12268706.32847  -9549467.30543  22744565.3914                   22744566.7464
 -16852069.898 6                  24165933.555
 -23174738.52748 -18046367.82644  21671349.8054                   21671352.1134
  -2529710.92247  -1960584.29243  24294419.1174                   24294423.4224
 -31841587.77048 -24799848.66645  20525049.0634                   20525048.3634
  -9886623.59847  -7693107.13143  23367500.3364                   23367504.4144
 11  9 25  0  2  0.0000000  0  9G12G02G29G30G10G25G15G05G26
 -26048491.11748 -20286105.89243  21941081.1414                   21941082.1914
 -31389078.34848 -24447072.81643  21849389.4064                   21849387.3874
 -16800025.80147 -13081285.63343  22215424.1174                   22215424.6684
 -12312599.29347  -9583669.63343  22736212.8984                   22736215.1524
 -16766411.941 6                  24182235.844
 -23176167.66048 -18047481.44444  21671077.7814                   21671080.4574
  -2648408.586 6                  24271831.391
 -31829481.73048 -24790415.36444  20527352.3054                   20527351.7114
 -10002248.10947  -7783203.99443  23345498.0704                   23345501.0864
 11  9 25  0  2 30.0000000  0  9G12G02G29G30G10G25G15G05G26
 -25995450.64848 -20244775.66944  21951174.6174                   21951175.4184
 -31369080.09847 -24431489.74643  21853195.0634                   21853193.4924
 -16901238.30147 -13160152.46743  22196163.5864                   22196164.1524
 -12355891.07847  -9617403.43643  22727974.8524                   22727975.8914
 -16680640.844 6                  24198556.602
 -23177027.84048 -18048151.75944  21670913.6804                   21670916.2704
  -2767155.50446  -2145605.70352  24249233.5554                   24249243.3554
 -31816873.37948 -24780590.66145  20529751.3594                   20529750.9304
 -10117704.07447  -7873169.52743  23323527.7814                   23323530.1254
 11  9 25  0  3  0.0000000  0  9G12G02G29G30G10G25G15G05G26
 -25942045.64148 -20203161.45043  21961337.2194                   21961337.6024
 -31348969.44547 -24415819.08843  21857021.6414                   21857019.6764
 -17002294.77047 -13238897.66143  22176933.1094                   22176934.0044
 -12398581.81247  -9650668.92543  22719850.4224                   22719852.8874
 -16594759.539 6                  24214899.031
 -23177320.71948 -18048379.94744  21670858.0474                   21670860.9144
  -2885949.17146  -2238171.51543  24226628.3594                   24226635.7854
 -31803764.71148 -24770376.11944  20532246.1334                   20532245.6214
 -10232988.05547  -7963000.99643  23301589.7424                   23301591.6174
 11  9 25  0  3 30.0000000  0  9G12G02G29G30G10G25G15G05G26
 -25888277.53148 -20161264.18844  21971568.5944                   21971569.2194
 -31328745.63747 -24400060.29443  21860870.5164                   21860869.0664
 -17103192.30547 -13317519.06143  22157732.9534                   22157733.7034
 -12440670.53547  -9683465.52343  22711841.5474                   22711842.2704
 -16508769.578 6                  24231263.188
 -23177046.96548 -18048166.63844  21670910.2974                   21670913.3954
  -3004786.262 6                  24204013.516
 -31790156.59048 -24759772.36345  20534835.6724                   20534835.2424
 -10348095.80947  -8052695.13643  23279685.2034                   23279686.6214
 11  9 25  0  4  0.0000000  0  9G12G02G29G30G10G25G15G05G26
 -25834148.44548 -20119085.77643  21981869.2814                   21981870.0594
 -31308407.73847 -24384212.54343  21864740.8444                   21864739.1094
 -17203927.80547 -13396014.18744  22138563.9534                   22138565.3284
 -12482156.06647  -9715791.72743  22703947.0474                   22703949.0314
 -16422672.410 6                  24247646.141
 -23176206.85948 -18047512.12244  21671070.0474                   21671072.3954
  -3123662.832 6                  24181391.797
 -31776050.56248 -24748780.62844  20537519.8524                   20537519.0274
 -10463022.63347  -8142248.37552  23257815.8364                   23257817.4144
 11  9 25  0  4 30.0000000  0  9G12G02G29G30G10G25G15G05G26
 -25779659.40648 -20076626.81844  21992238.1804                   21992238.8634
 -31287954.03547 -24368274.58643  21868632.9224                   21868631.5354
 -17304497.46947 -13474380.06543  22119425.7814                   22119426.8754
 -12523036.52047  -9747646.50543  22696168.2274                   22696169.6884
 -16336469.020 6                  24264050.102
 -23174800.09048 -18046415.85744  21671338.0944                   21671340.8914
  -3242574.492 6                  24158763.930
 -31761446.83648 -24737401.10145  20540298.6884                   20540298.4574
 -10577763.41847  -8231656.57943  23235980.6884                   23235982.5084
 11  9 25  0  5  0.0000000  0  9G12G02G29G30G10G25G15G05G26
 -25724813.73048 -20033889.94943  22002675.0784                   22002675.4734
 -31267385.10547 -24352246.87744  21872547.0554                   21872545.8164
 -17404899.83647 -13552615.60443  22100319.7664                   22100320.7344
 -12563312.57847  -9779030.28443  22688504.0004                   22688504.6884
 -16250162.266 6                  24280473.758
 -23172828.85548 -18044879.86244  21671712.8594                   21671715.6804
  -3361519.402 6                  24136129.086
 -31746347.76248 -24725635.52844  20543172.3364                   20543171.3594
 -10692315.00847  -8320917.41842  23214181.9384                   23214185.2114
 11  9 25  0  5 30.0000000  0  9G12G02G29G30G10G25G15G05G26
 -25669613.33248 -19990876.77543  22013179.5164                   22013179.7544
 -31246699.46147 -24336128.23243  21876483.6484                   21876482.4304
 -17505131.31647 -13630717.98244  22081246.7034                   22081247.1214
 -12602982.57447  -9809942.04343  22680954.3284                   22680955.5904
 -16163753.590 6                  24296918.008
 -23170293.12148 -18042903.97744  21672195.3834                   21672198.2704
  -3480493.24246  -2701453.23453  24113489.6724                   24113495.6334
 -31730753.68048 -24713484.32245  20546139.4844                   20546138.7734
 -10806672.40247  -8410026.88342  23192420.7424                   23192423.3364
 11  9 25  0  6  0.0000000  0  9G12G02G29G30G10G25G15G05G26
 -25614061.15648 -19947589.33343  22023750.5234                   22023751.0434
 -31225897.13747 -24319918.64143  21880441.8594                   21880440.8364
 -17605189.91047 -13708685.66443  22062205.6414                   22062206.3874
 -12642046.62147  -9840381.53843  22673520.9304                   22673522.3524
 -16077245.234 6                  24313380.125
 -23167194.39148 -18040489.37244  21672785.1174                   21672787.7304
  -3599493.16847  -2794180.26242  24090844.3834                   24090847.9264
 -31714666.89548 -24700949.11444  20549201.0004                   20549200.6414
 -10920831.87947  -8498982.14643  23170696.3204                   23170697.7154
 11  9 25  0  6 30.0000000  0  9G12G02G29G30G10G25G15G05G26
 -25558162.14147 -19904031.72243  22034388.0314                   22034388.4844
 -31204980.76247 -24303620.06343  21884422.1644                   21884420.1174
 -17705075.94147 -13786518.83543  22043198.2034                   22043198.6604
 -12680507.10247  -9870350.79943  22666202.4924                   22666204.4574
 -15990642.164 6                  24329859.820
 -23163536.71148 -18037639.28944  21673481.1954                   21673483.7034
  -3718519.19947  -2886927.50753  24068193.8444                   24068196.1254
 -31698091.56648 -24688033.28845  20552355.0864                   20552355.2464
 -11034792.50447  -8587782.53743  23149010.4694                   23149012.5944
 11  9 25  0  7  0.0000000  0  9G12G02G29G30G10G25G15G05G26
 -25501919.08248 -19860205.99143  22045090.8524                   22045091.2234
 -31183949.44147 -24287232.02043  21888424.0314                   21888422.7424
 -17804786.50047 -13864215.27543  22024224.0554                   22024224.8834
 -12718363.11347  -9899848.87843  22658998.1884                   22659000.2544
 -15903945.910 6                  24346357.219
 -23159320.69548 -18034353.98944  21674283.2274                   21674285.6454
  -3837567.44547  -2979692.11752  24045540.0084                   24045542.8404
 -31681028.98848 -24674737.73444  20555601.8134                   20555602.0704
 -11148549.68446  -8676424.31753  23127363.0314                   23127365.1684
 11  9 25  0  7 30.0000000  0  9G12G02G29G30G10G25G15G05G26
 -25445331.82848 -19816112.06143  22055858.6414                   22055859.0824
 -31162800.44147 -24270752.24143  21892448.9304                   21892447.5044
 -17904316.46147 -13941771.04443  22005283.7814                   22005284.4534
 -12755612.07447  -9928873.98743  22651910.0314                   22651911.6454
 -15817156.00446 -12314415.85252  24362872.8674                   24362877.1254
 -23154545.16848 -18030632.84644  21675191.9614                   21675194.9534
  -3956632.48047  -3072469.75042  24022882.0554                   24022886.8094
 -31663478.10548 -24661061.71044  20558941.7814                   20558941.1804
 -11262096.99247  -8764902.51943  23105755.1564                   23105757.4924
 11  9 25  0  8  0.0000000  0  9G12G02G29G30G10G25G15G05G26
 -25388405.93448 -19771754.20643  22066691.4774                   22066691.1414
 -31141536.09047 -24254182.64243  21896494.7814                   21896493.8984
 -18003666.87547 -14019186.91344  21986377.7814                   21986378.1254
 -12792256.57047  -9957428.13643  22644937.1174                   22644938.7774
 -15730277.699 6                  24379404.656
 -23149214.37148 -18026478.95144  21676206.4144                   21676208.5314
  -4075714.29746  -3165260.43042  24000220.8674                   24000225.3794
 -31645444.39548 -24647009.48544  20562373.6484                   20562372.4694
 -11375433.28146  -8853216.47143  23084188.3754                   23084190.4264
 11  9 25  0  8 30.0000000  0  9G12G02G29G30G10G25G15G05G26
 -25331145.12148 -19727135.45943  22077587.7664                   22077588.5164
 -31120157.47347 -24237523.98843  21900563.4064                   21900562.2154
 -18102836.13747 -14096461.57243  21967506.4924                   21967506.8594
 -12828297.57847  -9985511.98543  22638078.6954                   22638080.6054
 -15643314.246 6                  24395952.758
 -23143330.74248 -18021894.31344  21677326.0084                   21677328.3594
  -4194810.828 6                  23977557.773
 -31626930.68748 -24632583.19645  20565896.5634                   20565896.4024
 -11488555.98047  -8941363.80843  23062661.2894                   23062663.2384
 11  9 25  0  9  0.0000000  0  9G12G02G29G30G10G25G15G05G26
 -25273548.02348 -19682254.67843  22088548.1954                   22088548.6294
 -31098660.27748 -24220772.89843  21904653.7894                   21904652.4104
 -18201817.68047 -14173589.96343  21948671.0084                   21948671.7154
 -12863731.01247 -10013122.44643  22631335.8594                   22631338.5944
 -15556263.996 6                  24412518.305
 -23136891.69548 -18016876.91944  21678551.3834                   21678554.9534
  -4313914.95346  -3350870.78952  23954892.2894                   23954894.7584
 -31607934.51248 -24617780.98344  20569510.9694                   20569510.3834
 -11601457.16847  -9029338.65543  23041177.1254                   23041178.4534
 11  9 25  0  9 30.0000000  0  9G12G02G29G30G10G25G15G05G26
 -25215621.71948 -19637117.35244  22099571.7034                   22099571.6334
 -31077048.49647 -24203932.62843  21908766.6024                   21908764.8954
 -18300613.56647 -14250573.73244  21929870.6024                   21929871.3134
 -12898560.87947 -10040262.71043  22624707.4694                   22624709.9494
 -15469133.191 6                  24429099.742
 -23129902.77048 -18011431.00044  21679881.2424                   21679883.8094
  -4433028.19946  -3443685.81253  23932226.1884                   23932229.3444
 -31588461.77348 -24602607.38644  20573216.6564                   20573216.3794
 -11714136.96147  -9117140.86143  23019734.6254                   23019736.6684
 11  9 25  0 10  0.0000000  0  9G12G02G29G30G10G25G15G05G26
 -25157367.05548 -19591724.11744  22110657.1174                   22110657.1054
 -31055319.93447 -24187001.18643  21912901.5944                   21912899.8984
 -18399219.53947 -14327409.47343  21911106.6564                   21911107.4414
 -12932785.21147 -10066930.89543  22618195.0944                   22618196.6294
 -15381922.105 6                  24445694.422
 -23122363.48048 -18005556.26844  21681316.2894                   21681319.1684
  -4552145.48046  -3536504.26353  23909558.5164                   23909554.9384
 -31568512.31648 -24587062.31745  20577013.1414                   20577012.1254
 -11826589.64147  -9204766.26543  22998336.0084                   22998336.6214
 11  9 25  0 10 30.0000000  0  9G12G02G29G30G10G25G15G05G26
 -25098787.27048 -19546077.54443  22121804.6024                   22121805.0514
 -31033474.55948 -24169978.77143  21917058.5554                   21917056.4344
 -18497633.89547 -14404095.94743  21892378.5704                   21892378.7814
 -12966404.59847 -10093127.87443  22611797.2974                   22611799.2304
 -15294633.621 6                  24462305.617
 -23114275.98048 -17999254.32744  21682854.9144                   21682858.5124
  -4671264.28547  -3629323.87142  23886890.6024                   23886891.8674
 -31548088.93748 -24571148.02744  20580899.4924                   20580898.7424
 -11938811.97347  -9292211.95143  22976980.2504                   22976981.4964
 11  9 25  0 11  0.0000000  0  9G12G02G29G30G10G25G15G05G26
 -25039886.00447 -19500180.53643  22133013.1254                   22133013.3014
 -31011513.30548 -24152866.08143  21921237.6724                   21921236.3554
 -18595854.88747 -14480631.79544  21873688.0004                   21873689.0824
 -12999419.94147 -10118853.99243  22605514.8914                   22605517.3204
 -15207270.824 6                  24478930.555
 -23105642.59048 -17992527.02444  21684498.0864                   21684500.7704
  -4790382.520 6                  23864223.469
 -31527194.27348 -24554866.46144  20584875.5944                   20584875.5394
 -12050801.08247  -9379476.04943  22955669.3364                   22955670.9534
 11  9 25  0 11 30.0000000  0  9G12G02G29G30G10G25G15G05G26
 -24980664.28947 -19454033.78943  22144282.6174                   22144283.0784
 -30989433.75848 -24135661.27043  21925439.5864                   21925438.1174
 -18693878.14848 -14557013.49144  21855034.8754                   21855035.2034
 -13031829.25447 -10144108.07543  22599347.4534                   22599349.5434
 -15119833.672 6                  24495568.875
 -23096462.86347 -17985374.01144  21686245.1414                   21686248.2624
  -4909495.08247  -3814957.67853  23841556.5784                   23841559.5984
 -31505828.23048 -24538217.57544  20588941.5864                   20588941.0664
 -12162550.90247  -9466553.76843  22934404.7344                   22934405.5864
 11  9 25  0 12  0.0000000  0  9G12G02G29G30G10G25G15G05G26
 -24921126.39547 -19407640.66943  22155612.5864                   22155612.4774
 -30967237.49648 -24118365.50343  21929663.1484                   21929661.9964
 -18791703.26648 -14633240.79343  21836419.3134                   21836420.1644
 -13063634.39847 -10168891.24643  22593295.7424                   22593296.3984
 -15032326.086 6                  24512220.641
 -23086740.06648 -17977797.84844  21688094.9064                   21688098.1764
  -5028600.49247  -3907766.66052  23818891.7734                   23818894.3094
 -31483994.39148 -24521204.16844  20593095.9614                   20593095.1914
 -12274059.33247  -9553443.17243  22913184.2584                   22913184.5394
 11  9 25  0 12 30.0000000  0  9G12G02G29G30G10G25G15G05G26
 -24861273.77347 -19361002.34743  22167002.2734                   22167002.9694
 -30944922.46948 -24100977.09043  21933909.2344                   21933907.6094
 -18889326.05948 -14709310.48744  21817842.3984                   21817842.6604
 -13094833.69547 -10193202.37743  22587358.1954                   22587360.6294
 -14944748.680 6                  24528885.961
 -23076474.10948 -17969798.45744  21690048.7194                   21690051.4144
  -5147694.40247  -4000566.98843  23796228.7034                   23796230.9224
 -31461693.05548 -24503826.49144  20597340.1254                   20597339.4104
 -12385321.12946  -9640140.65543  22892012.0554                   22892012.5274
 11  9 25  0 13  0.0000000  0 10G12G02G29G30G10G25G15G05G26G21
 -24801110.63347 -19314121.98443  22178450.7114                   22178450.2774
 -30922490.45748 -24083497.63843  21938178.1024                   21938176.5004
 -18986746.30148 -14785222.29244  21799303.8754                   21799304.2774
 -13125429.49647 -10217043.31043  22581536.0554                   22581537.2974
 -14857105.535 6                  24545564.586
 -23065668.71148 -17961378.67844  21692105.0084                   21692107.4534
  -5266775.89147  -4093357.70243  23773567.8594                   23773570.2664
 -31438928.29748 -24486087.68444  20601671.7894                   20601671.2424
 -12496334.09047  -9726644.04643  22870886.7664                   22870888.0664
   -116884.65616                  25132568.844
 11  9 25  0 13 30.0000000  0  9G12G02G29G30G25G15G05G26G21
 -24740647.38347 -19267007.82243  22189956.3364                   22189957.1914
 -30899948.09447 -24065932.12943  21942468.1414                   21942465.9224
 -19083968.02047 -14860979.49944  21780803.1484                   21780804.3404
 -13155428.55547 -10240419.11243  22575828.0004                   22575829.4884
 -23054332.25448 -17952545.12444  21694262.2974                   21694265.0904
  -5385848.48447  -4186141.00053  23750908.9924                   23750910.3094
 -31415708.80548 -24467994.59345  20606090.4844                   20606089.6804
 -12607101.26247  -9812956.22743  22849808.5634                   22849809.7424
   -196839.023 6                  25117353.906
 11  9 25  0 14  0.0000000  0  9G12G02G29G30G25G15G05G26G21
 -24679887.56248 -19219662.55543  22201519.0004                   22201520.1094
 -30877295.94547 -24048281.12743  21946778.3984                   21946776.4654
 -19180990.06647 -14936581.01344  21762340.5084                   21762341.0664
 -13184832.25447 -10263331.16243  22570232.3364                   22570234.5824
 -23042467.43448 -17943299.80644  21696519.7584                   21696522.9964
  -5504910.29346  -4278916.16743  23728251.9534                   23728254.1094
 -31392037.77748 -24449549.61144  20610594.8834                   20610594.4884
 -12717619.90647  -9899074.34943  22828777.7894                   22828780.0354
   -276771.754 6                  25102143.078
 11  9 25  0 14 30.0000000  0  9G12G02G29G30G25G15G05G26G21
 -24618824.98847 -19172081.36943  22213138.2814                   22213139.2624
 -30854525.11347 -24030537.61843  21951111.4924                   21951109.8754
 -19277801.47747 -15012018.49244  21743917.8444                   21743917.9924
 -13213632.03547 -10285772.58243  22564751.6884                   22564753.1054
 -23030067.21948 -17933637.35144  21698879.7034                   21698882.8634
  -5623949.426 6                  23705598.883
 -31367908.34847 -24430747.44744  20615186.5474                   20615186.0234
 -12827877.48047  -9984989.13143  22807795.8204                   22807797.8134
   -356674.137 6                  25086937.539
 11  9 25  0 15  0.0000000  0  9G12G02G29G30G25G15G05G26G21
 -24557455.25847 -19124260.84943  22224816.6334                   22224817.9774
 -30831627.74247 -24012695.52043  21955468.7274                   21955466.7584
 -19374392.07847 -15087283.81644  21725537.3054                   21725537.8014
 -13241820.56247 -10307737.62343  22559387.4384                   22559389.5474
 -23017125.73048 -17923553.12344  21701342.2734                   21701345.5164
  -5742955.22746  -4464405.31053  23682952.2274                   23682953.5354
 -31343314.91047 -24411583.72044  20619866.3444                   20619866.2704
 -12937862.50447 -10070691.66743  22786866.0634                   22786867.7464
   -436539.078 5                  25071739.898
 11  9 25  0 15 30.0000000  0  9G12G02G29G30G25G15G05G26G21
 -24495781.08247 -19076203.08943  22236552.8054                   22236553.9574
 -30808603.59847 -23994754.59143  21959849.7274                   21959848.2544
 -19470759.64147 -15162375.35844  21707199.0234                   21707199.0744
 -13269398.13347 -10329226.64243  22554139.4144                   22554140.7664
 -23003644.64548 -17913048.38344  21703907.6174                   21703910.7664
  -5861924.72746  -4557108.45543  23660313.1254                   23660315.8634
 -31318259.58248 -24392060.08044  20624634.4064                   20624633.5784
 -13047571.12947 -10156178.73543  22765989.4304                   22765990.6294
   -516366.863 6                  25056549.219
 11  9 25  0 16  0.0000000  0  9G12G02G29G30G25G15G05G26G21
 -24433807.61747 -19027912.06943  22248346.1174                   22248347.0234
 -30785454.31647 -23976716.16943  21964255.4304                   21964253.6644
 -19566903.89847 -15237292.94044  21688903.4844                   21688904.1684
 -13296367.08247 -10350241.42143  22549007.4774                   22549008.9534
 -22989627.77048 -17902126.18544  21706575.2424                   21706578.7664
  -5980856.96946  -4649782.55853  23637680.7974                   23637684.0354
 -31292746.41048 -24372179.67144  20629489.3054                   20629488.9024
 -13157001.27347 -10241448.86143  22745165.4694                   22745166.9344
   -596159.879 6                  25041365.953
 11  9 25  0 16 30.0000000  0  9G12G02G29G30G25G15G05G26G21
 -24371541.73447 -18979393.31943  22260195.0634                   22260195.2194
 -30762183.95347 -23958583.44643  21968683.4224                   21968681.6524
 -19662826.63347 -15312037.85643  21670649.8594                   21670650.2774
 -13322731.94947 -10370785.52243  22543990.5944                   22543991.3914
 -22975081.08648 -17890791.13044  21709343.1564                   21709346.5314
  -6099752.91446  -4742428.35843  23615056.0634                   23615058.7344
 -31266781.72348 -24351947.41944  20634430.1804                   20634429.8954
 -13266153.55947 -10326502.44443  22724394.4694                   22724396.0044
   -675922.883 6                  25026186.664
 11  9 25  0 17  0.0000000  0  9G12G02G29G30G25G15G05G26G21
 -24308985.25447 -18930647.99743  22272098.9774                   22272100.3484
 -30738791.05547 -23940355.22243  21973134.5314                   21973133.0634
 -19758524.18747 -15386607.31643  21652438.9844                   21652439.7544
 -13348492.16047 -10390858.36143  22539088.6724                   22539090.9964
 -22960005.37948 -17879043.83744  21712212.0474                   21712215.2774
  -6218608.57447  -4835043.16643  23592438.3594                   23592439.3524
 -31240366.26248 -24331363.91944  20639457.1954                   20639456.5474
 -13375023.09847 -10411335.76443  22703677.1414                   22703678.3634
   -755654.957 6                  25011013.680
 11  9 25  0 17 30.0000000  0  9G12G02G29G30G25G15G05G26G21
 -24246142.00447 -18881679.33143  22284057.7504                   22284057.7894
 -30715276.00047 -23922031.72243  21977609.7274                   21977607.3524
 -19853994.99247 -15461000.08844  21634271.2734                   21634272.1334
 -13373648.83647 -10410461.07943  22534301.8284                   22534303.5434
 -22944403.28148 -17866886.38844  21715181.2504                   21715184.3284
  -6337421.73847  -4927624.71343  23569828.8364                   23569831.2074
 -31213503.03948 -24310431.53544  20644569.1564                   20644568.5394
 -13483606.77747 -10495946.32043  22683014.2584                   22683015.4614
   -835357.605 6                  24995846.766
 11  9 25  0 18  0.0000000  0  9G12G02G29G30G25G15G05G26G21
 -24183013.83647 -18832488.59343  22296071.0944                   22296072.3404
 -30691637.78547 -23903612.32043  21982107.7664                   21982105.5944
 -19949235.93747 -15535213.73444  21616147.4454                   21616148.3794
 -13398201.69147 -10429593.24743  22529629.4534                   22529630.7854
 -22928275.92248 -17854319.63844  21718250.0634                   21718253.3164
  -6456188.30947  -5020169.79343  23547228.4384                   23547230.2464
 -31186193.79748 -24289151.59344  20649765.7584                   20649764.8954
 -13591899.90647 -10580330.45743  22662406.4844                   22662408.4414
   -915030.309 6                  24980685.945
 11  9 25  0 18 30.0000000  0  9G12G02G29G30G25G15G05G26G21
 -24119604.82847 -18783079.03643  22308136.9844                   22308137.7424
 -30667877.39847 -23885097.77243  21986629.0634                   21986627.3134
 -20044245.57447 -15609247.12044  21598067.5084                   21598067.8404
 -13422152.22347 -10448255.95443  22525071.8674                   22525072.9304
 -22911626.10248 -17841345.75744  21721418.4384                   21721421.7814
  -6574906.31247  -5112677.04443  23524636.9924                   23524639.0124
 -31158441.19148 -24267526.18444  20655046.6254                   20655046.4494
 -13699899.87147 -10664486.15943  22641855.1564                   22641856.0434
   -994674.293 6                  24965529.477
 11  9 25  0 19  0.0000000  0  9G12G02G29G30G25G15G05G26G21
 -24055918.75047 -18733453.56543  22320256.0084                   22320257.9064
 -30643995.03947 -23866488.16043  21991173.9844                   21991172.5314
 -20139022.49648 -15683099.14544  21580032.3364                   21580032.7704
 -13445501.77747 -10466450.42843  22520628.5164                   22520629.4694
 -22894456.68748 -17827967.03844  21724685.5314                   21724688.7584
  -6693574.10947  -5205145.27042  23502055.1024                   23502055.8094
 -31130248.18748 -24245557.58044  20660411.8754                   20660410.9144
 -13807603.69947 -10748411.06443  22621359.4064                   22621359.9804
  -1074291.027 6                  24950378.469
 11  9 25  0 19 30.0000000  0  9G12G02G29G30G25G15G05G26G21
 -23991958.06647 -18683614.16643  22332427.8594                   22332427.9774
 -30619990.85547 -23847783.53143  21995741.8594                   21995739.6094
 -20233564.35547 -15756768.04744  21562041.5944                   21562041.6644
 -13468250.86747 -10484176.90843  22516300.0704                   22516300.8324
 -22876769.53148 -17814184.83644  21728051.7194                   21728054.6884
  -6812187.85247  -5297571.29043  23479483.1024                   23479485.6454
 -31101617.24248 -24223247.77444  20665859.7274                   20665858.7034
 -13915007.51247 -10832102.26143  22600920.7734                   22600923.2424
  -1153880.637 6                  24935233.242
 11  9 25  0 20  0.0000000  0  9G12G02G29G30G25G15G05G26G21
 -23927725.78547 -18633563.12143  22344650.5944                   22344650.9734
 -30595864.02747 -23828983.40243  22000332.4614                   22000331.2194
 -20327868.37548 -15830251.60144  21544095.9224                   21544096.2194
 -13490399.79747 -10501435.90143  22512084.5314                   22512087.1024
 -22858566.33648 -17800000.54644  21731515.5394                   21731518.7304
  -6930744.66847  -5389952.93753  23456921.8364                   23456924.9694
 -31072550.10948 -24200598.03044  20671391.0784                   20671390.8954
 -14022107.22747 -10915556.39843  22580540.8364                   22580541.9144
  -1233443.508 6                  24920092.758
 11  9 25  0 20 30.0000000  0  9G12G02G29G30G25G15G05G26G21
 -23863224.71547 -18583302.51543  22356924.9694                   22356926.1804
 -30571613.45347 -23810086.79043  22004947.6094                   22004946.3364
 -20421931.40648 -15903547.37644  21526196.2664                   21526196.6644
 -13511948.37947 -10518226.92143  22507984.4064                   22507986.2704
 -22839848.32048 -17785415.09944  21735077.4454                   21735079.5904
  -7049240.60547  -5482287.37043  23434372.7734                   23434375.9304
 -31043048.00048 -24177609.35345  20677004.9304                   20677005.0824
 -14128898.35547 -10998770.26343  22560218.8674                   22560219.4414
  -1312979.398 6                  24904957.477
 11  9 25  0 21  0.0000000  0  9G12G02G29G30G25G15G05G26G21
 -23798458.99647 -18532835.77943  22369249.3754                   22369249.2814
 -30547240.36747 -23791094.78043  22009585.9614                   22009583.7664
 -20515752.42648 -15976654.55944  21508342.9454                   21508343.0904
 -13532898.78547 -10534552.15743  22503997.6024                   22503999.0784
 -22820619.05148 -17770431.29344  21738736.7344                   21738739.8594
  -7167674.18746  -5574573.01443  23411835.3134                   23411838.3634
 -31013114.57848 -24154284.60844  20682701.2894                   20682701.3484
 -14235378.59447 -11081741.76143  22539956.0084                   22539957.6684
  -1392489.87146  -1077681.64152  24889827.6804                   24889829.0864
 11  9 25  0 21 30.0000000  0  9G12G02G29G30G25G15G05G26G21
 -23733429.96547 -18482163.85643  22381623.8914                   22381625.2704
 -30522743.73447 -23772006.48743  22014246.9924                   22014244.8484
 -20609328.39848 -16049570.85244  21490535.8284                   21490536.4924
 -13553250.86746 -10550410.76143  22500124.5704                   22500125.8054
 -22800879.68448 -17755049.99344  21742493.0234                   21742495.7774
  -7286041.28546  -5666806.90253  23389310.9774                   23389311.7034
 -30982751.14848 -24130624.78844  20688479.4534                   20688478.9654
 -14341543.31247 -11164467.32143  22519753.3674                   22519754.3524
  -1471974.65246  -1139617.47342  24874702.1094                   24874703.5044
 11  9 25  0 22  0.0000000  0  9G12G02G29G30G25G15G05G26G21
 -23668142.92247 -18431290.92843  22394048.1644                   22394048.2854
 -30498124.57847 -23752822.56443  22018931.4844                   22018930.1644
 -20702658.40648 -16122295.43344  21472775.4064                   21472775.8444
 -13573006.62947 -10565804.80043  22496365.3284                   22496365.5864
 -22780633.64848 -17739273.85244  21746345.2504                   21746348.1564
  -7404340.36346  -5758987.75643  23366798.7814                   23366802.4734
 -30951961.34048 -24106632.69344  20694338.3284                   20694337.3554
 -14447389.88347 -11246945.10643  22499611.2584                   22499613.5354
  -1551435.68446  -1201534.87453  24859580.0164                   24859581.5864
 11  9 25  0 22 30.0000000  0  9G12G02G29G30G25G15G05G26G21
 -23602597.80147 -18380216.78043  22406520.5944                   22406521.4804
 -30473379.91847 -23733541.05443  22023641.0004                   22023639.1484
 -20795737.21548 -16194824.24144  21455063.2504                   21455062.6724
 -13592164.25847 -10580732.75743  22492720.0704                   22492720.2034
 -22759880.40248 -17723102.53844  21750295.0234                   21750297.9384
  -7522565.73847  -5851111.36243  23344301.5944                   23344304.0274
 -30920745.12548 -24082308.38444  20700278.7974                   20700278.2074
 -14552912.14147 -11329170.12943  22479531.1724                   22479533.0044
  -1630870.75046  -1263432.42653  24844464.1954                   24844467.6604
 11  9 25  0 23  0.0000000  0  9G12G02G29G30G25G15G05G26G21
 -23536799.39847 -18328945.41543  22419041.7274                   22419042.4654
 -30448511.49247 -23714163.05643  22028372.8674                   22028371.2034
 -20888564.30548 -16267156.95344  21437399.0554                   21437398.8674
 -13610726.34447 -10595196.64943  22489187.0474                   22489188.5274
 -22738623.98448 -17706539.07944  21754340.1954                   21754343.6024
  -7640716.20346  -5943176.32143  23321818.8054                   23321819.9024
 -30889106.24248 -24057654.72544  20706299.1174                   20706298.8954
 -14658108.27747 -11411140.94043  22459512.9534                   22459514.9574
  -1710281.83246  -1325310.82953  24829352.7814                   24829357.4024
 11  9 25  0 23 30.0000000  0  9G12G02G29G30G25G15G05G26G21
 -23470749.58247 -18277477.99043  22431610.5634                   22431611.7734
 -30423517.72748 -23694687.36643  22033129.2194                   22033127.4844
 -20981136.15248 -16339290.75844  21419782.9144                   21419782.3204
 -13628692.41047 -10609196.18143  22485768.5704                   22485769.0824
 -22716865.14848 -17689584.18244  21758480.4064                   21758483.8524
  -7758787.26647  -6035179.60043  23299349.9534                   23299352.7464
 -30857045.82448 -24032672.58844  20712400.3754                   20712399.7154
 -14762973.09847 -11492853.74443  22439557.5164                   22439558.3164
  -1789668.32046  -1387170.41442  24814246.1174                   24814249.5824
 11  9 25  0 24  0.0000000  0  9G12G02G29G30G25G15G05G26G21
 -23404450.60247 -18225816.56743  22444226.7584                   22444228.0514
 -30398397.43048 -23675113.03343  22037909.5394                   22037907.8364
 -21073449.74648 -16411223.36244  21402216.0164                   21402216.3284
 -13646062.59847 -10622731.30043  22482463.0474                   22482465.0824
 -22694605.37948 -17672238.92144  21762715.9534                   21762719.5314
  -7876775.28547  -6127118.06043  23276897.6414                   23276898.9774
 -30824565.34048 -24007363.06844  20718580.9304                   20718580.3324
 -14867502.12547 -11574304.71943  22419666.4144                   22419666.7584
  -1869029.99646  -1449010.57852  24799143.6804                   24799141.0554
 11  9 25  0 24 30.0000000  0  9G12G02G29G30G25G15G05G26G21
 -23337906.50847 -18173964.09043  22456890.1484                   22456891.0984
 -30373151.97748 -23655441.22143  22042713.2814                   22042711.6334
 -21165503.90648 -16482953.79644  21384698.8594                   21384698.7894
 -13662839.20747 -10635803.97443  22479270.3834                   22479271.1374
 -22671848.28148 -17654506.17144  21767046.8754                   21767049.5234
  -7994678.65247  -6218990.64243  23254460.6174                   23254462.1134
 -30791668.54348 -23981729.22244  20724841.1174                   20724840.4884
 -14971693.24247 -11655492.58943  22399839.8594                   22399841.0704
  -1948368.687 6                  24784045.898
 11  9 25  0 25  0.0000000  0  9G12G02G29G30G25G15G05G26G21
 -23271119.39547 -18121922.26343  22469599.1334                   22469599.2814
 -30347779.59048 -23635670.52743  22047541.6564                   22047540.5124
 -21257294.94148 -16554479.15744  21367231.0634                   21367231.2814
 -13679021.69547 -10648413.48343  22476190.7424                   22476191.7344
 -22648594.66048 -17636386.47544  21771472.0474                   21771474.5204
  -8112493.04747  -6310793.82643  23232041.1484                   23232043.3794
 -30758356.48848 -23955771.74044  20731179.9064                   20731179.7734
 -15075541.12947 -11736412.89643  22380077.9384                   22380079.3134
  -2027683.42246  -1572636.21552  24768953.3284                   24768952.6884
 11  9 25  0 25 30.0000000  0  9G12G02G29G30G25G15G05G26G21
 -23204093.65647 -18069694.42943  22482353.9144                   22482354.0234
 -30322281.50448 -23615801.90343  22052393.7194                   22052392.0514
 -21348821.95348 -16625798.81944  21349814.3134                   21349814.7814
 -13694612.49647 -10660562.22243  22473223.8674                   22473224.8014
 -22624848.16048 -17617882.67344  21775990.7344                   21775993.6604
  -8230216.57047  -6402526.32143  23209639.5704                   23209641.0314
 -30724632.43748 -23929493.24844  20737597.5784                   20737597.4024
 -15179043.58647 -11817064.04143  22360381.8674                   22360382.6174
  -2106976.078 6                  24753864.430
 11  9 25  0 26  0.0000000  0  9G12G02G29G30G25G15G05G26G21
 -21561412.87547 -16789683.51243  22794945.4694                   22794945.8714
 -28721236.65247 -22368234.41543  22357062.5704                   22357060.4734
 -19864658.19148 -15469307.47444  21632241.2974                   21632241.5704
 -12134190.41447  -9444648.81043  22770162.3594                   22770163.6914
 -21025190.30948 -16371396.05544  22080395.2194                   22080398.4844
  -6772420.85947  -5266581.40853  23487048.7274                   23487047.5904
 -29115078.16048 -22675295.06844  21043885.8204                   21043885.2274
 -13706772.11747 -10669839.46443  22640545.8914                   22640546.1604
   -610823.06646   -468588.91452  25038572.0164                   25038570.1024
 11  9 25  0 26 30.0000000  0  9G12G02G29G30G25G15G05G26G21
 -21493917.47747 -16737089.84843  22807789.7664                   22807791.0004
 -28695484.80547 -22348168.07243  22361963.1254                   22361961.2234
 -19955649.03548 -15540209.32544  21614926.0944                   21614926.4104
 -12148599.28947  -9455876.44443  22767421.1024                   22767421.7274
 -21000463.44147 -16352128.43244  22085101.1094                   22085103.7194
  -6889952.18447  -5358164.15252  23464682.8524                   23464684.8594
 -29080535.92248 -22648379.06244  21050458.8524                   21050458.8364
 -13809571.25047 -10749942.52243  22620983.6954                   22620985.1484
                   -690071.398 6                                  25023491.664
 11  9 25  0 27  0.0000000  0  9G12G02G29G30G25G15G05G26G21
 -21426193.00447 -16684317.49643  22820677.3444                   22820677.5594
 -28669606.69147 -22328003.28643  22366886.9224                   22366885.8324
 -20046368.61348 -15610899.80044  21597662.5394                   21597662.5274
 -12162419.73847  -9466645.62443  22764790.5634                   22764791.8404
 -20975250.87948 -16332482.28544  22089898.9534                   22089901.6604
  -7007383.83247  -5449669.10343  23442335.9384                   23442338.1484
 -29045589.18748 -22621147.82444  21057109.1334                   21057108.4184
 -13912014.15247 -10829768.07443  22601489.4534                   22601489.9344
                   -769299.113 6                                  25008415.367
 11  9 25  0 27 30.0000000  0  9G12G02G29G30G25G15G05G26G21
 -21358243.22747 -16631369.68943  22833607.5474                   22833608.4184
 -28643603.24647 -22307740.81843  22371835.5704                   22371834.3674
 -20136816.18748 -15681378.33644  21580450.8444                   21580450.8914
 -12175653.87147  -9476957.90443  22762272.9064                   22762274.2424
 -20949556.00048 -16312460.36644  22094788.3444                   22094791.6484
  -7124714.02347  -5541095.06343  23420008.4384                   23420011.1094
 -29010241.44548 -22593604.08244  21063835.2504                   21063835.5474
 -14014098.25447 -10909313.95843  22582062.8204                   22582063.6254
                   -848507.922 6                                  24993342.625
 11  9 25  0 28  0.0000000  0  9G12G02G29G30G25G15G05G26G21
 -21290069.22347 -16578247.21143  22846580.7894                   22846581.2304
 -28617472.18447 -22287379.01743  22376807.9844                   22376805.9064
 -20226987.47348 -15751641.58544  21563291.8754                   21563292.4184
 -12188300.75447  -9486812.54243  22759865.7114                   22759867.8914
 -20923379.06648 -16292062.73244  22099769.5474                   22099772.5554
  -7241937.34447  -5632437.76843  23397702.1254                   23397703.9414
 -28974492.77348 -22565748.00844  21070638.1724                   21070636.5664
 -14115817.95347 -10988575.97943  22562706.4304                   22562706.4844
                   -927696.437 6                                  24978272.602
 11  9 25  0 28 30.0000000  0  9G12G02G29G30G25G15G05G26G21
 -21221675.29347 -16524953.30643  22859595.9224                   22859596.3164
 -28591214.53947 -22266918.51443  22381804.8914                   22381803.1954
 -20316881.67648 -15821688.89044  21546185.6414                   21546184.5394
 -12200363.07447  -9496211.79543  22757570.3134                   22757570.4614
 -20896724.09847 -16271292.64344  22104841.9694                   22104845.1914
  -7359052.56247  -5723696.22643  23375415.3364                   23375416.8364
 -28938347.19548 -22537582.54544  21077516.3054                   21077516.3324
 -14217171.19947 -11067552.37543  22543419.0474                   22543421.3444
                  -1006866.477 6                                  24963206.633
 11  9 25  0 29  0.0000000  0  9G12G02G29G30G25G15G05G26G21
 -21153065.32847 -16471491.10243  22872651.7974                   22872653.4184
 -28564830.08247 -22246359.13943  22386825.7584                   22386824.1334
 -20406496.03547 -15891518.20344  21529132.6334                   21529132.0044
 -12211842.01647  -9505156.37843  22755385.3444                   22755386.2274
 -20869593.40647 -16250151.90844  22110004.7504                   22110007.4344
  -7476056.36747  -5814867.75243  23353150.3524                   23353151.8834
 -28901806.89147 -22509109.55544  21084469.8674                   21084469.3404
 -14318154.30947 -11146240.42343  22524202.3134                   22524204.2234
                  -1086019.090 6                                  24948144.734
 11  9 25  0 29 30.0000000  0  9G12G02G29G30G25G15G05G26G21
 -21084244.84447 -16417864.82943  22885747.8754                   22885748.4654
 -28538321.02347 -22225702.71543  22391870.0474                   22391867.6134
 -20495831.10948 -15961129.84744  21512132.2194                   21512132.9734
 -12222741.30547  -9513649.37843  22753311.4224                   22753312.3324
 -20841991.96948 -16228644.27744  22115256.9844                   22115259.9414
  -7592948.50847  -5905952.45943  23330906.2894                   23330907.4884
 -28864877.12548 -22480333.14544  21091497.2894                   21091496.4144
 -14418765.85247 -11224638.89043  22505056.6884                   22505058.2114
                  -1165156.480 6                                  24933085.438
 11  9 25  0 30  0.0000000  0  9G12G02G29G30G25G15G05G26G21
 -21015215.16847 -16364075.43243  22898883.9614                   22898885.3404
 -28511686.11747 -22204948.29543  22396938.4844                   22396936.0784
 -20584882.99648 -16030520.88544  21495186.4224                   21495186.0904
 -12233060.70347  -9521690.39643  22751348.1254                   22751348.7664
 -20813920.90648 -16206770.79044  22120599.0634                   22120602.2584
  -7709724.41047  -5996946.42543  23308684.4534                   23308685.7274
 -28827558.71948 -22451253.85844  21098598.6094                   21098597.6254
 -14519001.36347 -11302744.41843  22485982.8674                   22485984.4184
                  -1244278.043 6                                  24918028.859
 11  9 25  0 30 30.0000000  0  9G12G02G29G30G25G15G05G26G21
 -20945980.85547 -16310126.76043  22912059.1174                   22912060.0474
 -28484926.34447 -22184096.42243  22402030.6564                   22402028.5944
 -20673650.95348 -16099690.59244  21478294.2274                   21478294.1884
 -12242802.98447  -9529281.73343  22749494.1644                   22749496.3634
 -20785384.07048 -16184534.30844  22126029.2424                   22126031.4344
  -7826382.80947  -6087848.93443  23286485.2274                   23286486.0984
 -28789855.68048 -22421874.86244  21105773.5164                   21105773.1134
 -14618858.33247 -11380554.92943  22466980.3914                   22466981.4694
                  -1323385.602 6                                  24902974.797
 11  9 25  0 31  0.0000000  0  9G12G02G29G30G25G15G05G26G21
 -20876544.30547 -16256020.37443  22925271.8444                   22925273.0084
 -28458040.86747 -22163146.77143  22407146.9064                   22407144.6214
 -20762132.03548 -16168636.80144  21461456.9454                   21461456.7504
 -12251968.68747  -9536423.96643  22747750.0164                   22747751.7584
 -20756383.25448 -16161936.26043  22131548.2734                   22131551.6724
  -7942919.59447  -6178656.57343  23264308.7194                   23264310.5004
 -28751769.59847 -22392197.35044  21113021.0554                   21113020.5784
 -14718332.52047 -11458067.11843  22448051.1564                   22448052.2304
                  -1402479.168 6                                  24887923.602
 11  9 25  0 31 30.0000000  0  9G12G02G29G30G25G15G05G26G21
 -20806907.46947 -16201758.00143  22938523.7194                   22938525.5084
 -28431028.23847 -22142097.90243  22412286.8984                   22412285.3524
 -20850322.76648 -16237356.79044  21444674.4384                   21444674.2704
 -12260558.00447  -9543116.90143  22746115.3674                   22746116.9414
 -20726919.86348 -16138977.85344  22137154.7344                   22137157.5354
  -8059330.75447  -6269366.54143  23242156.1884                   23242157.5354
 -28713301.74648 -22362222.41844  21120340.9384                   21120340.3714
 -14817419.37947 -11535277.56943  22429195.1094                   22429196.7424
                  -1481558.082 6                                  24872875.781
 11  9 25  0 32  0.0000000  0  9G12G02G29G30G25G15G05G26G21
 -20737075.51647 -16147343.57843  22951812.5084                   22951813.1844
 -28403889.71147 -22120951.02843  22417451.2814                   22417449.7814
 -20938222.30548 -16305849.83244  21427948.0394                   21427947.7074
 -12268573.96547  -9549363.03843  22744590.4694                   22744591.9104
 -20696998.12548 -16115662.19644  22142848.8444                   22142851.4384
  -8175615.06247  -6359977.52443  23220027.6414                   23220029.9614
 -28674456.15247 -22331953.09044  21127733.2034                   21127732.8984
 -14916117.02347 -11612184.63943  22410413.8284                   22410413.8714
                  -1560625.109 6                                  24857829.828
 11  9 25  0 32 30.0000000  0  9G12G02G29G30G25G15G05G26G21
 -20667050.24647 -16092778.51643  22965138.0164                   22965137.9304
 -28376624.15647 -22099705.09043  22422639.7974                   22422638.1484
 -21025827.41048 -16374113.56144  21411276.9144                   21411276.4804
 -12276016.95347  -9555162.75543  22743173.4924                   22743175.3754
 -20666619.49248 -16091990.58344  22148629.5554                   22148632.2194
  -8291768.40247  -6450486.42743  23197924.3834                   23197926.1134
 -28635234.78148 -22301390.97944  21135196.4924                   21135196.1134
 -15014420.60547 -11688784.87443  22391707.6414                   22391708.0634
                  -1639678.711 6                                  24842786.609
 11  9 25  0 33  0.0000000  0  9G12G02G29G30G25G15G05G26G21
 -20596837.43047 -16038067.08543  22978498.7814                   22978500.1374
 -28349233.96547 -22078362.06943  22427852.0164                   22427850.3914
 -21113138.16047 -16442147.85344  21394662.3984                   21394662.6054
 -12282890.80947  -9560519.11543  22741865.6094                   22741867.7114
 -20635789.05147 -16067966.83444  22154496.2894                   22154499.4414
  -8407790.00047  -6540892.61243  23175846.3524                   23175848.2814
 -28595642.11348 -22270539.49644  21142730.8204                   21142730.3244
 -15112329.31247 -11765077.21043  22373076.0234                   22373077.3094
                  -1718722.551 6                                  24827744.141
 11  9 25  0 33 30.0000000  0  9G12G02G29G30G25G15G05G26G21
 -20526438.66847 -15983211.22843  22991895.2584                   22991896.7704
 -28321717.53947 -22056920.70843  22433088.0864                   22433086.4614
 -21200151.12547 -16509950.12244  21378104.3204                   21378103.7034
 -12289195.65247  -9565431.89643  22740666.1174                   22740667.4454
 -20604508.09448 -16043592.10444  22160449.2814                   22160452.6024
  -8523675.76246  -6631193.14243  23153793.6174                   23153795.6054
 -28555679.37147 -22239399.67544  21150335.7664                   21150334.6914
 -15209838.29747 -11841058.04643  22354520.3284                   22354521.7154
                  -1797755.496 6                                  24812704.969
 11  9 25  0 34  0.0000000  0 10G12G02G29G30G18G25G15G05G26G21
 -20455861.35947 -15928215.98443  23005325.5394                   23005326.7034
 -28294078.56247 -22035383.83743  22438347.6954                   22438346.7154
 -21286868.23047 -16577521.83844  21361602.8674                   21361602.3524
 -12294937.02347  -9569905.62843  22739573.5634                   22739574.0984
   1413218.35216                  24748662.734
 -20572783.32047 -16018871.50744  22166486.0944                   22166488.8204
  -8639426.39847  -6721388.17743  23131766.8914                   23131768.5084
 -28515353.10948 -22207976.62744  21158009.1254                   21158008.4384
 -15306948.07847 -11916727.98543  22336040.7194                   22336041.0044
  -1876782.30946  -1455061.27953  24797666.7734                   24797664.0984
 11  9 25  0 34 30.0000000  0 10G12G02G29G30G18G25G15G05G26G21
 -20385113.27747 -15873087.49943  23018789.0704                   23018790.7974
 -28266321.99247 -22013755.27743  22443629.6024                   22443628.2074
 -21373291.71148 -16644864.81644  21345156.7974                   21345155.8404
 -12300121.23447  -9573945.29643  22738586.6094                   22738587.7034
   1302444.914 5                  24727583.055
 -20540622.14548 -15993810.88444  22172606.1414                   22172608.9454
  -8755043.93747  -6811479.62743  23109765.6334                   23109765.8444
 -28474670.40247 -22176275.81944  21165751.1094                   21165750.6134
 -15403660.00047 -11992087.90143  22317637.2734                   22317637.3554
  -1955808.156 6                                                  24782628.305
 11  9 25  0 35  0.0000000  0 10G12G02G29G30G18G25G15G05G26G21
 -20314200.51647 -15817830.99643  23032283.0554                   23032284.4534
 -28238449.96947 -21992036.71243  22448933.7114                   22448931.9844
 -21459422.25847 -16711979.48044  21328766.7034                   21328766.4184
 -12304752.64147  -9577554.13043  22737705.2034                   22737707.3594
   1191842.54315                  24706535.484
 -20508030.01647 -15968414.44244  22178807.7664                   22178811.4494
  -8870528.50447  -6901467.53543  23087789.4304                   23087789.9414
 -28433636.69548 -22144301.46644  21173559.5394                   21173559.7464
 -15499973.32047 -12067137.05643  22299309.2584                   22299310.0234
  -2034836.39516                                                  24767589.094
 11  9 25  0 35 30.0000000  0 10G12G02G29G30G18G25G15G05G26G21
 -20243124.35947 -15762447.01643  23045808.1644                   23045809.6644
 -28210461.05547 -21970227.22543  22454259.4064                   22454258.4414
 -21545256.06647 -16778862.95444  21312433.0864                   21312433.3834
 -12308831.34847  -9580732.28043  22736929.7344                   22736930.1844
   1081414.19115                  24685522.250
 -20475008.22347 -15942683.17044  22185091.9694                   22185095.0354
  -8985875.32447  -6991348.02843  23065839.5394                   23065840.2974
 -28392253.24648 -22112054.60144  21181434.2584                   21181433.2934
 -15595883.24647 -12141872.02043  22281058.4144                   22281058.9184
  -2113866.242 6                                                  24752550.500
 11  9 25  0 36  0.0000000  0 10G12G02G29G30G18G25G15G05G26G21
 -20171885.41847 -15706936.27043  23059365.0084                   23059365.8984
 -28182351.52047 -21948323.67943  22459608.4774                   22459607.0044
 -21630787.32447 -16845510.66644  21296156.7344                   21296157.0274
 -12312355.42247  -9583478.28043  22736258.4064                   22736260.1954
    971164.648 6                  24664542.570
 -20441555.91047 -15916616.43244  22191457.8834                   22191461.3874
  -9101077.78947  -7081115.92943  23043917.0164                   23043918.0204
 -28350518.89548 -22079534.28944  21189376.5234                   21189375.6884
 -15691382.74247 -12216287.02043  22262885.3444                   22262886.0354
  -2192894.81246  -1701382.14552  24737511.5314                   24737506.4924
 11  9 25  0 36 30.0000000  0 10G12G02G29G30G18G25G15G05G26G21
 -20100486.08247 -15651300.35043  23072951.9224                   23072953.8094
 -28154120.60247 -21926325.54843  22464980.8284                   22464978.9024
 -21716013.57448 -16911920.67444  21279938.8284                   21279939.1644
 -12315326.26247  -9585793.16643  22735693.3364                   22735693.9384
    861095.531 6                  24643595.930
 -20407675.51248 -15890216.13744  22197905.0474                   22197908.0084
  -9216132.91047  -7170769.24943  23022022.6094                   23022023.3874
 -28308435.91048 -22046742.34744  21197384.4694                   21197383.9304
 -15786468.06647 -12290379.46443  22244790.7664                   22244791.8204
  -2271922.262 6                                                  24722473.414
 11  9 25  0 37  0.0000000  0 10G12G02G29G30G18G25G15G05G26G21
 -20028926.32447 -15595539.65843  23086569.5474                   23086570.4964
 -28125765.23447 -21904230.39443  22470376.4304                   22470374.3164
 -21800929.52048 -16978088.91144  21263779.8134                   21263779.8554
 -12317742.40247  -9587675.82443  22735233.7504                   22735235.0124
    751210.895 6                  24622685.227
 -20373366.71947 -15863481.98944  22204433.7034                   22204437.1484
  -9331034.41047  -7260302.73343  23000157.4924                   23000158.8134
 -28266003.72748 -22013678.29444  21205459.1094                   21205457.8324
 -15881132.56647 -12364143.89443  22226776.6094                   22226777.6804
  -2350946.285 6                                                  24707435.289
 11  9 25  0 37 30.0000000  0 10G12G02G29G30G18G25G15G05G26G21
 -19957209.67647 -15539656.54943  23100216.7584                   23100218.0594
 -28097285.85947 -21882038.70543  22475796.0864                   22475794.3754
 -21885532.73848 -17044013.47444  21247680.4844                   21247679.9774
 -12319605.73447  -9589127.64443  22734878.7894                   22734880.4924
    641511.457 6                  24601810.109
 -20338632.54348 -15836416.45944  22211043.1414                   22211046.4574
  -9445779.50047  -7349714.34743  22978322.2734                   22978324.3984
 -28223224.91448 -21980344.14944  21213599.5704                   21213598.6844
 -15975373.55947 -12437578.30643  22208843.1174                   22208843.9144
  -2429967.13346  -1886113.43752  24692398.1484                   24692399.0004
 11  9 25  0 38  0.0000000  0 10G12G02G29G30G18G25G15G05G26G21
 -19885339.41447 -15483653.90543  23113893.1884                   23113893.9304
 -28068681.49247 -21859749.50443  22481239.1564                   22481237.5084
 -21969821.45348 -17109692.89944  21231640.6724                   21231641.4064
 -12320918.17247  -9590150.42343  22734629.0084                   22734630.0984
    531998.613 6                  24580969.867
 -20303475.83648 -15809021.58443  22217733.3754                   22217737.1294
  -9560365.47347  -7439002.05543  22956517.3054                   22956518.1804
 -28180102.69148 -21946742.37844  21221805.7194                   21221804.9454
 -16069187.43047 -12510679.94043  22190990.9454                   22190991.9454
  -2508985.73846  -1947685.81143  24677361.3984                   24677361.0944
 11  9 25  0 38 30.0000000  0 10G12G02G29G30G18G25G15G05G26G21
 -19813317.87947 -15427533.16143  23127598.1484                   23127600.1414
 -28039951.93747 -21837362.91943  22486706.2114                   22486704.4534
 -22053792.55148 -17175124.89644  21215661.6724                   21215661.2464
 -12321680.56247  -9590744.40143  22734483.9924                   22734485.7854
    422674.172 6                  24560166.148
 -20267898.59848 -15781299.11044  22224503.4924                   22224507.0084
  -9674788.48447  -7528162.68143  22934743.5314                   22934744.7034
 -28136638.41048 -21912874.06644  21230076.3054                   21230075.7194
 -16162569.84047 -12583445.38943  22173221.1414                   22173221.6844
  -2588002.184 6                  24662324.703
 11  9 25  0 39  0.0000000  0 10G12G02G29G30G18G25G15G05G26G21
 -19741148.10947 -15371297.20543  23141331.9454                   23141332.8554
 -28011096.51647 -21814878.14843  22492197.3134                   22492195.4574
 -22137444.09048 -17240307.81344  21199743.3284                   21199743.1454
 -12321894.71147  -9590911.16843  22734443.0944                   22734443.8014
    313539.328 6                  24539398.750
 -20231903.65648 -15753251.08744  22231353.5634                   22231356.8754
  -9789045.49647  -7617194.00943  22913001.1564                   22913002.0084
 -28092834.74248 -21878741.34744  21238412.0474                   21238410.6334
 -16255517.83247 -12655872.30243  22155533.5864                   22155534.0124
  -2667016.340 6                  24647288.891
 11  9 25  0 39 30.0000000  0 10G12G02G29G30G18G25G15G05G26G21
 -19668833.60547 -15314948.23243  23155092.4454                   23155094.1094
 -27982115.11747 -21792295.24443  22497712.2584                   22497709.6214
 -22220773.48848 -17305239.72844  21183886.0704                   21183885.3554
 -12321562.38347  -9590652.31343  22734506.1094                   22734508.0314
    204595.19946    169688.12152  24518667.2424                   24518675.5514
 -20195493.87548 -15724879.81843  22238282.2584                   22238286.1844
  -9903133.57047  -7706093.61643  22891290.3524                   22891291.4184
 -28048694.42248 -21844346.26944  21246811.5164                   21246811.2274
 -16348027.77347 -12727957.86343  22137929.6174                   22137929.0474
  -2746029.367 6                  24632252.727
 11  9 25  0 40  0.0000000  0 10G12G02G29G30G18G25G15G05G26G21
 -19596378.24247 -15258489.61143  23168880.6024                   23168882.2704
 -27953008.60247 -21769614.75543  22503251.0944                   22503249.1804
 -22303779.50448 -17369919.66244  21168090.5554                   21168089.8594
 -12320686.46147  -9589969.65243  22734672.7274                   22734674.3794
     95842.129 6                  24497972.195
 -20158673.00047 -15696188.29543  22245288.5864                   22245292.3914
 -10017050.60947  -7794860.04243  22869612.6724                   22869613.7234
 -28004220.60948 -21809691.29844  21255274.5164                   21255274.2384
 -16440097.42247 -12799700.35943  22120409.1094                   22120409.7544
  -2825042.492 6                  24617217.008
 11  9 25  0 40 30.0000000  0 10G12G02G29G30G18G25G15G05G26G21
 -19523783.61747 -15201922.44643  23182694.6564                   23182696.6724
 -27923775.20347 -21746835.48743  22508814.0164                   22508810.8714
 -22386458.34848 -17434344.64944  21152357.0314                   21152356.9574
 -12319267.05147  -9588863.58543  22734943.3364                   22734944.6054
    -12717.437 6                  24477313.680
 -20121442.30547 -15667177.28944  22252373.4774                   22252376.7504
 -10130792.01647  -7883489.67843  22847968.5554                   22847969.2544
 -27959414.18448 -21774777.19044  21263800.6724                   21263800.0274
 -16531721.57447 -12871095.75343  22102973.5634                   22102974.9144
  -2904054.555 6                  24602181.016
 11  9 25  0 41  0.0000000  0 10G12G02G29G30G18G25G15G05G26G21
 -19451051.60547 -15145248.06643  23196535.5164                   23196537.4654
 -27894412.87147 -21723955.66743  22514401.7504                   22514399.9304
 -22468805.92248 -17498511.49144  21136687.4064                   21136686.8364
 -12317304.52347  -9587334.21843  22735316.5164                   22735317.5084
   -121080.754 6                  24456691.953
 -20083803.08247 -15637848.03144  22259535.7504                   22259539.5474
 -10244353.34846  -7971978.83443  22826357.5394                   22826359.4454
 -27914276.58648 -21739605.05544  21272390.3134                   21272389.5204
 -16622895.69147 -12942140.42543  22085623.8754                   22085624.8094
  -2983064.836 6                  24587146.266
 11  9 25  0 41 30.0000000  0 10G12G02G29G30G18G25G15G05G26G21
 -19378190.11347 -15088473.07343  23210400.4614                   23210401.8524
 -27864926.77747 -21700979.57043  22520012.7814                   22520010.3094
 -22550825.44948 -17562422.71344  21121078.8984                   21121078.6024
 -12314805.71147  -9585387.13443  22735791.8054                   22735792.6414
   -229251.680 6                  24436108.766
 -20045763.17647 -15608206.56544  22266774.6174                   22266777.2424
 -10357736.30946  -8060329.13343  22804782.3524                   22804784.0864
 -27868815.00048 -21704180.37744  21281041.5704                   21281040.8244
 -16713621.24247 -13012835.55643  22068359.3834                   22068360.0084
  -3062078.74246  -2378668.75553  24572109.7894                   24572112.6684
 11  9 25  0 42  0.0000000  0 10G12G02G29G30G18G25G15G05G26G21
 -19305200.66047 -15031598.23743  23224290.1174                   23224290.4534
 -27835314.90647 -21677905.29743  22525647.1564                   22525645.5984
 -22632512.80548 -17626075.08944  21105534.2734                   21105534.4104
 -12311770.46147  -9583021.86443  22736369.1884                   22736370.6684
   -337227.051 5                  24415560.852
 -20007323.43747 -15578253.54943  22274089.2114                   22274092.6524
 -10470936.39847  -8148536.83643  22783240.6094                   22783240.8444
 -27823030.03148 -21668503.77644  21289754.2194                   21289753.2344
 -16803892.95347 -13083177.06443  22051180.9064                   22051180.9774
  -3141094.680 6                  24557073.891
 11  9 25  0 42 30.0000000  0 10G12G02G29G30G18G25G15G05G26G21
 -19232087.38747 -14974626.83443  23238203.7114                   23238205.1254
 -27805577.40247 -21654733.17543  22531306.2504                   22531304.3244
 -22713866.74648 -17689467.66844  21090053.2664                   21090053.0204
 -12308202.03147  -9580241.24143  22737048.4774                   22737049.4224
   -445007.391 5                  24395049.938
 -19968488.05147 -15547992.24743  22281479.7814                   22281482.8674
 -10583951.55547  -8236600.50543  22761734.3444                   22761735.3134
 -27776925.57448 -21632578.17744  21298527.3364                   21298526.3524
 -16893708.67647 -13153163.21043  22034089.6174                   22034090.1374
  -3220114.562 6                  24542036.273
 11  9 25  0 43  0.0000000  0 10G12G02G29G30G18G25G15G05G26G21
 -19158855.46147 -14917563.21943  23252139.1564                   23252140.2384
 -27775716.49647 -21631465.01043  22536988.8984                   22536986.6604
 -22794887.05948 -17752600.30144  21074635.2194                   21074634.5354
 -12304104.40247  -9577048.15043  22737828.3984                   22737829.4734
   -552593.199 6                  24374578.383
 -19929261.99247 -15517426.49043  22288944.0164                   22288947.9734
 -10696780.88747  -8324519.31543  22740263.1024                   22740263.2544
 -27730506.25848 -21596407.29944  21307360.6174                   21307359.6994
 -16983067.51647 -13222793.41143  22017084.8284                   22017085.2704
  -3299140.824 6                  24526998.195
 11  9 25  0 43 30.0000000  0 10G12G02G29G30G18G25G15G05G26G21
 -19085505.25447 -14860407.15943  23266096.9774                   23266099.1604
 -27745729.02047 -21608098.04243  22542694.7344                   22542692.6764
 -22875568.53948 -17815468.91244  21059282.0634                   21059281.6334
 -12299476.55947  -9573442.20343  22738708.7194                   22738710.0084
   -659980.820 6                  24354142.781
 -19889645.21147 -15486556.29044  22296482.8364                   22296486.1484
 -10809418.45347  -8412288.68043  22718829.1884                   22718829.8054
 -27683771.78548 -21559990.75244  21316253.8594                   21316252.3094
 -17071963.08647 -13292062.59843  22000168.7814                   22000169.0634
  -3378171.18046  -2624976.28952  24511959.5554                   24511963.3324
 11  9 25  0 44  0.0000000  0 10G12G02G29G30G18G25G15G05G26G21
 -19012040.49247 -14803161.91143  23280076.8284                   23280078.1484
 -27715615.34047 -21584632.86543  22548425.4774                   22548423.1724
 -22955909.78948 -17878072.38644  21043993.8134                   21043993.0474
 -12294321.27747  -9569424.94243  22739689.8054                   22739690.4224
   -767169.793 6                  24333745.250
 -19849641.35247 -15455384.48543  22304095.7344                   22304099.2114
 -10921862.00847  -8499906.93843  22697432.1174                   22697433.1134
 -27636725.28948 -21523331.16844  21325206.2114                   21325205.8954
 -17160392.74647 -13360968.70643  21983340.7894                   21983341.5474
  -3457206.789 6                  24496918.820
 11  9 25  0 44 30.0000000  0 10G12G02G29G30G18G25G15G05G26G21
 -18938463.27747 -14745829.18243  23294078.3444                   23294079.3244
 -27685374.32047 -21561068.37943  22554180.1954                   22554176.9344
 -23035907.45748 -17940408.14644  21028770.4064                   21028769.9654
 -12288639.25447  -9564997.34843  22740771.0394                   22740772.3014
   -874157.691 6                  24313386.297
 -19809252.10547 -15423912.38143  22311781.2504                   22311784.7584
 -11034107.17647  -8587370.60443  22676072.4844                   22676073.2894
 -27589368.10548 -21486429.42644  21334218.0784                   21334217.0704
 -17248352.00847 -13429508.28343  21966602.5704                   21966602.5704
  -3536247.180 6                  24481878.391
 11  9 25  0 45  0.0000000  0 10G12G02G29G30G18G25G15G05G26G21
 -18864776.87547 -14688411.28843  23308100.5864                   23308101.0274
 -27655006.29747 -21537405.01543  22559958.8134                   22559957.8244
 -23115559.94947 -18002474.97644  21013613.0864                   21013612.5594
 -12282433.34047  -9560161.54343  22741951.9694                   22741954.2854
   -980944.121 6                  24293065.195
 -19768481.22747 -15392142.84343  22319539.8284                   22319542.9734
 -11146151.97347  -8674678.11843  22654751.0634                   22654751.9454
 -27541703.79748 -21449288.34044  21343288.3284                   21343287.4734
 -17335838.62947 -13497679.59343  21949954.2194                   21949954.7074
  -3615293.26646  -2809746.45753  24466836.5164                   24466838.2154
 11  9 25  0 45 30.0000000  0 10G12G02G29G30G18G25G15G05G26G21
 -18790984.59447 -14630910.64654  23322142.3594                   23322139.1564
 -27624510.25847 -21513641.78343  22565762.0864                   22565759.7304
 -23194864.13747 -18064270.33744  20998521.9694                   20998521.3444
 -12275704.80547  -9554918.48443  22743232.7194                   22743234.1804
  -1087527.445 6                  24272783.188
 -19727330.77347 -15360077.59343  22327370.5394                   22327373.3204
 -11257992.36347  -8761826.44143  22633468.0314                   22633468.5434
 -27493733.62548 -21411908.98344  21352416.7274                   21352416.2934
 -17422848.21547 -13565479.16243  21933396.9384                   21933397.2704
  -3694344.875 6                  24451793.828
 11  9 25  0 46  0.0000000  0 10G12G02G29G30G18G25G15G05G26G21
 -18717091.22347 -14573331.64453  23336204.0944                   23336203.8444
 -27593888.35947 -21489780.59343  22571589.3284                   22571587.3984
 -23273819.91448 -18125794.29944  20983497.2974                   20983496.7974
 -12268457.68047  -9549271.31943  22744611.2274                   22744612.8364
  -1193909.07047   -920056.26453  24252539.0314                   24252539.6214
 -19685805.83647 -15327720.50543  22335272.4924                   22335275.5354
 -11369627.56247  -8848814.68743  22612224.5704                   22612224.3364
 -27445462.56248 -21374295.16444  21361602.4064                   21361601.5984
 -17509380.07847 -13632906.55943  21916930.7894                   21916930.3134
  -3773404.477 6                  24436748.633
 11  9 25  0 46 30.0000000  0 10G12G02G29G30G18G25G15G05G26G21
 -18643098.94547 -14515675.46243  23350284.3284                   23350284.8874
 -27563138.80147 -21465819.79843  22577441.2344                   22577437.8634
 -23352424.10248 -18187044.25844  20968538.9774                   20968538.9694
 -12260693.11747  -9543221.12443  22746088.9924                   22746089.2424
  -1300086.62946  -1002791.65453  24232334.4534                   24232332.3204
 -19643908.42247 -15295073.20643  22343245.2814                   22343248.2194
 -11481053.31647  -8935639.89143  22591021.5634                   22591021.3674
 -27396892.07448 -21336448.02844  21370844.9064                   21370845.0434
 -17595429.84447 -13699958.19643  21900555.5634                   21900555.7734
  -3852471.46146  -2994562.14053  24421703.1884                   24421709.2304
 11  9 25  0 47  0.0000000  0 10G12G02G29G30G18G25G15G05G26G21
 -18569011.57047 -14457944.92343  23364382.2584                   23364384.6844
 -27532262.07447 -21441759.99643  22583316.3204                   22583314.3954
 -23430675.04748 -18248018.97844  20953648.7114                   20953647.8244
 -12252413.92247  -9536769.62543  22747664.2734                   22747665.3364
  -1406059.449 6                  24212168.297
 -19601642.09847 -15262138.37743  22351288.3284                   22351291.6954
 -11592267.55147  -9022300.28343  22569857.3284                   22569857.6804
 -27348025.38748 -21298370.05844  21380144.0164                   21380143.3674
 -17680994.84447 -13766632.12143  21884273.4844                   21884273.3164
  -3931547.15646  -3056179.68742  24406655.5234                   24406656.8404
 11  9 25  0 47 30.0000000  0 10G12G02G29G30G18G25G15G05G26G21
 -18494829.719 6                  23378498.586
 -27501255.54347 -21417599.01043  22589216.5474                   22589215.0204
 -23508568.30148 -18308714.95044  20938825.6484                   20938825.1724
 -12243619.71547  -9529917.15743  22749338.5314                   22749339.0704
  -1511824.72346  -1167781.66253  24192041.3444                   24192045.4344
 -19559007.45747 -15228916.66943  22359401.4224                   22359404.0864
 -11703264.60947  -9108791.35843  22548735.3444                   22548735.8754
 -27298862.45348 -21260061.25644  21389499.1174                   21389498.5704
 -17766069.50847 -13832924.01543  21868084.0234                   21868083.7344
  -4010629.79746  -3117802.32753  24391606.0864                   24391608.5634
 11  9 25  0 48  0.0000000  0 10G12G02G29G30G18G25G15G05G26G21
 -18420556.72746 -14342266.05353  23392632.4844                   23392634.2894
 -27470119.10947 -21393336.90443  22595141.5554                   22595140.1484
 -23586101.58648 -18369130.52344  20924071.7424                   20924071.3094
 -12234312.69547  -9522665.00043  22751108.9064                   22751109.1134
  -1617381.24646  -1250033.82442  24171953.8754                   24171958.2934
 -19516007.53147 -15195410.20543  22367584.0944                   22367587.2974
 -11814041.68447  -9195110.94443  22527655.2734                   22527655.7734
 -27249406.22348 -21221523.92144  21398910.8134                   21398909.3244
 -17850650.86747 -13898831.48343  21851988.3204                   21851989.1334
  -4089719.48446  -3179430.68052  24376556.3364                   24376557.1764
 11  9 25  0 48 30.0000000  0 10G12G02G29G30G18G25G15G05G26G21
 -18346194.95346 -14284321.82743  23406783.2974                   23406784.9964
 -27438852.34047 -21368973.15343  22601091.8054                   22601090.0314
 -23663272.53548 -18429263.64945  20909386.5704                   20909386.5124
 -12224494.87547  -9515014.82743  22752977.3364                   22752977.9924
  -1722727.42646  -1332121.50553  24151907.7974                   24151910.6644
 -19472645.19147 -15161621.37843  22375835.4924                   22375838.6884
 -11924595.77747  -9281256.93143  22506617.5394                   22506617.8094
 -27199658.80948 -21182759.70044  21408377.5554                   21408376.3364
 -17934735.61747 -13964352.04943  21835987.7274                   21835987.6334
  -4168816.945 6                  24361504.039
 11  9 25  0 49  0.0000000  0 10G12G02G29G30G18G25G15G05G26G21
 -18271747.82846 -14226311.26743  23420950.0084                   23420951.7424
 -27407455.50447 -21344508.09443  22607065.5634                   22607063.0204
 -23740079.22348 -18489113.02144  20894770.7504                   20894770.1884
 -12214168.85547  -9506968.59943  22754942.1724                   22754943.5594
  -1827863.230 6                  24131900.758
 -19428923.77747 -15127552.74743  22384155.5864                   22384158.8364
 -12034923.87947  -9367226.72843  22485622.3914                   22485623.6054
 -27149622.94548 -21143770.72844  21417898.7664                   21417897.4384
 -18018320.78547 -14029483.25743  21820081.9534                   21820081.0664
  -4247922.74246  -3302705.72053  24346450.4844                   24346449.3984
 11  9 25  0 49 30.0000000  0 10G12G02G29G30G18G25G15G05G26G21
 -18197219.52347 -14168237.33443  23435132.7504                   23435133.8014
 -27375927.99247 -21319941.12743  22613065.0474                   22613063.4224
 -23816519.47348 -18548676.78845  20880224.3914                   20880224.1094
 -12203336.63347  -9498527.89843  22757003.5004                   22757004.6884
  -1932787.039 6                  24111933.742
 -19384846.19547 -15093206.60743  22392543.5474                   22392546.8794
 -12145022.69547  -9453017.98343  22464671.3674                   22464672.0474
 -27099301.32048 -21104559.01444  21427474.9224                   21427473.5864
 -18101403.48447 -14094222.93543  21804271.7274                   21804271.5784
  -4327037.277 6                  24331395.320
 11  9 25  0 50  0.0000000  0 10G12G02G29G30G18G25G15G05G26G21
 -18122611.78947 -14110101.38943  23449330.2424                   23449332.6684
 -27344268.73447 -21295271.63043  22619089.9384                   22619088.0164
 -23892590.34048 -18607952.79344  20865748.8134                   20865748.0354
 -12191999.72746  -9489694.03343  22759160.6804                   22759162.3594
  -2037497.187 6                  24092008.438
 -19340414.82048 -15058584.78543  22400998.1804                   22401001.8324
 -12254888.94147  -9538627.95343  22443764.8984                   22443765.3794
 -27048695.91848 -21065126.23344  21437104.7664                   21437104.0514
 -18183979.62947 -14158567.91943  21788558.0784                   21788558.7544
  -4406160.332 6                  24316338.844
 11  9 25  0 50 30.0000000  0 10G12G02G29G30G18G25G15G05G26G21
 -18047928.383 6                  23463541.500
 -27312478.12947 -21270499.71743  22625139.4614                   22625137.9344
 -23968290.09048 -18666939.57344  20851343.7504                   20851342.8014
 -12180161.14547  -9480469.33843  22761414.2504                   22761415.5824
  -2141993.875 6                  24072122.328
 -19295633.43047 -15023690.20044  22409520.1334                   22409523.5864
 -12364520.67647  -9624055.06143  22422902.2424                   22422902.7234
 -26997809.70748 -21025474.61844  21446788.2814                   21446786.8244
 -18266046.85247 -14222516.33343  21772940.6564                   21772940.4884
  -4485292.90646  -3487668.84452  24301280.2584                   24301282.4774
 11  9 25  0 51  0.0000000  0 10G12G02G29G30G18G25G15G05G26G21
 -17973170.49246 -13993653.77353  23477767.5394                   23477768.7624
 -27280554.27747 -21245623.90843  22631214.5704                   22631213.0124
 -24043614.84048 -18725634.17244  20837009.9304                   20837009.0434
 -12167821.23447  -9470853.75543  22763762.4454                   22763764.0434
  -2246274.004 6                  24052278.594
 -19250503.10947 -14988523.72743  22418107.9224                   22418110.9964
 -12473912.04747  -9709295.05043  22402085.4064                   22402085.9574
 -26946643.25848 -20985604.68744  21456524.5554                   21456524.0704
 -18347600.30547 -14286064.40543  21757422.4144                   21757422.1484
  -4564433.598 6                  24286219.883
 11  9 25  0 51 30.0000000  0 10G12G02G29G30G18G25G15G05G26G21
 -17898341.20346 -13935345.28542  23492007.0394                   23492008.9184
 -27248496.71947 -21220644.12843  22637314.6484                   22637312.5824
 -24118562.39148 -18784034.80544  20822747.6564                   20822746.9304
 -12154982.18047  -9460849.34643  22766205.6484                   22766207.0084
  -2350336.750 6                  24032476.094
 -19205026.83647 -14953087.65143  22426761.5944                   22426765.8164
 -12583060.54347  -9794345.66243  22381315.3754                   22381315.7464
 -26895199.07448 -20945518.25044  21466314.1484                   21466313.4494
 -18428636.96147 -14349209.77143  21742001.2664                   21742001.4774
  -4643582.754 6                  24271158.617
 11  9 25  0 52  0.0000000  0 10G12G02G29G30G18G25G15G05G26G21
 -17823442.09846 -13876982.33242  23506260.3674                   23506261.6024
 -27216304.13347 -21195558.95343  22643440.4304                   22643438.0704
 -24193129.32048 -18842138.84844  20808557.9774                   20808556.9264
 -12141644.97747  -9450456.72843  22768743.8204                   22768744.2544
  -2454179.574 6                  24012715.594
 -19159206.35947 -14917383.37243  22435481.0164                   22435484.5944
 -12691961.88747  -9879203.76243  22360592.1254                   22360592.0314
 -26843478.41448 -20905216.44444  21476156.1024                   21476154.8874
 -18509152.10247 -14411948.80243  21726679.2974                   21726680.0514
  -4722739.750 6                  24256095.141
 11  9 25  0 52 30.0000000  0 10G12G02G29G30G18G25G15G05G26G21
 -17748475.91846 -13818567.33153  23520526.0084                   23520528.7384
 -27183975.60247 -21170367.92143  22649593.1024                   22649589.9964
 -24267312.86748 -18899944.17344  20794441.3984                   20794440.2814
 -12127811.62147  -9439677.61443  22771375.9694                   22771376.7274
  -2557801.250 6                  23992996.719
 -19113044.43447 -14881413.04643  22444265.3444                   22444268.8244
 -12800612.55947  -9963866.55043  22339916.2974                   22339916.3444
 -26791483.77348 -20864701.14444  21486050.3524                   21486048.9454
 -18589142.49247 -14474278.85843  21711457.8054                   21711457.9804
  -4801904.38746  -3734379.36253  24241030.7114                   24241032.3834
 11  9 25  0 53  0.0000000  0 10G12G02G29G30G18G25G15G05G26G21
 -17673447.16846 -13760103.52043  23534803.3914                   23534805.5904
 -27151512.13747 -21145071.60943  22655770.4924                   22655768.0634
 -24341111.93748 -18957449.91244  20780397.7664                   20780397.2974
 -12113485.73847  -9428514.53043  22774102.0084                   22774102.3444
  -2661202.348 6                  23973319.766
 -19066545.49647 -14845180.17243  22453113.7894                   22453116.8954
 -12909010.79347 -10048332.57343  22319288.9844                   22319288.9024
 -26739218.63348 -20823975.04344  21495995.9384                   21495995.7704
 -18668606.75847 -14536199.02643  21696336.2894                   21696336.4804
  -4881078.66046  -3796073.44743  24225964.0784                   24225965.1914
 11  9 25  0 53 30.0000000  0 10G12G02G29G30G18G25G15G05G26G21
 -17598356.23046 -13701591.00842  23549092.5784                   23549094.0944
 -27118910.44147 -21119667.72143  22661974.4924                   22661972.8834
 -24414521.76248 -19014652.34444  20766428.3364                   20766427.8164
 -12098666.66447  -9416967.22043  22776921.9694                   22776922.6724
  -2764378.945 6                  23953686.758
 -19019709.49647 -14808684.61043  22462026.1954                   22462030.1954
 -13017150.65247 -10132597.32643  22298710.4454                   22298710.3524
 -26686682.24248 -20783037.56744  21505993.5474                   21505992.6804
 -18747538.36747 -14597704.08843  21681315.9064                   21681315.4844
  -4960259.75446  -3857772.79143  24210895.9924                   24210898.3984
 11  9 25  0 54  0.0000000  0 10G12G02G29G30G18G25G15G05G26G21
 -17523208.215 6                  23563392.656
 -27086172.89547 -21094157.92443  22668203.5474                   22668202.4144
 -24487542.64148 -19071551.68444  20752533.0084                   20752531.5474
 -12083359.18047  -9405039.43143  22779835.2664                   22779835.5204
  -2867332.176 7                  23934095.273
 -18972542.04347 -14771930.77743  22471002.5554                   22471005.5824
 -13125031.41047 -10216660.25243  22278181.3054                   22278181.7234
 -26633879.93748 -20741892.89844  21516041.2114                   21516040.1684
 -18825937.27347 -14658794.09143  21666397.4304                   21666396.4304
  -5039450.55546  -3919479.25553  24195826.5634                   24195826.2114
 11  9 25  0 54 30.0000000  0 10G12G02G29G30G18G25G15G05G26G21
 -17448004.039 6                  23577704.227
 -27053296.82447 -21068540.12543  22674460.0784                   22674458.8284
 -24560170.05148 -19128144.40145  20738712.6954                   20738711.4844
 -12067563.66046  -9392731.06443  22782840.2894                   22782841.8874
  -2970059.332 6                  23914546.422
 -18925044.14147 -14734919.48743  22480040.6484                   22480042.9494
 -13232648.18047 -10300517.29443  22257702.0234                   22257702.8134
 -26580812.02748 -20700541.27744  21526140.1884                   21526139.5044
 -18903798.06648 -14719464.71143  21651580.6564                   21651579.7424
  -5118649.21946  -3981192.71542  24180755.4144                   24180755.2934
 11  9 25  0 55  0.0000000  0 10G12G02G29G30G18G25G15G05G26G21
 -17372748.637 6                  23592024.773
 -27020283.63347 -21042815.60443  22680742.2814                   22680740.4104
 -24632403.69148 -19184430.31844  20724966.6954                   20724965.9774
 -12051284.22747  -9380045.95543  22785938.5164                   22785940.4844
  -3072561.441 6                  23895040.844
 -18877220.66047 -14697654.40443  22489141.0704                   22489144.7504
 -13339999.75447 -10384167.81143  22237273.9774                   22237273.3444
 -26527482.77048 -20658985.94544  21536288.1174                   21536287.2734
 -18981119.82848 -14779715.36743  21636867.0784                   21636866.6174
  -5197858.141 6                  24165682.352
 11  9 25  0 55 30.0000000  0 10G12G02G29G30G18G25G15G05G26G21
 -17297441.99646 -13467112.57052  23606355.2194                   23606354.8364
 -26987130.46547 -21016981.87843  22687051.6564                   22687048.6174
 -24704238.50048 -19240405.40945  20711296.9304                   20711296.3244
 -12034520.45347  -9366983.17843  22789128.3364                   22789129.8914
  -3174834.648 6                  23875578.125
 -18829071.84447 -14660135.87143  22498303.8674                   22498306.7734
 -13447080.16847 -10467607.07043  22216897.5474                   22216897.2974
 -26473891.78548 -20617226.75244  21546486.1884                   21546484.6374
 -19057896.92247 -14839541.56143  21622256.6484                   21622255.8754
  -5277074.96146  -4104640.82053  24150608.0634                   24150608.1414
 11  9 25  0 56  0.0000000  0 10G12G02G29G30G18G25G15G05G26G21
 -17222087.39546 -13408394.64852  23620694.7194                   23620691.7114
 -26953837.30547 -20991039.26843  22693386.7424                   22693383.7074
 -24775672.90248 -19296068.49444  20697703.3054                   20697702.8204
 -12017275.14146  -9353545.31643  22792410.2194                   22792411.8874
  -3276878.38746  -2543152.66353  23856159.7344                   23856160.6954
 -18780601.19947 -14622366.52343  22507527.2504                   22507530.5904
 -13553887.05147 -10550833.02143  22196572.5314                   22196572.3594
 -26420042.15248 -20575265.96344  21556733.2504                   21556732.6214
 -19134126.59847 -14898941.28343  21607750.6414                   21607750.6764
  -5356300.62146  -4166374.90642  24135530.9694                   24135531.9104
 11  9 25  0 56 30.0000000  0 10G12G02G29G30G18G25G15G05G26G21
 -17146692.34846 -13349645.26453  23635042.0004                   23635041.8634
 -26920407.59847 -20964989.95743  22699747.5314                   22699746.2074
 -24846708.23448 -19351420.64944  20684185.8134                   20684185.2074
 -11999554.47747  -9339736.91143  22795782.2504                   22795783.5824
  -3378695.570 6                  23836784.367
 -18731815.52747 -14584351.76443  22516811.0784                   22516813.9064
 -13660420.90247 -10633846.33943  22176299.7344                   22176299.4454
 -26365939.63748 -20533108.11244  21567028.4224                   21567028.5944
 -19209809.53147 -14957914.87443  21593348.3754                   21593347.8014
  -5435538.83646  -4228118.68753  24120452.6334                   24120455.0904
 11  9 25  0 57  0.0000000  0 10G12G02G29G30G18G25G15G05G26G21
 -17071256.05146 -13290863.87343  23649397.3284                   23649397.0354
 -26886837.64147 -20938831.59143  22706136.3204                   22706133.5824
 -24917338.79748 -19406457.38045  20670745.2504                   20670744.2774
 -11981357.29747  -9325557.47743  22799245.1954                   22799246.8054
  -3480281.699 6                  23817452.922
 -18682714.41447 -14546091.20043  22526154.8364                   22526157.2504
 -13766675.10247 -10716641.70043  22156080.2734                   22156080.4184
 -26311583.46148 -20490752.59944  21577372.2114                   21577371.3984
 -19284939.48447 -15016457.64243  21579051.6484                   21579051.4734
  -5514786.34446  -4289870.36743  24105372.1884                   24105372.8954
 11  9 25  0 57 30.0000000  0 10G12G02G29G30G18G25G15G05G26G21
 -16995782.496 6                  23663759.078
 -26853128.10247 -20912564.38843  22712550.7584                   22712549.1334
 -24987563.57448 -19461177.93845  20657381.9694                   20657380.8054
 -11962687.34847  -9311009.19843  22802798.3914                   22802799.3094
  -3581637.156 6                  23798165.711
 -18633302.10247 -14507588.12143  22535557.7504                   22535560.6254
 -13872647.80147 -10799217.75543  22135913.8754                   22135913.8984
 -26256977.45748 -20448202.46144  21587763.4144                   21587762.8244
 -19359514.71147 -15074568.08443  21564860.1024                   21564860.0354
  -5594044.70347  -4351629.41053  24090289.3984                   24090292.5554
 11  9 25  0 58  0.0000000  0 10G12G02G29G30G18G25G15G05G26G21
 -16920274.42646 -13173215.87153  23678128.2114                   23678130.5704
 -26819278.64847 -20886188.18143  22718992.4384                   22718989.9884
 -25057380.71548 -19515580.80345  20644095.8594                   20644094.7934
 -11943546.84846  -9296094.65043  22806440.4454                   22806441.3284
  -3682760.937 6                  23778921.891
 -18583581.57447 -14468844.86643  22545019.2034                   22545021.7344
 -13978336.17247 -10881572.22843  22115802.2424                   22115802.1884
 -26202123.58648 -20405459.15744  21598201.8364                   21598200.6644
 -19433532.11347 -15132243.96043  21550775.2814                   21550774.3204
  -5673314.34047  -4413397.77752  24075205.3204                   24075203.5664
 11  9 25  0 58 30.0000000  0 10G12G02G29G30G18G25G15G05G26G21
 -16844732.148 6                  23692503.117
 -26785286.41847 -20859700.65243  22725460.8984                   22725458.5824
 -25126785.25448 -19569662.18845  20630888.8364                   20630888.1524
 -11923936.07847  -9280813.53143  22810171.7424                   22810172.8484
  -3783649.64146  -2938041.21152  23759723.2664                   23759722.5514
 -18533553.60547 -14429862.03043  22554539.1644                   22554542.6684
 -14083734.48047 -10963700.59543  22095745.6174                   22095745.2154
 -26147021.90248 -20362522.71244  21608687.2424                   21608686.9414
 -19506986.71947 -15189481.20443  21536797.3444                   21536797.1054
  -5752593.20347  -4475173.24642  24060118.4614                   24060117.8134
 11  9 25  0 59  0.0000000  0 10G12G02G29G30G18G25G15G05G26G21
 -16769160.34846 -13055463.70653  23706883.6884                   23706885.5824
 -26751152.14147 -20833102.45543  22731956.3364                   22731954.3754
 -25195776.12548 -19623421.26945  20617759.7664                   20617759.2544
 -11903858.48847  -9265168.60843  22813992.3134                   22813994.1214
  -3884303.500 6                  23740569.828
 -18483222.42647 -14390643.01743  22564117.1884                   22564119.2774
 -14188840.87947 -11045601.59543  22075743.9614                   22075744.5164
 -26091676.10548 -20319396.11244  21619218.9614                   21619218.1524
 -19579876.58647 -15246278.40443  21522926.3594                   21522926.8594
  -5831882.62547  -4536957.14653  24045030.2664                   24045028.1374
 11  9 25  0 59 30.0000000  0 10G12G02G29G30G18G25G15G05G26G21
 -16693562.16046 -12996556.08652  23721269.3204                   23721270.6954
 -26716875.37547 -20806393.42743  22738478.8054                   22738476.5274
 -25264351.43748 -19676856.51745  20604710.5944                   20604708.9774
 -11883316.75447  -9249162.02443  22817901.8134                   22817902.2464
  -3984722.00046  -3094720.58453  23721460.2734                   23721463.4844
 -18432591.06247 -14351190.00043  22573751.5084                   22573755.1174
 -14293652.51647 -11127272.88543  22055799.6254                   22055800.0704
 -26036088.70348 -20276081.23644  21629797.0004                   21629795.9964
 -19652199.04747 -15302633.50643  21509164.2274                   21509163.6644
  -5911182.66447  -4598749.20043  24029939.6414                   24029938.5554
 11  9 25  1  0  0.0000000  0 10G12G02G29G30G18G25G15G05G26G21
 -16617941.34846 -12937630.78943  23735660.4454                   23735661.3954
 -26682457.35547 -20779574.08743  22745029.0234                   22745026.0044
 -25332510.24248 -19729967.20845  20591739.9924                   20591739.4304
 -11862314.61347  -9232796.66243  22821898.3754                   22821899.7464
  -4084905.48846  -3172785.60543  23702395.6954                   23702398.2894
 -18381664.04747 -14311506.70943  22583442.7504                   22583446.1094
 -14398167.50047 -11208713.12843  22035910.8834                   22035910.8594
 -25980263.33248 -20232580.93344  21640420.0164                   21640419.4024
 -19723952.59448 -15358545.30243  21495509.5944                   21495509.2194
  -5990495.23847  -4660550.97143  24014846.6334                   24014846.3364
 11  9 25  1  0 30.0000000  0 10G12G02G29G30G18G25G15G05G26G21
 -16542299.43446 -12878689.25753  23750053.6414                   23750056.5314
 -26647896.45347 -20752643.54743  22751605.1644                   22751602.8284
 -25400249.14548 -19782750.67345  20578849.9694                   20578849.3984
 -11840853.30947  -9216073.55443  22825982.0394                   22825983.8444
  -4184851.86746  -3250665.60353  23683376.5704                   23683382.0474
 -18330443.12547 -14271594.29043  22593190.1484                   22593193.4224
 -14502381.51648 -11289918.65643  22016079.5864                   22016078.0824
 -25924200.93748 -20188895.90544  21651088.3754                   21651087.7424
 -19795133.14147 -15414010.54643  21481964.5634                   21481964.3914
  -6069819.38347  -4722362.13953  23999751.9534                   23999751.0164
 11  9 25  1  1  0.0000000  0 10G12G02G29G30G18G25G15G05G26G21
 -16466641.66846 -12819735.06443  23764451.5164                   23764454.1374
 -26613194.53147 -20725603.03943  22758209.0164                   22758206.7194
 -25467568.00448 -19835206.89245  20566039.7664                   20566038.7274
 -11818937.46947  -9198996.11643  22830152.4534                   22830152.5864
  -4284562.062 6                  23664402.766
 -18278933.49647 -14231457.01043  22602992.1334                   22602995.0554
 -14606293.71548 -11370889.13543  21996305.4694                   21996305.3914
 -25867905.99248 -20145029.68944  21661801.3754                   21661800.0514
 -19865739.98047 -15469028.80843  21468528.4454                   21468528.5474
  -6149157.01247  -4784183.14243  23984654.3754                   23984653.4144
 11  9 25  1  1 30.0000000  0 10G12G02G29G30G18G25G15G05G26G21
 -16390969.48046 -12760769.86143  23778851.3284                   23778853.9844
 -26578349.57847 -20698451.15143  22764839.4144                   22764838.0164
 -25534463.28148 -19887333.02644  20553309.8204                   20553308.6254
 -11796568.41447  -9181565.84343  22834409.5554                   22834410.3554
  -4384034.18046  -3405872.60153  23645473.0164                   23645473.9774
 -18227137.00847 -14191096.13843  22612848.0164                   22612852.1094
 -14709899.90247 -11451621.11443  21976589.7584                   21976589.3834
 -25811379.84448 -20100983.33444  21672557.7974                   21672556.5634
 -19935769.11347 -15523596.94843  21455202.1804                   21455201.4734
  -6228507.56247  -4846014.60554  23969554.3524                   23969551.5314
 11  9 25  1  2  0.0000000  0 10G12G02G29G30G18G25G15G05G26G21
 -16315286.109 6                  23793253.234
 -26543360.97347 -20671187.29543  22771497.0784                   22771495.3984
 -25600932.77748 -19939127.37444  20540661.0314                   20540659.4574
 -11773748.50046  -9163783.95143  22838751.4064                   22838753.4384
  -4483267.129 6                  23626589.578
 -18175056.59047 -14150513.99643  22622758.9694                   22622762.9304
 -14813196.81647 -11532112.09143  21956932.8594                   21956932.9694
 -25754624.53548 -20056758.41844  21683357.9384                   21683356.9264
 -20005217.64847 -15577712.58143  21441986.5634                   21441985.9694
  -6307870.98447  -4907856.14852  23954452.0394                   23954449.9104
 11  9 25  1  2 30.0000000  0 10G12G02G29G30G18G25G15G05G26G21
 -16239594.10946 -12642815.05152  23807657.2974                   23807659.4414
 -26508228.62547 -20643811.45343  22778182.6094                   22778180.8404
 -25666974.32848 -19990588.26445  20528093.6564                   20528093.6214
 -11750480.20746  -9145652.86543  22843179.3284                   22843181.8524
  -4582260.211 7                  23607752.727
 -18122695.28147 -14109713.06343  22632723.1484                   22632726.9844
 -14916181.35247 -11612359.67643  21937335.4384                   21937335.0664
 -25697642.23848 -20012356.55244  21694200.9224                   21694199.7304
 -20074082.90247 -15631373.67143  21428881.8054                   21428881.1764
  -6387247.39847  -4969707.65242  23939346.8204                   23939345.3594
 11  9 25  1  3  0.0000000  0 10G12G02G29G30G18G25G15G05G26G21
 -16163894.97746 -12583828.80942  23822062.2584                   23822064.6914
 -26472950.65247 -20616322.00243  22784895.7584                   22784893.8674
 -25732584.38348 -20041712.94445  20515608.5864                   20515607.5434
 -11726764.77047  -9127173.29543  22847692.5164                   22847694.7384
  -4681010.676 6                  23588960.414
 -18070054.73847 -14068694.44443  22642740.0554                   22642743.3594
 -15018849.02047 -11692360.36643  21917798.3594                   21917798.2624
 -25640433.96148 -19967778.67743  21705087.7734                   21705086.8404
 -20142360.50847 -15684577.01143  21415889.4144                   21415888.3834
  -6466635.76647  -5031568.57353  23924239.8524                   23924237.7544
 11  9 25  1  3 30.0000000  0 10G12G02G29G30G18G25G15G05G26G21
 -16088192.34846 -12524839.66442  23836467.7424                   23836470.6644
 -26437527.94147 -20588719.93243  22791637.0554                   22791634.5824
 -25797762.09848 -20092500.70745  20503205.7194                   20503205.1054
 -11702606.14546  -9108348.36543  22852289.3524                   22852290.1414
  -4779519.473 6                  23570215.070
 -18017139.39847 -14027461.71643  22652809.5554                   22652812.8954
 -15121198.16847 -11772112.89344  21898321.7974                   21898322.2384
 -25583003.42648 -19923027.58544  21716016.0784                   21716015.2624
 -20210049.32447 -15737321.43243  21403008.5004                   21403007.5204
  -6546037.55147  -5093439.95853  23909129.7974                   23909128.8014
 11  9 25  1  4  0.0000000  0 10G12G02G29G30G18G25G15G05G26G21
 -16012492.31647 -12465852.63954  23850873.2504                   23850877.0944
 -26401962.90247 -20561006.87543  22798404.3984                   22798402.5204
 -25862508.17248 -20142952.16845  20490884.5234                   20490883.7624
 -11678009.66846  -9089182.29043  22856970.2114                   22856971.5204
  -4877788.547 6                  23551513.930
 -17963955.22347 -13986019.56243  22662930.0704                   22662933.5044
 -15223228.33248 -11851616.74343  21878906.1804                   21878907.1994
 -25525356.00448 -19878107.48343  21726986.1414                   21726985.1844
 -20277149.37147 -15789607.08843  21390239.4304                   21390238.7384
  -6625455.62547  -5155323.95352  23894016.8984                   23894015.8834
 11  9 25  1  4 30.0000000  0 10G12G02G29G30G18G25G15G05G26G21
 -15936795.79747 -12406868.45653  23865278.6174                   23865281.6804
 -26366252.92247 -20533180.87543  22805199.6254                   22805198.2304
 -25926818.05948 -20193063.72445  20478646.7194                   20478645.7194
 -11652975.64547  -9069675.21543  22861733.8284                   22861734.7114
  -4975814.758 6                  23532860.344
 -17910503.02747 -13944368.49343  22673102.1804                   22673105.5314
 -15324934.59848 -11930868.35044  21859552.3524                   21859551.8554
 -25467491.78947 -19833018.50343  21737997.4144                   21737995.8444
 -20343655.69147 -15841430.13243  21377583.7734                   21377582.8014
  -6704887.97747  -5217219.55554  23878901.3444                   23878896.0084
 11  9 25  1  5  0.0000000  0 10G12G02G29G30G18G25G15G05G26G21
 -14285688.17247 -11120290.91052  24179473.6884                   24179475.8484
 -24754979.12947 -19277643.00843  23111815.0944                   23111813.4844
 -24415268.06647 -19015232.50345  20766285.1334                   20766284.0664
 -10052088.11747  -7822230.37443  23166372.9454                   23166375.1914
  -3498174.617 6                  23814045.938
 -16281368.07847 -12674912.78743  22983116.0314                   22983120.0634
 -13850890.83648 -10782262.71343  22140053.1334                   22140053.6454
 -23833995.04348 -18560163.87244  22048841.3594                   22048840.7274
 -18834144.14547 -14665187.27643  21664833.9924                   21664833.5784
  -5208912.79746  -4051524.03552  24163575.2974                   24163575.5234
 11  9 25  1  5 30.0000000  0 10G12G02G29G30G18G25G15G05G26G21
 -14210006.25447 -11061318.16042  24193875.5084                   24193877.6564
 -24718977.94547 -19249589.96243  23118665.4694                   23118663.5314
 -24478699.61748 -19064659.63445  20754214.7894                   20754213.8834
 -10026186.94147  -7802047.73643  23171301.6954                   23171303.4654
  -3595712.406 6                  23795484.953
 -16227388.93447 -12632851.15643  22993387.8914                   22993391.7384
 -13951939.76648 -10861002.02943  22120824.1484                   22120822.7384
 -23775703.17647 -18514741.62744  22059933.9844                   22059933.0204
 -18899455.30147 -14716079.02243  21652405.5634                   21652405.5514
  -5288374.31647  -4113441.96142  24148454.4774                   24148453.4344
 11  9 25  1  6  0.0000000  0 10G12G02G29G30G18G25G15G05G26G21
 -14134336.84447 -11002355.91853  24208274.6174                   24208271.8444
 -24682831.18747 -19221423.61043  23125544.7664                   23125541.6374
 -24541689.71947 -19113742.79845  20742227.9384                   20742227.1024
  -9999857.11347  -7781530.90943  23176312.1334                   23176314.5204
  -3693005.934 6                  23776969.977
 -16173152.03547 -12590588.72543  23003709.1254                   23003711.8134
 -14052656.38748 -10939482.43043  22101658.5234                   22101658.2894
 -23717202.08647 -18469156.34243  22071065.8674                   22071065.2424
 -18964165.98847 -14766502.88143  21640091.6884                   21640090.8984
  -5367851.87147  -4175372.44643  24133329.8984                   24133328.4734
 11  9 25  1  6 30.0000000  0 10G12G02G29G30G18G25G15G05G26G21
 -14058683.69547 -10943405.56154  24222671.0944                   24222671.4804
 -24646539.78147 -19193144.63843  23132450.6724                   23132447.6254
 -24604237.16848 -19162481.02945  20730325.6564                   20730325.0314
  -9973102.16847  -7760682.85643  23181403.5554                   23181404.3794
  -3790055.020 7                  23758502.086
 -16118661.33647 -12548128.54643  23014078.2584                   23014081.8554
 -14153038.93748 -11017702.50743  22082556.0784                   22082554.6454
 -23658495.07447 -18423410.62144  22082237.6724                   22082237.1524
 -19028274.43448 -14816457.46243  21627892.2274                   21627891.3014
  -5447346.25447  -4237315.62853  24118202.3754                   24118201.1024
 11  9 25  1  7  0.0000000  0 10G12G02G29G30G18G25G15G05G26G21
 -13983049.90646 -10884470.26252  24237063.3524                   24237065.4454
 -24610103.69547 -19164752.89943  23139383.8674                   23139381.5164
 -24666340.23448 -19210872.98445  20718508.0004                   20718506.7934
  -9945925.22346  -7739506.03643  23186575.4384                   23186576.1954
  -3886859.355 7                  23740080.320
 -16063920.32447 -12505473.11643  23024495.0704                   23024498.0744
 -14253084.32047 -11095659.86843  22063517.8914                   22063517.3404
 -23599584.68747 -18377506.41044  22093448.1724                   22093447.4344
 -19091778.71947 -14865941.24044  21615807.4384                   21615807.0944
  -5526857.93447  -4299272.74143  24103072.5634                   24103071.1994
 11  9 25  1  7 30.0000000  0 10G12G02G29G30G18G25G15G05G26G21
 -13907437.81646 -10825551.90653  24251452.0084                   24251453.5864
 -24573522.08647 -19136247.78142  23146345.3524                   23146343.3094
 -24727996.64548 -19258916.89445  20706775.1414                   20706773.3754
  -9918328.57847  -7718002.21543  23191826.4924                   23191827.6334
  -3983418.145 7                  23721706.352
 -16008931.76647 -12462624.80543  23034959.1174                   23034963.6294
 -14352789.43448 -11173352.04643  22044544.2814                   22044543.9734
 -23540472.72347 -18331445.16343  22104697.0474                   22104695.9144
 -19154675.70347 -14914951.81743  21603838.5554                   21603839.1724
  -5606386.68447  -4361243.00442  24087938.0944                   24087937.3874
 11  9 25  1  8  0.0000000  0 10G12G02G29G30G18G25G15G05G26G21
 -13831850.46946 -10766652.86943  24265835.5164                   24265839.0204
 -24536794.51647 -19107628.62243  23153334.5944                   23153331.1994
 -24789204.07047 -19306610.90945  20695127.6884                   20695126.7974
  -9890314.86347  -7696173.48343  23197156.7424                   23197159.0474
  -4079730.309 6                  23703378.289
 -15953698.75447 -12419586.23643  23045470.1724                   23045473.0044
 -14452151.38748 -11250776.84943  22025636.3054                   22025636.0554
 -23481161.43447 -18285228.54344  22115983.1804                   22115982.6914
 -19216962.88347 -14963487.17143  21591985.7114                   21591985.5394
  -5685933.035 6                  24072800.703
 11  9 25  1  8 30.0000000  0 10G12G02G29G30G18G25G15G05G26G21
 -13756291.90647 -10707775.68343  24280214.5314                   24280216.4964
 -24499921.41447 -19078896.41343  23160351.4694                   23160348.4144
 -24849961.59047 -19353954.39745  20683565.7974                   20683564.6174
  -9861887.80147  -7674022.51643  23202566.6884                   23202568.2894
  -4175796.320 7                  23685098.297
 -15898225.39847 -12376360.23343  23056025.6564                   23056029.1254
 -14551168.09848 -11327932.60343  22006794.6174                   22006794.9064
 -23421654.16047 -18238859.18744  22127307.5314                   22127306.2584
 -19278638.90247 -15011546.33343  21580249.4454                   21580249.2424
  -5765497.94547  -4485225.47953  24057660.2344                   24057657.0434
 11  9 25  1  9  0.0000000  0 10G12G02G29G30G18G25G15G05G26G21
 -13680762.94547 -10648922.09543  24294586.8834                   24294588.7584
 -24462901.25447 -19050049.57043  23167395.5784                   23167393.1644
 -24910265.82048 -19400944.67245  20672090.0784                   20672089.3674
  -9833048.87546  -7651550.59943  23208055.0164                   23208056.8834
  -4271614.12947  -3318278.49553  23666864.3054                   23666867.1884
 -15842513.51247 -12332948.38043  23066627.4384                   23066630.7344
 -14649835.34048 -11404816.07844  21988018.4064                   21988018.3204
 -23361951.96147 -18192338.00443  22138667.7894                   22138667.5594
 -19339699.84847 -15059126.21443  21568629.7734                   21568629.0984
  -5845080.18447  -4547237.35043  24042516.1644                   24042515.7974
 11  9 25  1  9 30.0000000  0 10G12G02G29G30G18G25G15G05G26G21
 -13605268.85547 -10590095.74643  24308953.4614                   24308955.4144
 -24425735.81247 -19021089.57643  23174468.0704                   23174465.3794
 -24970116.66448 -19447581.63245  20660700.9304                   20660699.7854
  -9803802.91047  -7628761.60843  23213619.6254                   23213621.2734
  -4367184.64847  -3392748.89343  23648677.5554                   23648678.7194
 -15786568.41447 -12289354.75443  23077273.7504                   23077276.8404
 -14748152.18748 -11481426.58244  21969309.6414                   21969308.4734
 -23302059.39147 -18145668.42443  22150065.3284                   22150064.4964
 -19400145.79348 -15106226.91444  21557126.8524                   21557126.5434
  -5924682.20747  -4609264.78542  24027368.0234                   24027368.4064
 11  9 25  1 10  0.0000000  0 10G12G02G29G30G18G25G15G05G26G21
 -13529810.21547 -10531296.86643  24323312.8984                   24323314.2034
 -24388422.93047 -18992014.61843  23181568.5944                   23181565.3874
 -25029510.68048 -19493862.64745  20649398.5784                   20649397.8164
  -9774150.95746  -7605656.15743  23219262.3834                   23219262.3054
  -4462505.969 7                  23630537.984
 -15730391.42247 -12245580.56043  23087964.1724                   23087967.3634
 -14846114.00848 -11557760.30443  21950667.8594                   21950667.6134
 -23241976.72747 -18098850.79843  22161498.5784                   22161497.8244
 -19459972.30948 -15152844.91743  21545742.3754                   21545742.0164
  -6004301.87147  -4671305.87843  24012216.8834                   24012216.7894
 11  9 25  1 10 30.0000000  0 10G12G02G29G30G18G25G15G05G26G21
 -13454394.68447 -10472531.62243  24337663.8444                   24337664.9534
 -24350966.55147 -18962827.72743  23188696.0084                   23188693.5664
 -25088450.31648 -19539789.58145  20638182.5784                   20638182.0634
  -9744100.14546  -7582239.90143  23224980.7344                   23224981.5744
  -4557581.410 7                  23612445.867
 -15673990.11347 -12201631.49443  23098696.6724                   23098700.1294
 -14943722.34448 -11633818.60743  21932093.5084                   21932093.5044
 -23181710.41447 -18051890.06743  22172967.1024                   22172965.8714
 -19519181.75447 -15198982.04943  21534475.3984                   21534474.9574
  -6083944.10247  -4733364.68853  23997061.9144                   23997060.6724
 11  9 25  1 11  0.0000000  0 10G12G02G29G30G18G25G15G05G26G21
 -13379021.85947 -10413799.53343  24352007.1564                   24352008.8284
 -24313363.33247 -18933526.62943  23195851.5474                   23195849.6254
 -25146930.34048 -19585358.42345  20627054.1174                   20627053.5784
  -9713650.25046  -7558512.74143  23230775.8984                   23230777.7384
  -4652407.594 7                  23594400.797
 -15617364.57847 -12157507.74343  23109471.5944                   23109475.6054
 -15040971.15648 -11709596.87043  21913587.4614                   21913586.9104
 -23121259.74247 -18004785.61344  22184470.3524                   22184469.4414
 -19577768.61747 -15244634.14943  21523326.4774                   21523326.7034
  -6163605.92247  -4795438.93743  23981902.3834                   23981901.3244
 11  9 25  1 11 30.0000000  0 10G12G02G29G30G18G25G15G05G26G21
 -13303694.066 7                  24366341.430
 -24275612.24247 -18904110.06343  23203035.8204                   23203033.4574
 -25204948.14848 -19630567.01945  20616013.8444                   20616012.4494
  -9682803.61347  -7534476.47943  23236645.2664                   23236647.7734
  -4746983.223 6                  23576403.320
 -15560517.42247 -12113211.28243  23120289.9534                   23120293.2074
 -15137856.77747 -11785092.09643  21895150.5944                   21895151.0944
 -23060626.58247 -17957538.96943  22196008.5084                   22196007.4614
 -19635729.98047 -15289798.79943  21512296.6724                   21512296.1914
  -6243286.902 7                  23966739.000
 11  9 25  1 12  0.0000000  0 10G12G02G29G30G18G25G15G05G26G21
 -13228416.71947 -10296445.08652  24380665.5474                   24380670.0514
 -24237715.46947 -18874580.09243  23210247.7344                   23210244.8554
 -25262505.05948 -19675416.50945  20605060.9534                   20605060.5124
  -9651565.62546  -7510135.13243  23242589.7424                   23242591.7774
  -4841310.687 7                  23558453.703
 -15503454.48847 -12068746.71143  23131148.1484                   23131151.8324
 -15234379.13748 -11860304.21143  21876783.1414                   21876782.0744
 -22999815.85247 -17910153.97443  22207580.7424                   22207579.2464
 -19693066.35247 -15334476.39043  21501385.8674                   21501385.5274
  -6322989.76647  -4919633.80853  23951572.6804                   23951569.7974
 11  9 25  1 12 30.0000000  0 10G12G02G29G30G18G25G15G05G26G21
 -13153191.19146 -10237827.77843  24394980.5944                   24394984.1804
 -24199671.92247 -18844935.77043  23217487.0084                   23217484.2934
 -25319597.63348 -19719904.20545  20594196.6484                   20594195.5084
  -9619938.21546  -7485490.31843  23248608.2734                   23248610.4344
  -4935387.473 7                  23540551.359
 -15446177.98847 -12024115.65143  23142047.8284                   23142050.9884
 -15330534.19148 -11935230.09944  21858485.2504                   21858485.3134
 -22938828.83247 -17862631.63544  22219185.7504                   22219184.8164
 -19749774.32448 -15378664.44543  21490594.9304                   21490594.2934
  -6402713.87547  -4981756.08843  23936401.3594                   23936398.7544
 11  9 25  1 13  0.0000000  0 10G12G02G29G30G18G25G15G05G26G21
 -13078020.824 6                  24409284.703
 -24161481.74247 -18815177.33543  23224753.6174                   23224752.0274
 -25376224.19548 -19764028.75345  20583420.9304                   20583419.8524
  -9587924.52047  -7460544.61143  23254700.2034                   23254700.6564
  -5029213.887 6                  23522696.344
 -15388691.35947 -11979320.92643  23152987.2974                   23152990.2934
 -15426319.29747 -12009867.76743  21840257.9534                   21840257.8484
 -22877668.12947 -17814973.92443  22230823.9694                   22230823.0314
 -19805852.21148 -15422361.35343  21479923.2894                   21479922.4264
  -6482459.66047  -5043895.68843  23921226.4384                   23921225.0004
 11  9 25  1 13 30.0000000  0 10G12G02G29G30G18G25G15G05G26G21
 -13002908.473 6                  24423578.273
 -24123144.38347 -18785304.02343  23232049.6644                   23232046.4804
 -25432383.12948 -19807788.91145  20572734.3594                   20572733.3954
  -9555527.63747  -7435300.28243  23260865.0164                   23260866.6094
  -5122789.22747  -3981530.55953  23504890.2344                   23504890.6374
 -15330998.06647 -11934365.25343  23163966.1174                   23163969.5664
 -15521732.43048 -12084215.56343  21822101.3284                   21822101.2814
 -22816336.01647 -17767182.64643  22242495.9384                   22242494.1334
 -19861298.26647 -15465566.11443  21469372.4064                   21469371.4924
  -6562227.34847  -5106052.40242  23906047.0314                   23906045.7034
 11  9 25  1 14  0.0000000  0 10G12G02G29G30G18G25G15G05G26G21
 -12927857.219 6                  24437860.211
 -24084659.77747 -18755315.92543  23239372.3984                   23239370.5594
 -25488072.69947 -19851183.33745  20562136.3754                   20562135.7194
  -9522750.65647  -7409759.62553  23267102.5554                   23267102.7854
  -5216113.29347  -4054250.41853  23487131.0314                   23487130.4534
 -15273101.36347 -11889250.97043  23174983.2814                   23174987.1054
 -15616770.82448 -12158271.38944  21804016.0084                   21804015.3754
 -22754834.98847 -17719259.78043  22254198.6024                   22254197.3554
 -19916110.26247 -15508276.66643  21458941.6174                   21458941.5904
  -6642017.26247  -5168226.33043  23890863.0004                   23890861.1604
 11  9 25  1 14 30.0000000  0 10G12G02G29G30G18G25G15G05G26G21
 -12852871.598 6                  24452129.453
 -24046029.73847 -18725214.65343  23246723.3674                   23246721.3204
 -25543293.21548 -19894212.23545  20551628.2974                   20551627.5594
  -9489598.48047  -7383926.75153  23273410.9304                   23273412.0044
  -5309187.34046  -4126775.47342  23469418.7194                   23469418.1684
 -15215006.48047 -11843982.23643  23186038.5784                   23186042.5044
 -15711433.39848 -12232034.29143  21786002.4144                   21786002.1134
 -22693169.16447 -17671208.41543  22265933.2424                   22265931.6884
 -19970288.02047 -15550493.00643  21448632.3054                   21448631.9224
  -6721831.43747  -5230419.18543  23875675.2974                   23875674.6804
 11  9 25  1 15  0.0000000  0 10G12G02G29G30G18G25G15G05G26G21
 -12777954.02347  -9945439.37952  24466386.4534                   24466383.0784
 -24007253.27047 -18694999.25953  23254102.9224                   23254099.7774
 -25598042.31248 -19936873.81745  20541210.1954                   20541209.0634
  -9456073.46946  -7357803.48643  23279790.0634                   23279792.7274
  -5402010.37147  -4199104.67453  23451755.5704                   23451754.6724
 -15156716.01247 -11798561.13243  23197130.2974                   23197133.6254
 -15805716.68448 -12305501.72444  21768060.8134                   21768059.8284
 -22631340.17247 -17623030.00844  22277698.5394                   22277697.6954
 -20023829.22348 -15592213.40643  21438443.6174                   21438442.9304
  -6801669.37147  -5292630.87543  23860482.4064                   23860482.0474
 11  9 25  1 15 30.0000000  0 10G12G02G29G30G18G25G15G05G26G21
 -12703107.91847  -9887117.71343  24480629.8524                   24480631.0354
 -23968330.73446 -18664669.96153  23261509.3834                   23261506.0784
 -25652318.96548 -19979167.27545  20530881.7194                   20530880.5044
  -9422179.09847  -7331392.23343  23286240.4924                   23286241.8284
  -5494582.55147  -4271238.82442  23434139.1254                   23434138.9844
 -15098233.82847 -11752990.63843  23208259.5784                   23208263.6454
 -15899618.45348 -12378671.83243  21750191.7974                   21750191.0664
 -22569351.13347 -17574726.79243  22289495.1884                   22289494.2624
 -20076732.19148 -15633436.40243  21428376.6884                   21428375.2704
  -6881531.82447  -5354860.64543  23845284.9924                   23845283.9614
 11  9 25  1 16  0.0000000  0 10G12G02G29G30G18G25G15G05G26G21
 -12628334.95747  -9828853.18643  24494858.2034                   24494861.5164
 -23929261.03146 -18634225.91343  23268943.9774                   23268941.8134
 -25706120.41848 -20021090.44245  20520643.5164                   20520641.9534
  -9387917.78947  -7304695.13743  23292760.3984                   23292763.2624
  -5586902.57846  -4343176.42242  23416571.4694                   23416571.7194
 -15039562.40247 -11707272.66143  23219424.1334                   23219427.1764
 -15993135.46147 -12451542.13144  21732395.9924                   21732395.3134
 -22507203.59047 -17526300.17643  22301321.1954                   22301320.7704
 -20128994.47747 -15674160.19344  21418431.1804                   21418430.2544
  -6961418.33647  -5417109.95752  23830083.3834                   23830081.5124
 11  9 25  1 16 30.0000000  0 10G12G02G29G30G18G25G15G05G26G21
 -12553638.72347  -9770648.24343  24509072.1254                   24509075.4384
 -23890044.53146 -18603667.73243  23276406.7114                   23276404.0984
 -25759445.51248 -20062642.42045  20510496.0084                   20510494.7624
  -9353293.21547  -7277714.91343  23299349.2344                   23299351.6844
  -5678970.59047  -4414917.29953  23399051.6484                   23399052.0864
 -14980705.69147 -11661410.43243  23230624.1094                   23230627.7304
 -16086265.44948 -12524110.85643  21714673.7424                   21714673.6484
 -22444900.23848 -17477752.02443  22313177.3204                   22313175.3914
 -20180614.73847 -15714383.73343  21408608.4454                   21408608.4414
  -7041329.59047  -5479378.36742  23814876.6954                   23814874.6804
 11  9 25  1 17  0.0000000  0 10G12G02G29G30G18G25G15G05G26G21
 -12479022.22747  -9712505.60343  24523271.3444                   24523274.1294
 -23850681.22746 -18572995.03243  23283897.5004                   23283895.2664
 -25812292.84047 -20103822.09745  20500439.5944                   20500438.4654
  -9318308.51647  -7250454.20143  23306006.4534                   23306007.9574
  -5770786.34847  -4486461.99353  23381579.0704                   23381579.0434
 -14921667.18047 -11615406.42543  23241859.4144                   23241863.1914
 -16179006.07448 -12596376.17244  21697025.4384                   21697025.5004
 -22382443.62947 -17429084.54243  22325062.4144                   22325060.9734
 -20231591.25847 -15754105.62744  21398907.7194                   21398906.8794
  -7121266.11746  -5541666.52143  23799665.1254                   23799664.2344
 11  9 25  1 17 30.0000000  0 10G12G02G29G30G18G25G15G05G26G21
 -12404489.44147  -9654428.19443  24537454.0314                   24537457.5354
 -23811172.31646 -18542208.85143  23291415.5784                   23291412.2034
 -25864661.73848 -20144628.97045  20490474.0944                   20490472.9304
  -9282968.05547  -7222915.92043  23312731.4454                   23312731.7704
  -5862350.47747  -4557810.57443  23364154.9064                   23364154.6484
 -14862451.35247 -11569264.21443  23253127.8364                   23253131.4574
 -16271355.87948 -12668336.93644  21679451.6724                   21679451.4224
 -22319837.46547 -17380300.53643  22336975.6954                   22336974.5004
 -20281923.63747 -15793325.57044  21389329.6094                   21389328.1024
  -7201229.26247  -5603975.35043  23784448.4304                   23784446.6454
 11  9 25  1 18  0.0000000  0 10G12G02G29G30G18G25G15G05G26G21
 -12330042.26646  -9596417.48442  24551621.5864                   24551624.5124
 -23771516.18447 -18511307.98053  23298961.6804                   23298956.5864
 -25916549.66848 -20185061.08745  20480599.9304                   20480599.1374
  -9247273.76247  -7195102.12354  23319523.8984                   23319524.8364
  -5953661.76247  -4628962.10453  23346778.8834                   23346782.5164
 -14803060.37147 -11522985.55743  23264429.7344                   23264432.6764
 -16363311.06248 -12739990.25944  21661953.6094                   21661952.8754
 -22257082.75847 -17331400.67043  22348917.5554                   22348916.2234
 -20331608.63748 -15832041.09043  21379874.8834                   21379873.9494
  -7281217.99646  -5666304.17843  23769227.0004                   23769224.2424
 11  9 25  1 18 30.0000000  0 10G12G02G29G30G18G25G15G05G26G21
 -12255684.67646  -9538476.50253  24565770.6254                   24565773.5274
 -23731714.36346 -18480293.48743  23306535.9454                   23306533.4104
 -25967956.41448 -20225118.23245  20470817.8364                   20470816.4694
  -9211230.35947  -7167016.40453  23326382.6484                   23326382.7424
  -6044721.29347  -4699917.43353  23329450.7034                   23329451.2114
 -14743499.19147 -11476574.24243  23275763.6094                   23275766.4454
 -16454870.60248 -12811335.26043  21644530.5314                   21644529.2424
 -22194183.50048 -17282388.26543  22360886.8134                   22360886.2704
 -20380646.43448 -15870252.34644  21370543.4614                   21370542.5314
  -7361234.12946  -5728654.43643  23754000.1564                   23753999.3204
 11  9 25  1 19  0.0000000  0 10G12G02G29G30G18G25G15G05G26G21
 -12181417.93446  -9480606.52543  24579903.4304                   24579905.8554
 -23691764.60946 -18449163.85343  23314137.6804                   23314135.2304
 -26018878.55948 -20264797.81345  20461127.5004                   20461126.3404
  -9174839.06247  -7138659.58643  23333307.4224                   23333309.1414
  -6135526.94947  -4770674.91843  23312170.8284                   23312170.3554
 -14683769.12147 -11430031.35743  23287129.6884                   23287133.8634
 -16546029.87948 -12882368.40643  21627183.1094                   21627181.8284
 -22131140.00448 -17233263.44543  22372883.5554                   22372882.6764
 -20429033.04347 -15907956.12543  21361335.7194                   21361335.2274
  -7441276.02746  -5791024.57653  23738768.4144                   23738767.6454
 11  9 25  1 19 30.0000000  0 10G12G02G29G30G18G25G15G05G26G21
 -12107245.687 5                  24594018.063
 -23651667.73446 -18417919.50843  23321767.8204                   23321765.5594
 -26069315.49248 -20304099.28245  20451529.2194                   20451528.7584
  -9138103.99647  -7110034.72043  23340298.1174                   23340299.1564
  -6226079.23847  -4841234.97553  23294939.2274                   23294935.7664
 -14623874.53947 -11383360.17343  23298527.2894                   23298530.3714
 -16636787.46948 -12953088.50344  21609912.5634                   21609911.7384
 -22067955.50047 -17184028.72143  22384907.4534                   22384905.1294
 -20476768.13748 -15945152.21344  21352251.7424                   21352250.8244
  -7521344.66046  -5853415.72343  23723532.6884                   23723530.3134
 11  9 25  1 20  0.0000000  0 10G12G02G29G30G18G25G15G05G26G21
 -12033170.457 5                  24608113.242
 -23611423.50446 -18386560.33843  23329426.0164                   23329424.4654
 -26119265.50048 -20343021.34345  20442024.4844                   20442023.1024
  -9101028.09847  -7081144.30843  23347353.3204                   23347354.4694
  -6316377.78947  -4911597.26553  23277755.7504                   23277755.4694
 -14563818.58647 -11336563.42543  23309955.2814                   23309958.0704
 -16727140.63348 -13023493.45943  21592718.8054                   21592718.7704
 -22004632.19547 -17134685.90543  22396957.3984                   22396956.1524
 -20523849.85248 -15981839.22344  21343292.2424                   21343291.9734
  -7601440.16846  -5915827.64743  23708290.4224                   23708289.8794
 11  9 25  1 20 30.0000000  0 10G12G02G29G30G18G25G15G05G26G21
 -11959196.566 6                  24622191.008
 -23571033.14846 -18355087.29343  23337112.5004                   23337109.3594
 -26168728.51248 -20381563.92645  20432611.6094                   20432610.9414
  -9063616.05147  -7051992.19142  23354472.8134                   23354473.3444
  -6406423.64847  -4981762.53243  23260620.3204                   23260619.6644
 -14503606.00847 -11289644.54943  23321414.0554                   23321417.4734
 -16817088.22348 -13093582.44644  21575602.3674                   21575601.6134
 -21941173.87548 -17085237.76243  22409032.9844                   22409032.3594
 -20570277.79748 -16018016.82043  21334457.0634                   21334456.3834
  -7681564.28546  -5978261.99343  23693043.0004                   23693042.9104
 11  9 25  1 21  0.0000000  0 10G12G02G29G30G18G25G15G05G26G21
 -11885326.555 5                  24636248.961
 -23530496.21546 -18323500.03942  23344826.3754                   23344823.7854
 -26217702.59048 -20419725.52445  20423292.2664                   20423290.5554
  -9025870.57847  -7022580.10143  23361655.1174                   23361655.9104
  -6496216.15647  -5051730.66343  23243533.2894                   23243533.5434
 -14443239.71947 -11242605.81143  23332900.6724                   23332905.4494
 -16906626.78548 -13163352.65144  21558563.3524                   21558563.1724
 -21877582.13347 -17035685.82243  22421134.1174                   22421133.4534
 -20616050.22748 -16053683.52843  21325747.0704                   21325746.0354
  -7761716.57846  -6040718.18743  23677790.2974                   23677789.1604
 11  9 25  1 21 30.0000000  0 10G12G02G29G30G18G25G15G05G26G21
 -11811563.23046  -9192411.38953  24650284.9614                   24650288.8364
 -23489812.79746 -18291798.55143  23352567.6564                   23352564.6054
 -26266186.32848 -20457505.03645  20414066.2894                   20414064.7074
  -8987795.16447  -6992910.93442  23368900.3284                   23368901.6334
  -6585754.98047  -5121501.18753  23226494.5084                   23226492.7504
 -14382723.41847 -11195450.36243  23344416.7814                   23344419.9774
 -16995754.59048 -13232802.80144  21541603.0704                   21541602.7344
 -21813859.90647 -16986032.08343  22433259.8754                   22433259.1724
 -20661165.75448 -16088838.50243  21317162.0314                   21317161.1334
  -7841897.48846  -6103196.81243  23662532.3754                   23662531.2424
 11  9 25  1 22  0.0000000  0 10G12G02G29G30G18G25G15G05G26G21
 -11737908.418 6                  24664301.023
 -23448981.62946 -18259982.21643  23360338.2974                   23360335.3134
 -26314177.49248 -20494900.72045  20404933.5474                   20404932.1994
  -8949392.21146  -6962986.53942  23376208.5474                   23376209.6094
  -6675039.09447  -5191072.99043  23209504.0474                   23209503.9064
 -14322059.51647 -11148179.77343  23355960.2584                   23355963.8754
 -17084468.03148 -13301930.08844  21524721.2194                   21524720.5004
 -21750008.52047 -16936277.74043  22445410.1724                   22445409.0594
 -20705622.02348 -16123479.67943  21308701.9384                   21308701.0124
  -7922106.18746  -6165696.98243  23647268.9144                   23647269.2424
 11  9 25  1 22 30.0000000  0 10G12G02G29G30G18G25G15G05G26G21
 -11664364.13746  -9077710.69952  24678296.2584                   24678297.4344
 -23408001.55946 -18228049.72943  23368136.6954                   23368133.9804
 -26361673.56648 -20531910.60545  20395895.4454                   20395894.3134
  -8910663.71147  -6932808.45343  23383578.4774                   23383579.8554
  -6764067.43047  -5260445.49343  23192562.3834                   23192560.9304
 -14261250.19147 -11100795.93143  23367532.4614                   23367535.1374
 -17172763.71148 -13370731.81344  21507919.4384                   21507918.4924
 -21686028.99247 -16886423.54143  22457585.1254                   22457583.3594
 -20749416.49248 -16157605.20443  21300368.2114                   21300367.6684
  -8002342.22746  -6228218.58242  23632000.7034                   23632000.0664
 11  9 25  1 23  0.0000000  0 10G12G02G29G30G18G25G15G05G26G21
 -11590934.61347  -9020492.90642  24692269.6484                   24692272.5434
 -23366874.570 6                  23375962.414
 -26408674.71948 -20568534.88245  20386951.5864                   20386949.6684
  -8871614.79347  -6902380.83243  23391009.6724                   23391011.1054
  -6852841.58247  -5329620.14842  23175669.3284                   23175669.2234
 -14200300.71547 -11053302.79843  23379130.8444                   23379133.6254
 -17260640.98447 -13439207.57044  21491196.7504                   21491196.2934
 -21621925.39847 -16836472.77243  22469784.0234                   22469782.9024
 -20792549.55948 -16191215.34443  21292160.2034                   21292159.4304
  -8082607.46546  -6290762.67543  23616726.8524                   23616725.3244
 11  9 25  1 23 30.0000000  0 10G12G02G29G30G18G25G15G05G26G21
 -11517624.25847  -8963367.90242  24706220.2194                   24706222.6994
 -23325601.51246 -18163841.81753  23383816.4384                   23383814.0394
 -26455180.59848 -20604773.19945  20378101.6334                   20378100.4144
  -8832249.95747  -6871707.01443  23398499.8674                   23398501.4144
  -6941362.36346  -5398597.06453  23158824.4144                   23158823.5204
 -14139215.72747 -11005704.10343  23390755.0704                   23390758.6454
 -17348098.47347 -13507356.19944  21474554.1254                   21474552.7624
 -21557701.43747 -16786428.03143  22482005.2504                   22482004.4924
 -20835021.27048 -16224310.05843  21284077.9064                   21284076.9774
  -8162903.05547  -6353330.74553  23601447.4924                   23601445.0744
 11  9 25  1 24  0.0000000  0 10G12G02G29G30G18G25G15G05G26G21
 -11444432.98446  -8906335.84353  24720147.5394                   24720150.1564
 -23284179.53147 -18131564.94942  23391698.8364                   23391696.2774
 -26501187.47748 -20640622.68345  20369346.8594                   20369345.5394
  -8792569.76647  -6840787.31043  23406050.7974                   23406051.1604
  -7029626.57446  -5467374.21443  23142027.7034                   23142027.0084
 -14077995.75847 -10958000.19443  23402405.2814                   23402409.1214
 -17435130.98447 -13575173.67244  21457992.1094                   21457991.2424
 -21493356.50447 -16736289.14043  22494249.5084                   22494247.6524
 -20876827.21548 -16256886.08743  21276122.7894                   21276121.3134
  -8243226.50447  -6415920.16943  23586162.4774                   23586160.0664
 11  9 25  1 24 30.0000000  0 10G12G02G29G30G18G25G15G05G26G21
 -11371364.61346  -8849399.47543  24734052.3054                   24734054.7814
 -23242609.99646 -18099172.95143  23399609.5474                   23399607.0554
 -26546695.35948 -20676083.32845  20360686.8364                   20360685.7034
  -8752578.83646  -6809625.57243  23413661.8524                   23413662.8244
  -7117636.15247  -5535953.00053  23125280.7814                   23125279.7544
 -14016645.60547 -10910194.94443  23414079.0394                   23414082.3164
 -17521737.80148 -13642659.43244  21441511.5084                   21441510.9224
 -21428894.56247 -16686059.03743  22506516.5634                   22506514.8054
 -20917967.91448 -16288943.78344  21268293.7584                   21268293.3554
  -8323579.46947  -6478532.83243  23570871.2894                   23570869.6254
 11  9 25  1 25  0.0000000  0 10G12G02G29G30G18G25G15G05G26G21
 -11298422.250 6                  24747933.281
 -23200892.76246 -18066666.44343  23407547.8674                   23407545.2584
 -26591702.79748 -20711153.99945  20352122.5314                   20352121.5234
  -8712280.49246  -6778224.28643  23421329.2974                   23421331.2734
  -7205390.52347  -5604332.96843  23108580.7664                   23108581.4224
 -13955168.66047 -10862290.77443  23425778.0164                   23425781.7424
 -17607916.37148 -13709811.51044  21425112.2974                   21425111.0984
 -21364317.69147 -16635739.41643  22518804.9224                   22518803.8324
 -20958441.55948 -16320481.58244  21260592.2034                   21260590.6484
  -8403962.21947  -6541168.59143  23555574.6724                   23555574.0824
 11  9 25  1 25 30.0000000  0  9G02G29G30G18G25G15G05G26G21
 -23159027.35547 -18034043.73843  23415514.3674                   23415510.8914
 -26636207.89848 -20745833.29745  20343653.3594                   20343652.0864
  -8671677.60946  -6746585.76753  23429055.7424                   23429056.8444
  -7292889.18047  -5672513.53843  23091930.3444                   23091930.0704
 -13893567.89547 -10814290.23643  23437500.1884                   23437502.6884
 -17693663.56648 -13776627.43944  21408795.2814                   21408793.6374
 -21299627.89847 -16585331.77743  22531114.9844                   22531113.0044
 -20998246.88348 -16351498.65944  21253017.1884                   21253016.7344
  -8484374.19947  -6603827.26643  23540272.7344                   23540270.8794
 11  9 25  1 26  0.0000000  0  9G02G29G30G18G25G15G05G26G21
 -23117011.86347 -18001304.32653  23423509.3204                   23423507.9414
 -26680207.57448 -20780118.72745  20335280.3364                   20335279.0784
  -8630771.70746  -6714710.75543  23436840.3444                   23436840.5864
  -7380129.98847  -5740493.32042  23075328.8834                   23075327.1764
 -13831844.85947 -10766194.43443  23449245.4224                   23449248.9024
 -17778975.56248 -13843104.25644  21392560.5164                   21392559.6684
 -21234825.42647 -16534836.36143  22543446.5234                   22543446.6054
 -21037380.85548 -16381992.59644  21245570.2814                   21245569.0594
  -8564813.60547  -6666507.28643  23524966.2344                   23524963.1954
 11  9 25  1 26 30.0000000  0  9G02G29G30G18G25G15G05G26G21
 -23074838.46147 -17968442.07243  23431534.9534                   23431532.2624
 -26723692.67648 -20814003.17745  20327005.5394                   20327003.9534
  -8589558.32047  -6682596.64643  23444682.9304                   23444682.7974
  -7467105.36746  -5808266.22243  23058778.2584                   23058778.0124
 -13769995.08647 -10717999.71143  23461015.3204                   23461018.7234
 -17863842.19147 -13909234.02244  21376411.0314                   21376410.3244
 -21169904.47747 -16484248.58643  22555800.5004                   22555798.7624
 -21075834.67248 -16411956.64943  21238252.3444                   21238251.8794
  -8645273.17247  -6729202.81643  23509654.7734                   23509653.3204
 11  9 25  1 27  0.0000000  0  9G02G29G30G18G25G15G05G26G21
 -23032505.64547 -17935455.30443  23439591.1024                   23439588.0124
 -26766661.03948 -20847485.00845  20318828.8134                   20318827.4844
  -8548039.32847  -6650244.39943  23452583.8364                   23452585.6914
  -7553813.42247  -5875830.74642  23042277.9694                   23042276.4924
 -13708020.56647 -10669707.94243  23472808.2424                   23472813.3054
 -17948259.86748 -13975013.94844  21360346.7424                   21360346.2424
 -21104865.86347 -16433569.18043  22568177.1644                   22568175.9774
 -21113605.54348 -16441388.38943  21231064.7894                   21231063.2974
  -8725751.75447  -6791913.10343  23494340.1024                   23494338.1484
 11  9 25  1 27 30.0000000  0  9G02G29G30G18G25G15G05G26G21
 -22990014.48047 -17902345.37243  23447677.2034                   23447673.8404
 -26809112.14148 -20880563.73945  20310750.5634                   20310748.7854
  -8506219.21946  -6617657.11043  23460541.7504                   23460543.3444
  -7640255.49647  -5943188.09243  23025828.2814                   23025826.1764
 -13645925.89147 -10621322.49643  23484624.5634                   23484628.4774
 -18032227.32448 -14040443.07544  21344367.9304                   21344367.5664
 -21039713.79747 -16382801.34243  22580575.2034                   22580573.8054
 -21150693.71148 -16470288.21443  21224007.1414                   21224005.7854
  -8806250.50047  -6854639.49843  23479021.2974                   23479020.2074
 11  9 25  1 28  0.0000000  0  9G02G29G30G18G25G15G05G26G21
 -22947367.46147 -17869113.92353  23455791.8834                   23455788.9774
 -26851047.21548 -20913240.36745  20302770.7034                   20302769.1914
  -8464103.70747  -6584839.96153  23468556.2974                   23468555.1294
  -7726433.70347  -6010339.78543  23009429.2274                   23009429.1254
 -13583716.73847 -10572847.83143  23496463.2814                   23496466.1454
 -18115744.59848 -14105521.45444  21328475.6254                   21328474.1334
 -20974452.73047 -16331948.57543  22592993.7664                   22592992.8874
 -21187100.10548 -16498656.76743  21217079.4844                   21217078.3714
  -8886772.03947  -6917383.39453  23463698.5394                   23463698.3834
 11  9 25  1 28 30.0000000  0  9G02G29G30G18G25G15G05G26G21
 -22904565.70347 -17835761.90252  23463937.1334                   23463932.8204
 -26892466.18048 -20945514.84945  20294888.9304                   20294887.3444
  -8421697.37147  -6551796.15553  23476625.6884                   23476627.4734
  -7812349.12147  -6077286.67643  22993080.3444                   22993078.3554
 -13521397.76247 -10524287.61843  23508321.7194                   23508327.0164
 -18198810.68448 -14170248.13743  21312668.2424                   21312668.0664
 -20909085.42247 -16281012.98843  22605432.8134                   22605432.0824
 -21222825.38348 -16526494.63143  21210281.2344                   21210279.9494
  -8967317.52747  -6980146.08643  23448371.0234                   23448370.3754
 11  9 25  1 29  0.0000000  0  9G02G29G30G18G25G15G05G26G21
 -22861610.10247 -17802289.99543  23472110.6724                   23472108.3244
 -26933368.96548 -20977387.12145  20287105.4694                   20287103.3594
  -8379004.78146  -6518529.04743  23484750.1484                   23484750.9304
  -7898003.07847  -6144029.81743  22976780.0704                   22976779.7704
 -13458973.37947 -10475645.19443  23520201.1174                   23520204.2384
 -18281424.22348 -14234622.27144  21296947.5704                   21296945.5824
 -20843615.67647 -16229997.63043  22617892.1484                   22617890.6024
 -21257869.59048 -16553801.68244  21203612.2194                   21203611.0044
  -9047888.39547  -7042928.30643  23433038.7344                   23433037.7854
 11  9 25  1 29 30.0000000  0  9G02G29G30G18G25G15G05G26G21
 -22818498.67246 -17768696.63742  23480314.6334                   23480313.2704
 -26973752.59048 -21008854.83345  20279420.3754                   20279419.5274
  -8336027.41846  -6485040.27042  23492928.1724                   23492928.1524
  -7983393.69547  -6210567.86342  22960530.8054                   22960530.6564
 -13396445.23447 -10426921.93643  23532099.0084                   23532102.7074
 -18363581.33248 -14298640.73844  21281313.6564                   21281312.0354
 -20778043.84047 -16178902.67043  22630369.3984                   22630368.4804
 -21292229.89848 -16580575.91844  21197073.6884                   21197072.6054
  -9128482.72347  -7105728.98943  23417702.0084                   23417702.1334
 11  9 25  1 30  0.0000000  0  9G02G29G30G18G25G15G05G26G21
 -22775234.08247 -17734983.78643  23488548.2274                   23488544.7664
 -27013618.05148 -21039918.78745  20271834.2274                   20271832.5394
  -8292770.89147  -6451333.97743  23501159.6954                   23501161.0944
  -8068523.12147  -6276902.32842  22944331.4534                   22944330.1294
 -13333818.84447 -10378122.39843  23544016.4454                   23544020.1334
 -18445282.03547 -14362303.57444  21265766.4844                   21265764.5944
 -20712374.23047 -16127731.52343  22642865.8754                   22642864.9304
 -21325907.49248 -16606818.21044  21190665.2974                   21190664.2234
  -9209103.07446  -7168549.74143  23402360.6564                   23402359.3324
 11  9 25  1 30 30.0000000  0  9G02G29G30G18G25G15G05G26G21
 -22731816.137 6                  23496809.820
 -27052964.27048 -21070578.14845  20264346.9844                   20264345.3834
  -8249238.52747  -6417412.44552  23509443.6254                   23509440.7894
  -8153391.20347  -6343033.16042  22928181.3674                   22928179.5124
 -13271097.58247 -10329248.49643  23555952.1174                   23555955.7774
 -18526523.97347 -14425608.91044  21250306.4454                   21250304.8794
 -20646609.21947 -16076486.05943  22655380.7194                   22655378.9534
 -21358901.50448 -16632527.73843  21184386.4614                   21184385.2934
  -9289749.42246  -7231390.96343  23387014.0474                   23387012.8524
 11  9 25  1 31  0.0000000  0  9G02G29G30G18G25G15G05G26G21
 -22688243.50847 -17667199.09852  23505101.7814                   23505100.0084
 -27091789.18448 -21100831.29945  20256958.7344                   20256957.2344
  -8205432.87946  -6383278.02543  23517779.3364                   23517780.6994
  -8237996.91847  -6408959.53043  22912081.2424                   22912078.1724
 -13208283.92647 -10280302.69943  23567905.5474                   23567908.5744
 -18607304.09447 -14488554.36444  21234934.5634                   21234932.9614
 -20580750.18447 -16025167.33543  22667913.0084                   22667912.3594
 -21391210.50448 -16657703.54143  21178238.0474                   21178237.1454
  -9370421.04747  -7294251.84443  23371662.5394                   23371661.1024
 11  9 25  1 31 30.0000000  0  9G02G29G30G18G25G15G05G26G21
 -22644516.711 6                  23513421.828
 -27130091.87548 -21130677.50645  20249669.8204                   20249669.1484
  -8161357.53147  -6348933.76642  23526166.5004                   23526167.1644
  -8322340.52047  -6474681.62843  22896031.5394                   22896029.5944
 -13145381.41847 -10231287.81543  23579875.2894                   23579878.7544
 -18687620.58647 -14551138.58544  21219650.4774                   21219649.2584
 -20514799.35947 -15973777.03443  22680462.7114                   22680461.3984
 -21422833.51248 -16682344.82443  21172220.5164                   21172219.8204
  -9451118.14546  -7357132.61243  23356306.5944                   23356304.6024
 11  9 25  1 32  0.0000000  0  9G02G29G30G18G25G15G05G26G21
 -22600634.211 6                  23521773.148
 -27167869.87548 -21160114.88045  20242480.9924                   20242479.5084
  -8117014.289 6                  23534604.688
  -8406420.58247  -6540198.45143  22880031.0944                   22880029.5704
 -13082391.86747 -10182205.07843  23591861.7274                   23591865.2424
 -18767469.70747 -14613358.63844  21204455.8444                   21204454.6024
 -20448757.35247 -15922315.74743  22693029.7424                   22693028.6174
 -21453768.35948 -16706449.93443  21166333.9924                   21166332.8954
  -9531839.39847  -7420032.14543  23340945.3284                   23340943.1254
 11  9 25  1 32 30.0000000  0  9G02G29G30G18G25G15G05G26G21
 -22556597.61347 -17564617.80353  23530153.5554                   23530151.4224
 -27205123.83648 -21189143.91345  20235391.3284                   20235390.6414
  -8072408.48047  -6279622.69952  23543093.8204                   23543093.5274
  -8490239.07847  -6605511.35743  22864080.9454                   22864078.7624
 -13019320.52047 -10133058.37343  23603863.6024                   23603867.2854
 -18846851.15647 -14675214.22744  21189349.8134                   21189348.9494
 -20382628.19947 -15870786.58643  22705614.3134                   22705612.5904
 -21484015.99648 -16730019.43643  21160577.6954                   21160577.0944
  -9612586.68747  -7482952.04043  23325579.8594                   23325578.8634
 11  9 25  1 33  0.0000000  0  9G02G29G30G18G25G15G05G26G21
 -22512406.92247 -17530183.57043  23538561.4924                   23538559.4494
 -27241852.69148 -21217763.76145  20228402.1094                   20228400.9454
  -8027543.49647  -6244662.97742  23551630.8134                   23551631.6954
  -8573795.76247  -6670620.38243  22848180.5164                   22848180.0274
 -12956170.69947 -10083850.85343  23615881.5004                   23615884.2934
 -18925762.58648 -14736703.59844  21174333.2894                   21174331.7624
 -20316414.14847 -15819191.20543  22718214.3444                   22718213.0124
 -21513575.93748 -16753053.06044  21154952.8444                   21154951.6374
  -9693360.00047  -7545892.12343  23310209.2504                   23310206.3404
 11  9 25  1 33 30.0000000  0  9G02G29G30G18G25G15G05G26G21
 -22468061.77347 -17495629.20943  23547001.1804                   23546998.5004
 -27278054.96948 -21245973.29945  20221513.3364                   20221512.0984
  -7982422.14847  -6209503.20643  23560217.2504                   23560218.0314
  -8657090.39147  -6735525.23143  22832329.6644                   22832329.5314
 -12892945.18747 -10034584.07343  23627912.4064                   23627916.1374
 -19004201.39548 -14797824.66044  21159406.8834                   21159406.4384
 -20250116.59047 -15767530.70443  22730830.1564                   22730829.5634
 -21542446.84848 -16775549.77143  21149458.6484                   21149458.1844
  -9774158.92647  -7608852.14543  23294833.5394                   23294831.1214
 11  9 25  1 34  0.0000000  0  9G02G29G30G18G25G15G05G26G21
 -22423562.39147 -17460953.93843  23555468.2584                   23555466.6884
 -27313729.96548 -21273771.96345  20214724.3054                   20214723.9414
  -7937048.28947  -6174147.13643  23568851.8134                   23568852.6134
  -8740123.28947  -6800225.84443  22816529.1804                   22816528.0784
 -12829647.77047  -9985261.46553  23639957.3754                   23639961.7074
 -19082166.17247 -14858576.38544  21144570.5474                   21144570.0204
 -20183738.17647 -15715807.25243  22743461.8984                   22743461.5084
 -21570628.47348 -16797509.58743  21144095.6094                   21144095.2544
  -9854983.74247  -7671832.58743  23279452.9844                   23279451.4884
 11  9 25  1 34 30.0000000  0  9G02G29G30G18G25G15G05G26G21
 -22378905.96947 -17426156.88643  23563966.0784                   23563963.4574
 -27348874.02048 -21301156.93345  20208036.9224                   20208035.7664
  -7891422.47347  -6138594.94253  23577533.3594                   23577535.6414
  -8822891.52047  -6864720.63343  22800778.7344                   22800777.4144
 -12766278.85547  -9935883.14142  23652016.1254                   23652019.4344
 -19159651.81248 -14918954.70544  21129825.6884                   21129824.5514
 -20117278.12947 -15664020.13143  22756109.0164                   22756107.4574
 -21598117.57048 -16818929.55144  21138864.9774                   21138864.2704
  -9935831.62947  -7734830.79843  23264067.7814                   23264064.9734
 11  9 25  1 35  0.0000000  0  9G02G29G30G18G25G15G05G26G21
 -22334093.69947 -17391238.22843  23572494.2194                   23572490.5824
 -27383487.00848 -21328128.04945  20201450.3834                   20201448.3714
  -7845549.34447  -6102849.34842  23586263.5004                   23586264.0204
  -8905396.30547  -6929009.80943  22785078.8054                   22785076.8834
 -12702843.02347  -9886452.72643  23664087.5784                   23664091.0234
 -19236657.37948 -14978958.98144  21115171.8524                   21115170.8754
 -20050739.97347 -15612172.23443  22768770.2194                   22768769.7774
 -21624914.37948 -16839810.12043  21133765.2814                   21133765.1844
 -10016704.32447  -7797848.38943  23248678.2344                   23248676.3714
 11  9 25  1 35 30.0000000  0  9G02G29G30G18G25G15G05G26G21
 -22289126.55146 -17356198.73243  23581051.0944                   23581048.7274
 -27417568.68448 -21354685.17445  20194964.8054                   20194963.4654
  -7799433.02047  -6066914.41343  23595038.8284                   23595040.1334
  -8987638.80147  -6993094.73343  22769428.5164                   22769426.0744
 -12639344.36347  -9836973.20543  23676170.7194                   23676174.7974
 -19313181.76648 -15038588.32844  21100609.8984                   21100608.7814
 -19984126.23847 -15560265.45343  22781446.5004                   22781445.3444
 -21651019.28948 -16860151.55643  21128797.9694                   21128796.9344
 -10097602.14147  -7860885.58843  23233284.1954                   23233281.8484
 11  9 25  1 36  0.0000000  0  9G02G29G30G18G25G15G05G26G21
 -22244003.07046 -17321037.60542  23589638.1174                   23589636.8754
 -27451117.56248 -21380827.13845  20188580.4844                   20188579.1094
  -7753075.86747  -6030791.95543  23603860.0164                   23603861.6954
  -9069617.84447  -7056974.47743  22753827.5164                   22753825.7074
 -12575785.09447  -9787446.59353  23688265.4694                   23688272.0394
 -19389221.47748 -15097839.93344  21086140.0234                   21086138.3674
 -19917438.40247 -15508300.88643  22794137.0234                   22794135.4924
 -21676430.69948 -16879952.63844  21123962.3364                   21123961.3524
 -10178524.22347  -7923941.62243  23217884.8984                   23217883.7114
 11  9 25  1 36 30.0000000  0  9G02G29G30G18G25G15G05G26G21
 -22198723.39546 -17285754.58643  23598254.0554                   23598252.6484
 -27484132.23448 -21406552.84345  20182298.0474                   20182297.1414
  -7706480.98847  -5994484.28553  23612726.7344                   23612729.8014
  -9151333.26247  -7120648.74043  22738277.9924                   22738276.5904
 -12512168.21147  -9737874.89943  23700371.7734                   23700376.8324
 -19464774.38748 -15156712.28744  21071762.6564                   21071761.0554
 -19850678.07847 -15456279.87243  22806841.0234                   22806839.0904
 -21701147.87148 -16899212.70043  21119258.5704                   21119257.3134
 -10259470.03547  -7987016.16243  23202481.4694                   23202478.1914
 11  9 25  1 37  0.0000000  0  9G02G29G30G18G25G15G05G26G21
 -22153286.62946 -17250349.46243  23606900.6024                   23606898.2934
 -27516611.29748 -21431861.14445  20176117.7274                   20176116.4494
  -7659651.39146  -5957993.42253  23621638.2194                   23621639.8164
  -9232784.41847  -7184116.96543  22722778.4844                   22722776.9454
 -12448496.57447  -9688260.55743  23712487.7974                   23712491.5394
 -19539838.16048 -15215203.49344  21057478.5004                   21057477.1914
 -19783846.67647 -15404203.47243  22819558.8284                   22819557.6414
 -21725169.79348 -16917931.00343  21114687.1724                   21114686.6334
 -10340439.51647  -8050109.13443  23187073.5704                   23187071.2114
 11  9 25  1 37 30.0000000  0  9G02G29G30G18G25G15G05G26G21
 -22107693.63747 -17214822.57843  23615576.5634                   23615575.2344
 -27548554.32048 -21456751.80745  20170038.8524                   20170037.0744
  -7612591.14147  -5921323.33643  23630593.7894                   23630594.6134
  -9313972.46547  -7247380.26843  22707328.2814                   22707327.7384
 -12384774.12947  -9638606.75243  23724614.3524                   23724617.4064
 -19614411.51248 -15273312.50644  21043287.2504                   21043285.9614
 -19716947.09447 -15352073.95143  22832288.8914                   22832288.1994
 -21748496.78548 -16936107.92943  21110248.1334                   21110247.1564
 -10421432.96147  -8113220.74843  23171660.8674                   23171660.1054
 11  9 25  1 38  0.0000000  0  9G02G29G30G18G25G15G05G26G21
 -22061943.723 6                  23624282.586
 -27579959.82448 -21481223.62045  20164062.6254                   20164060.8094
  -7565302.98047  -5884475.29643  23639592.6724                   23639592.9654
  -9394896.75447  -7310438.05943  22691929.2584                   22691926.5514
 -12321003.53947  -9588915.39643  23736749.5784                   23736752.5124
 -19688491.42648 -15331037.04444  21029190.5864                   21029189.4844
 -19649980.64147 -15299892.22943  22845032.6094                   22845031.5664
 -21771127.85948 -16953742.43644  21105942.1724                   21105940.8594
 -10502449.51647  -8176350.55843  23156243.7974                   23156241.0354
 11  9 25  1 38 30.0000000  0  9G02G29G30G18G25G15G05G26G21
 -22016038.45346 -17143402.92453  23633018.3834                   23633015.2664
 -27610828.35548 -21505276.97745  20158188.4844                   20158186.9964
  -7517791.67646  -5847453.67252  23648632.1414                   23648635.0434
  -9475558.53147  -7373291.23443  22676579.6644                   22676577.4104
 -12257189.32847  -9539190.01243  23748892.7894                   23748895.5204
 -19762077.53148 -15388376.80744  21015187.6174                   21015186.4804
 -19582950.71547 -15247661.23443  22857787.5864                   22857786.9964
 -21793063.75047 -16970835.30243  21101767.6174                   21101766.6804
 -10583490.46947  -8239499.13843  23140822.3204                   23140818.6884
 11  9 25  1 39  0.0000000  0  9G02G29G30G18G25G15G05G26G21
 -21969975.17646 -17107509.46542  23641783.9144                   23641781.1374
 -27641156.81248 -21528909.53845  20152417.0474                   20152415.5824
  -7470058.25847  -5810258.62453  23657716.8444                   23657717.0044
  -9555955.70347  -7435938.20443  22661280.1484                   22661278.7344
 -12193332.47747  -9489431.45343  23761044.1484                   23761048.4384
 -19835165.61348 -15445328.52444  21001279.2734                   21001277.2464
 -19515856.84847 -15195380.20743  22870555.0394                   22870554.3054
 -21814302.14848 -16987384.66943  21097725.9924                   21097725.0354
 -10664553.84847  -8302665.30643  23125396.2664                   23125395.5824
 11  9 25  1 39 30.0000000  0  9G02G29G30G18G25G15G05G26G21
 -21923755.15246 -17071493.81943  23650578.7584                   23650576.3954
 -27670945.71548 -21552121.63945  20146748.6094                   20146747.1884
  -7422107.48046  -5772894.47943  23666841.2034                   23666841.8134
  -9636089.84447  -7498380.39343  22646030.9774                   22646029.0314
 -12129437.55147  -9439643.31243  23773202.8524                   23773207.4774
 -19907754.99248 -15501891.61444  20987465.8204                   20987464.6054
 -19448702.47747 -15143052.16643  22883334.2814                   22883332.8444
 -21834843.61348 -17003390.94444  21093817.3754                   21093816.7234
 -10745640.89847  -8365849.91543  23109965.5234                   23109963.5744
 11  9 25  1 40  0.0000000  0  9G02G29G30G18G25G15G05G26G21
 -21877377.22346 -17035355.17953  23659403.3594                   23659402.3984
 -27700192.73048 -21574911.49645  20141182.9924                   20141181.5004
  -7373941.36346  -5735362.13743  23676007.0164                   23676008.4064
  -9715959.23847  -7560616.19443  22630832.6724                   22630830.1914
 -12065506.41847  -9389826.69643  23785368.3364                   23785372.6484
 -19979842.31248 -15558063.47344  20973748.4774                   20973746.3094
 -19381488.39547 -15090677.42943  22896124.7894                   22896122.1844
 -21854686.87948 -17018853.25043  21090040.8914                   21090039.9264
 -10826750.16847  -8429051.76243  23094531.1094                   23094528.9964
 11  9 25  1 40 30.0000000  0  9G02G29G30G18G25G15G05G26G21
 -21830843.05146 -16999094.77843  23668259.5944                   23668258.1994
 -27728898.75848 -21597279.82245  20135720.4844                   20135719.1844
  -7325564.75046  -5697666.36742  23685212.5234                   23685214.1484
  -9795565.67647  -7622647.13643  22615683.7194                   22615681.9024
 -12001543.69546  -9339985.71843  23797539.8984                   23797544.1374
 -20051427.19548 -15613843.86544  20960125.9844                   20960124.8204
 -19314217.82847 -15038258.93243  22908925.8594                   22908924.0864
 -21873833.03547 -17033772.21843  21086397.8054                   21086396.1684
 -10907882.71147  -8492271.85843  23079091.9614                   23079089.4574
 11  9 25  1 41  0.0000000  0  9G02G29G30G18G25G15G05G26G21
 -21784150.13346 -16962710.74843  23677144.8284                   23677142.2464
 -27757060.76648 -21619224.21445  20130361.6334                   20130359.7624
  -7276979.066 6                  23694458.180
  -9874907.53947  -7684471.60343  22600585.9224                   22600583.6174
 -11937550.648 6                  23809717.477
 -20122505.62548 -15669229.59944  20946600.3134                   20946598.7854
 -19246890.55547 -14985796.03543  22921738.1094                   22921736.8484
 -21892279.71548 -17048146.24343  21082887.3364                   21082886.0864
 -10989036.34447  -8555508.33943  23063648.8834                   23063646.2934
 11  9 25  1 41 30.0000000  0  9G02G29G30G18G25G15G05G26G21
 -21737299.14146 -16926203.52752  23686059.9534                   23686055.7274
 -27784678.53948 -21640744.53145  20125105.8914                   20125104.5864
  -7228188.13346  -5621788.34153  23703742.6564                   23703742.8134
  -9953985.25047  -7746090.72043  22585537.9144                   22585535.6564
 -11873530.98846  -9240235.57653  23821900.7424                   23821904.2344
 -20193076.32448 -15724219.66344  20933171.0314                   20933169.7304
 -19179509.27047 -14933291.10243  22934560.0634                   22934559.0204
 -21910027.45348 -17061975.62744  21079509.7974                   21079508.7304
 -11070211.49647  -8618761.54343  23048201.5394                   23048198.7234
 11  9 25  1 42  0.0000000  0  9G02G29G30G18G25G15G05G26G21
 -21690291.44547 -16889574.15642  23695005.5944                   23695002.4774
 -27811752.47748 -21661841.11045  20119953.9304                   20119952.5234
  -7179196.82446  -5583613.33543  23713065.5084                   23713066.0234
 -10032800.64147  -7807505.26443  22570539.4064                   22570538.1174
 -11809489.34047  -9190332.84042  23834087.5394                   23834091.8134
 -20263138.95748 -15778813.88644  20919838.4454                   20919837.2344
 -19112077.39547 -14880746.78443  22947391.9304                   22947390.9024
 -21927077.42648 -17075261.29043  21076265.7034                   21076263.7074
 -11151409.61747  -8682032.71943  23032749.7424                   23032746.8674
 11  9 25  1 42 30.0000000  0  9G02G29G30G18G25G15G05G26G21
 -21643125.18747 -16852821.15043  23703980.7974                   23703978.0704
 -27838280.57048 -21682512.32845  20114905.8364                   20114904.0944
  -7130006.59446  -5545283.30253  23722426.4304                   23722428.2384
 -10111351.08247  -7868713.26343  22555591.3364                   22555590.4924
 -11745427.05547  -9140414.29253  23846278.0474                   23846280.3164
 -20332689.57448 -15833009.13244  20906602.9614                   20906601.6054
 -19044594.88747 -14828163.02843  22960232.9844                   22960232.2664
 -21943427.66047 -17088001.67843  21073154.0784                   21073152.6214
 -11232628.43747  -8745319.97743  23017294.4454                   23017292.0314
 11  9 25  1 43  0.0000000  0  9G02G29G30G18G25G15G05G26G21
 -21595800.547 6                  23712986.828
 -27864261.77748 -21702757.37945  20109961.6564                   20109959.8754
  -7080621.03546  -5506801.16842  23731823.5554                   23731826.4694
 -10189637.82047  -7929715.73843  22540694.2344                   22540692.3284
 -11681347.33247  -9090481.96152  23858471.7664                   23858475.2464
 -20401726.57848 -15886804.11844  20893466.1094                   20893465.0514
 -18977063.50047 -14775541.17043  22973084.0944                   22973082.6604
 -21959077.97748 -17100196.69644  21070176.1644                   21070174.8014
 -11313868.25847  -8808623.63643  23001834.7194                   23001831.6254
 11  9 25  1 43 30.0000000  0  9G02G29G30G18G25G15G05G26G21
 -21548316.94947 -16778944.55552  23722022.9534                   23722017.8014
 -27889694.91448 -21722575.39145  20105122.1254                   20105120.3524
  -7031042.88746  -5468168.85252  23741258.2114                   23741255.4384
 -10267660.14847  -7990512.22843  22525846.6254                   22525844.9534
 -11617252.85547  -9040538.13343  23870668.6564                   23870672.3164
 -20470247.32448 -15940196.85244  20880427.1724                   20880425.4344
 -18909484.78947 -14722882.38543  22985943.9064                   22985942.9494
 -21974027.89848 -17111845.92044  21067330.8524                   21067329.4614
 -11395128.19547  -8871943.00943  22986371.9694                   22986369.3634
 11  9 25  1 44  0.0000000  0  9G02G29G30G18G25G15G05G26G21
 -21500674.125 6                  23731088.922
 -27914579.31648 -21741965.83945  20100386.8834                   20100384.9304
  -6981275.18446  -5429388.88743  23750728.6334                   23750729.0594
 -10345417.77047  -8051102.43443  22511050.5394                   22511047.6724
 -11553146.41046  -8990584.87543  23882867.8364                   23882870.1294
 -20538249.78948 -15993185.74244  20867486.3984                   20867484.8094
 -18841860.29747 -14670188.02443  22998812.6644                   22998811.0434
 -21988277.05948 -17122949.16144  21064619.7504                   21064618.2974
 -11476407.62547  -8935277.44543  22970904.4844                   22970901.8284
 11  9 25  1 44 30.0000000  0  9G02G29G30G18G25G15G05G26G21
 -21452872.06246 -16704572.02853  23740184.9304                   23740178.7234
 -27938914.05948 -21760927.94445  20095755.8054                   20095753.8674
  -6931321.40247  -5390463.86752  23760234.8134                   23760234.4494
 -10422910.93047  -8111486.64043  22496303.6724                   22496301.5004
 -11489031.25046  -8940624.34853  23895068.3444                   23895067.7274
 -20605732.52748 -16045769.65544  20854645.2194                   20854643.4654
 -18774192.03147 -14617459.49043  23011689.4304                   23011689.2504
 -22001825.68048 -17133506.44043  21062041.1564                   21062039.3984
 -11557706.59847  -8998627.28043  22955433.8914                   22955430.5904
 11  9 25  1 45  0.0000000  0  9G02G29G30G18G25G15G05G26G21
 -21404910.523 6                  23749312.297
 -27962698.15248 -21779460.97945  20091230.1484                   20091228.4104
  -6881184.68747  -5351396.11153  23769775.0474                   23769780.4064
 -10500139.71547  -8171664.94243  22481607.3524                   22481605.9184
 -11424910.270 7                  23907269.906
 -20672693.31248 -16097946.83944  20841902.5704                   20841901.3834
 -18706481.38747 -14564697.91843  23024574.3444                   23024573.5904
 -22014673.35248 -17143517.63043  21059596.2584                   21059594.6604
 -11639024.47347  -9061991.62443  22939959.2814                   22939956.7464
 11  9 25  1 45 30.0000000  0  9G02G29G30G18G25G15G05G26G21
 -21356791.18746 -16629703.77752  23758468.4224                   23758464.7194
 -27985932.87548 -21797565.96745  20086808.5944                   20086806.5744
  -6830870.12147  -5312190.14953  23779350.5784                   23779350.4384
 -10577105.99247  -8231638.44243  22466960.8834                   22466959.6334
 -11360788.27347  -8840694.43053  23919471.3524                   23919473.6564
 -20739132.17648 -16149717.31244  20829259.9924                   20829258.2504
 -18638732.08247 -14511906.26443  23037466.3524                   23037465.2584
 -22026821.82048 -17152983.97043  21057284.7274                   21057282.9184
 -11720362.78147  -9125372.05643  22924480.9224                   22924478.4184
 11  9 25  1 46  0.0000000  0  9G02G29G30G18G25G15G05G26G21
 -21308514.090 6                  23767654.531
 -28008617.59048 -21815242.33345  20082491.4384                   20082490.4774
  -6780380.99647  -5272847.89852  23788957.8754                   23788957.4924
 -10653809.82047  -8291407.63643  22452364.4144                   22452362.6414
 -11296668.44147  -8790731.00953  23931673.6724                   23931675.0084
 -20805047.28548 -16201079.68644  20816716.4304                   20816715.3874
 -18570945.81246 -14459085.78843  23050365.9844                   23050364.1094
 -22038271.40648 -17161905.65344  21055105.8524                   21055104.1994
 -11801721.37147  -9188768.34343  22908998.8834                   22908995.5004
 11  9 25  1 46 30.0000000  0  9G02G29G30G18G25G15G05G26G21
 -19684659.40246 -15326743.99953  24076665.3444                   24076662.3054
 -26455329.82048 -20604888.21445  20378072.2194                   20378070.6724
  -5154301.19146  -4005772.95643  24098390.2424                   24098391.9774
  -9154827.72347  -7123369.61843  22737611.3054                   22737609.4104
  -9657134.75047  -7513172.19343  24243666.5164                   24243670.3594
 -19295013.73048 -15024430.12244  21104066.4774                   21104064.5784
 -16927705.46946 -13178638.69443  23363064.2504                   23363062.3164
 -20473600.35548 -15942681.45143  21352852.4454                   21352850.4024
 -10307675.96947  -8024576.98543  23193306.4454                   23193303.3134
 11  9 25  1 47  0.0000000  0  9G02G29G30G18G25G15G05G26G21
 -19636062.07046 -15288875.90553  24085912.0004                   24085910.8634
 -26476908.00048 -20621702.36145  20373966.0554                   20373964.5904
  -5103468.37147  -3966162.85243  24108063.7344                   24108066.3284
  -9231002.73847  -7182726.60643  22723115.6174                   22723113.4414
  -9593023.76247  -7463215.61342  24255866.1484                   24255869.6334
 -19359871.55948 -15074968.63444  21091724.2584                   21091722.8874
 -16859846.10246 -13125761.37543  23375977.5394                   23375976.8244
 -20483647.58248 -15950510.41343  21350940.8134                   21350938.7344
 -10389069.32447  -8088000.38943  23177817.6254                   23177815.3484
 11  9 25  1 47 30.0000000  0  9G02G29G30G18G25G15G05G26G21
 -19587304.30947 -15250882.77042  24095190.8054                   24095188.6484
 -26497931.74248 -20638084.48245  20369965.4454                   20369964.3594
  -5052468.43047  -3926422.86843  24117768.6564                   24117771.3164
  -9306913.19547  -7241877.38643  22708670.4304                   22708669.5634
  -9528921.45746  -7413265.76843  24268064.2894                   24268068.1054
 -19424197.87948 -15125093.00644  21079483.3134                   21079481.8484
 -16791952.28547 -13072857.06343  23388897.2114                   23388895.0944
 -20492993.46548 -15957792.85943  21349162.4924                   21349160.8244
 -10470479.49247  -8151436.72443  23162325.5784                   23162322.5514
 11  9 25  1 48  0.0000000  0  9G02G29G30G18G25G15G05G26G21
 -19538386.64846 -15212765.26652  24104498.6484                   24104496.3874
 -26518401.03148 -20654034.51645  20366070.5634                   20366068.8634
  -5001305.22347  -3886555.25852  24127505.1094                   24127506.9224
  -9382560.08647  -7300823.00243  22694275.0864                   22694273.7344
  -9464831.59047  -7363325.80443  24280259.8754                   24280265.6804
 -19487991.62948 -15174802.34044  21067343.8594                   21067342.2934
 -16724026.62547 -13019927.95843  23401822.8914                   23401820.7934
 -20501638.85948 -15964529.51444  21347517.2344                   21347515.1294
 -10551906.78147  -8214886.64343  23146830.8444                   23146827.9144
 11  9 25  1 48 30.0000000  0  9G02G29G30G18G25G15G05G26G21
 -19489310.16447 -15174524.03243  24113839.3674                   24113834.9654
 -26538316.81648 -20669553.30945  20362280.1954                   20362279.1174
  -4949983.23047  -3846563.92242  24137271.0474                   24137271.6174
  -9457944.52047  -7359563.95043  22679929.7664                   22679928.0744
  -9400758.23847  -7313398.52843  24292453.0314                   24292457.0004
 -19551252.05148 -15224096.09544  21055305.2734                   21055303.7344
 -16656071.88747 -12966976.24343  23414754.6254                   23414752.8054
 -20509585.20748 -15970721.44843  21346005.0474                   21346003.3524
 -10633351.84047  -8278350.12643  23131332.1414                   23131328.9454
 11  9 25  1 49  0.0000000  0  9G02G29G30G18G25G15G05G26G21
 -19440072.60947 -15136156.89054  24123208.4144                   24123206.8834
 -26557675.86748 -20684638.25345  20358596.4304                   20358594.4414
  -4898503.43046  -3806449.68643  24147066.5634                   24147068.2934
  -9533064.62947  -7418098.96743  22665635.2424                   22665633.1994
  -9336702.23047  -7263484.78643  24304642.8054                   24304647.2194
 -19613975.46548 -15272971.44644  21043369.7114                   21043367.8164
 -16588087.73047 -12914001.44543  23427690.9924                   23427690.6484
 -20516830.34848 -15976366.97744  21344625.9224                   21344624.7734
 -10714811.77747  -8341825.28043  23115831.0784                   23115828.2734
 11  9 25  1 49 30.0000000  0  9G02G29G30G18G25G15G05G26G21
 -19390675.27347 -15097665.41852  24132608.4694                   24132605.9304
 -26576478.78148 -20699289.85145  20355018.8674                   20355016.6484
  -4846870.37947  -3766216.49653  24156892.5004                   24156894.6604
  -9607921.77347  -7476429.14243  22651390.0084                   22651387.7664
  -9272667.79747  -7213587.75343  24316828.1724                   24316831.6334
 -19676161.34048 -15321427.94644  21031536.4144                   21031534.4654
 -16520076.71147 -12861005.93143  23440633.0474                   23440631.3444
 -20523375.79348 -15981467.32343  21343380.8134                   21343379.1844
 -10796287.55547  -8405312.87243  23100326.4844                   23100323.3444
 11  9 25  1 50  0.0000000  0  9G02G29G30G18G25G15G05G26G21
 -19341117.86347 -15059049.30743  24142038.5234                   24142037.0234
 -26594725.17248 -20713507.81345  20351546.2344                   20351544.4844
  -4795087.21147  -3725866.03753  24166746.5084                   24166748.2154
  -9682516.06647  -7534554.47343  22637194.8524                   22637192.4964
  -9208657.65647  -7163709.68243  24329009.0164                   24329012.8754
 -19737807.78548 -15369464.09644  21019804.9844                   21019803.3754
 -16452040.46147 -12807990.67743  23453579.7734                   23453578.7194
 -20529221.83648 -15986022.57544  21342267.7584                   21342266.8324
 -10877778.83647  -8468812.44143  23084818.6644                   23084816.2464
 11  9 25  1 50 30.0000000  0  9G02G29G30G18G25G15G05G26G21
 -19291398.32447 -15020306.75043  24151499.6094                   24151497.0514
 -26612412.93748 -20727290.45445  20348180.4224                   20348178.6564
  -4743155.22747  -3685399.20453  24176629.5314                   24176629.9734
  -9756845.33247  -7592473.19743  22623050.6254                   22623048.7934
  -9144672.93047  -7113851.46943  24341184.7974                   24341189.5474
 -19798911.30948 -15417077.17244  21008177.1334                   21008175.0394
 -16383978.61747 -12754955.34643  23466531.8134                   23466529.8284
 -20534366.53548 -15990031.41343  21341288.8754                   21341287.1604
 -10959283.13747  -8532322.30143  23069309.2274                   23069307.0204
 11  9 25  1 51  0.0000000  0  9G02G29G30G18G25G15G05G26G21
 -19241518.52347 -14981439.35542  24160991.5784                   24160989.3594
 -26629543.12148 -20740638.63045  20344920.8524                   20344918.8954
  -4691079.29747  -3644820.84353  24186539.1334                   24186542.3054
  -9830911.48047  -7650186.95443  22608956.3364                   22608955.6214
  -9080718.23447  -7064016.62543  24353355.0554                   24353359.4024
 -19859472.02348 -15464267.27144  20996652.7974                   20996651.8284
 -16315894.49647 -12701902.94643  23479487.6884                   23479487.3324
 -20538812.23048 -15993495.58544  21340443.5864                   21340441.2344
 -11040801.75047  -8595843.30343  23053796.5704                   23053793.7274
 11  9 25  1 51 30.0000000  0  9G02G29G30G18G25G15G05G26G21
 -19191476.38347 -14942445.70153  24170514.3054                   24170512.4304
 -26646113.00048 -20753550.20945  20341767.5554                   20341765.9024
  -4638860.812 6                  24196475.750
  -9904713.02747  -7707694.60243  22594912.0474                   22594910.1914
  -9016794.52747  -7014205.92153  24365518.7424                   24365520.4804
 -19919486.46548 -15511031.72144  20985232.8204                   20985231.5124
 -16247788.05147 -12648832.95843  23492447.9844                   23492448.0164
 -20542557.20748 -15996413.72443  21339730.2814                   21339728.9734
 -11122332.33647  -8659373.64843  23038281.8914                   23038279.3014
 11  9 25  1 52  0.0000000  0  9G02G29G30G18G25G15G05G26G21
 -19141274.03147 -14903326.87952  24180067.8914                   24180065.7464
 -26662124.70748 -20766026.83945  20338720.8524                   20338719.0704
  -4586505.379 6                  24206437.914
  -9978252.52047  -7764998.02443  22580917.9224                   22580915.4024
  -8952907.11347  -6964423.38053  24377676.4924                   24377679.6994
 -19978955.16448 -15557370.92944  20973916.0704                   20973914.6644
 -16179662.61347 -12595748.18043  23505411.6174                   23505410.5554
 -20545604.30548 -15998788.05543  21339150.8524                   21339148.3834
 -11203876.88747  -8722914.73843  23022764.5634                   23022762.1374
 11  9 25  1 52 30.0000000  0  9G02G29G30G18G25G15G05G26G21
 -19090910.18446 -14864082.19542  24189651.4144                   24189648.7584
 -26677576.19548 -20778066.94745  20335780.1094                   20335778.9024
  -4534014.836 6                  24216427.352
 -10051528.71147  -7822096.21543  22566973.8914                   22566971.4964
  -8889057.59447  -6914669.60155  24389826.5864                   24389825.7304
 -20037875.41848 -15603282.74644  20962703.7194                   20962702.5904
 -16111518.79747 -12542649.10743  23518378.5864                   23518376.6174
 -20547952.46948 -16000617.70643  21338703.6484                   21338701.6374
 -11285433.44147  -8786465.31643  23007245.0004                   23007242.1564
 11  9 25  1 53  0.0000000  0  9G02G29G30G18G25G15G05G26G21
 -19040382.66047 -14824709.93353  24199267.2424                   24199264.9184
 -26692465.27348 -20789668.80545  20332946.8834                   20332945.4774
  -4481390.46546  -3481426.94152  24226441.0944                   24226442.6454
 -10124539.71547  -7878987.73043  22553080.4694                   22553078.1454
  -8825246.848 6                  24401970.008
 -20096243.46948 -15648764.29544  20951596.7424                   20951595.6374
 -16043356.348 6                  23531349.594
 -20549600.33648 -16001901.78243  21338390.3834                   21338388.5434
 -11366999.23047  -8850022.87943  22991723.3674                   22991720.2384
 11  9 25  1 53 30.0000000  0  9G02G29G30G18G25G15G05G26G21
 -18989692.17246 -14785211.16842  24208913.3754                   24208909.2344
 -26706792.12148 -20800832.54945  20330220.5784                   20330218.6334
  -4428635.844 6                  24236479.797
 -10197286.23847  -7935673.26743  22539237.0864                   22539233.9224
  -8761478.21946  -6815257.13752  24414104.0234                   24414111.5124
 -20154058.28548 -15693814.75244  20940594.9694                   20940593.0234
 -15975176.97347 -12436408.65853  23544324.3284                   23544322.5354
 -20550548.67648 -16002640.66243  21338209.4064                   21338207.4304
 -11448574.50047  -8913588.04143  22976199.6254                   22976197.6214
 11  9 25  1 54  0.0000000  0  9G02G29G30G18G25G15G05G26G21
 -18938838.45746 -14745584.98153  24218589.3524                   24218586.4924
 -26720556.01248 -20811557.65345  20327601.3524                   20327599.8874
  -4375754.07846  -3399112.75253  24246542.6954                   24246542.6764
 -10269768.45347  -7992152.83643  22525444.1024                   22525441.4534
  -8697754.410 6                  24426230.500
 -20211318.26648 -15738432.88844  20929698.8204                   20929696.6374
 -15906981.82447 -12383269.67443  23557301.3914                   23557299.7274
 -20550797.89848 -16002834.89343  21338162.2974                   21338160.9384
 -11530158.37547  -8977159.85643  22960675.3444                   22960672.0314
 11  9 25  1 54 30.0000000  0  9G02G29G30G18G25G15G05G26G21
 -18887820.55946 -14705830.65242  24228297.3054                   24228294.8094
 -26733756.05948 -20821843.40745  20325089.5864                   20325087.8874
  -4322747.80146  -3357809.41543  24256628.9304                   24256630.8164
 -10341985.70347  -8048425.94743  22511701.6954                   22511699.0634
  -8634077.648 6                  24438348.344
 -20268021.32048 -15782617.04344  20918908.5004                   20918906.8204
 -15838771.99247 -12330119.04143  23570281.1724                   23570280.2934
 -20550347.88348 -16002484.17644  21338247.9534                   21338246.4654
 -11611750.08247  -9040737.72843  22945148.4614                   22945145.9774
 11  9 25  1 55  0.0000000  0  9G02G29G30G18G25G15G05G26G21
 -18836639.20747 -14665949.03142  24238038.3594                   24238034.3914
 -26746392.43048 -20831689.91045  20322684.8444                   20322683.8014
  -4269620.72746  -3316411.58652  24266739.4844                   24266735.5634
 -10413939.15247  -8104493.44743  22498009.3444                   22498006.6174
  -8570451.355 6                  24450455.195
 -20324166.54348 -15826366.52244  20908224.3674                   20908222.1374
 -15770549.70347 -12276958.83843  23583263.6174                   23583262.4224
 -20549199.90648 -16001589.63243  21338466.1884                   21338464.5434
 -11693349.23447  -9104321.42343  22929620.6644                   22929618.2664
 11  9 25  1 55 30.0000000  0  9G02G29G30G18G25G15G05G26G21
 -18785293.863 6                  24247807.539
 -26758464.46548 -20841096.66745  20320387.7114                   20320386.2074
  -4216375.64147  -3274921.93953  24276872.3594                   24276871.0474
 -10485628.43047  -8160355.12343  22484367.1644                   22484365.5314
  -8506878.051 6                  24462553.117
 -20379752.05948 -15869679.89944  20897646.4694                   20897644.4344
 -15702315.98847 -12223789.60243  23596247.7734                   23596245.8794
 -20547354.10548 -16000151.28943  21338817.4774                   21338815.7194
 -11774954.92647  -9167910.15243  22914092.0554                   22914088.6684
 11  9 25  1 56  0.0000000  0  9G02G29G30G18G25G15G05G26G21
 -18733785.18046 -14585803.13352  24257609.6094                   24257605.7194
 -26769972.55148 -20850063.99445  20318197.7344                   20318195.9924
  -4163016.39146  -3233343.27243  24287025.9534                   24287026.5314
 -10557054.13747  -8216011.45943  22470775.7504                   22470773.0744
  -8443361.05546  -6567372.74253  24474640.2274                   24474646.2734
 -20434776.98048 -15912556.38344  20887176.1564                   20887174.5864
 -15634072.87947 -12170613.20343  23609233.9384                   23609233.5394
 -20544811.72348 -15998170.18443  21339300.8444                   21339300.0514
 -11856567.43747  -9231504.30943  22898561.8204                   22898558.4614
 11  9 25  1 56 30.0000000  0  9G02G29G30G18G25G15G05G26G21
 -18682109.820 6                  24267442.891
 -26780913.03548 -20858589.04745  20316115.7664                   20316113.9654
  -4109542.80146  -3191675.73343  24297201.4534                   24297202.6024
 -10628213.57047  -8271460.21843  22457233.8054                   22457232.2114
  -8379900.03947  -6517922.68843  24486716.0704                   24486721.3914
 -20489236.72348 -15954992.48344  20876812.5394                   20876810.5204
 -15565818.73447 -12117428.18743  23622222.4144                   23622221.0594
 -20541570.29348 -15995644.35743  21339918.1484                   21339915.8554
 -11938182.93747  -9295100.70943  22883030.9144                   22883027.8674
 11  9 25  1 57  0.0000000  0  9G02G29G30G18G25G15G05G26G21
 -18630268.473 6                  24277307.664
 -26791286.52048 -20866672.24245  20314141.7274                   20314139.9534
  -4055958.91047  -3149921.95752  24307398.1724                   24307398.6484
 -10699107.59447  -8326702.28043  22443743.3984                   22443740.3554
  -8316498.53147  -6468518.88443  24498781.2504                   24498785.6414
 -20543130.69148 -15996987.76144  20866556.6334                   20866555.3014
 -15497555.41447 -12064236.03643  23635212.3364                   23635212.1254
 -20537631.12948 -15992574.90843  21340667.7664                   21340666.6374
 -12019801.48847  -9358699.58643  22867498.8914                   22867495.3524
 11  9 25  1 57 30.0000000  0  9G02G29G30G18G25G15G05G26G21
 -18578262.50046 -14464616.62152  24287205.0944                   24287204.9104
 -26801094.12948 -20874314.53145  20312275.4384                   20312273.9064
  -4002269.22747  -3108085.70643  24317615.2894                   24317616.2344
 -10769737.69547  -8381738.70643  22430302.6954                   22430300.0594
  -8253160.68747  -6419164.69143  24510834.0634                   24510836.6254
 -20596458.60548 -16038541.90044  20856408.4774                   20856406.1844
 -15429285.97746 -12011038.92543  23648203.7194                   23648201.9384
 -20532996.09047 -15988963.07543  21341549.4844                   21341547.7034
 -12101423.64847  -9422301.09443  22851966.3754                   22851963.9844
 11  9 25  1 58  0.0000000  0  9G02G29G30G18G25G15G05G26G21
 -18526090.750 6                  24297131.852
 -26810334.38348 -20881514.70145  20310517.1804                   20310515.1684
  -3948475.69547  -3066168.98443  24327851.3674                   24327854.4104
 -10840103.09847  -8436568.84743  22416912.2584                   22416909.7624
  -8189888.09047  -6369861.35443  24522874.7664                   24522878.2304
 -20649218.21948 -16079653.27244  20846369.0474                   20846366.5204
 -15361010.50446 -11957837.41243  23661196.2664                   23661195.2544
 -20527665.00847 -15984808.99143  21342563.9454                   21342562.9454
 -12183047.69547  -9485904.22243  22836433.9694                   22836431.7734
 11  9 25  1 58 30.0000000  0  9G02G29G30G18G25G15G05G26G21
 -18473755.195 6                  24307091.578
 -26819009.07048 -20888274.21245  20308866.0394                   20308864.5704
  -3894583.38747  -3024174.84852  24338107.5554                   24338105.2344
 -10910205.94947  -8491194.28543  22403572.1334                   22403569.3284
  -8126685.40247  -6320612.60843  24534901.8754                   24534905.4844
 -20701409.95348 -16120322.10044  20836437.1564                   20836435.2504
 -15292732.45346 -11904633.70743  23674189.0864                   23674188.1254
 -20521640.77347 -15980114.71143  21343710.4614                   21343708.5084
 -12264675.04347  -9549509.84543  22820900.4064                   22820897.5664
 11  9 25  1 59  0.0000000  0  9G02G29G30G18G25G15G05G26G21
 -18421252.266 6                  24317083.109
 -26827114.44548 -20894590.06845  20307323.7344                   20307322.4964
  -3840591.98446  -2982103.53743  24348381.1884                   24348382.2704
 -10980042.89547  -8545612.58143  22390282.6954                   22390279.4104
  -8063551.99647  -6271417.78043  24546915.3754                   24546919.3794
 -20753029.00047 -16160544.70345  20826614.2344                   20826613.0124
 -15224449.51246 -11851426.21443  23687182.9384                   23687181.3054
 -20514920.49247 -15974878.11643  21344989.2974                   21344987.6684
 -12346301.25047  -9613114.65343  22805367.6254                   22805364.9734
 11  9 25  1 59 30.0000000  0  9G02G29G30G18G25G15G05G26G21
 -18368580.93046 -14301227.25852  24327106.9224                   24327105.1954
 -26834649.46548 -20900461.50245  20305889.8754                   20305888.4344
  -3786503.58646  -2939956.73052  24358673.6564                   24358673.7274
 -11049613.35247  -8599823.34043  22377044.0864                   22377040.8954
  -8000489.46547  -6222278.21943  24558916.2734                   24558919.2814
 -20804073.08647 -16200319.28544  20816900.8054                   20816899.3714
 -15156162.02746 -11798215.21043  23700177.6804                   23700175.8714
 -20507504.14147 -15969099.12743  21346400.4384                   21346398.3554
 -12427924.92647  -9676717.45343  22789834.8674                   22789832.0664
 11  9 25  2  0  0.0000000  0  9G02G29G30G18G25G15G05G26G21
 -18315743.67246 -14260055.38543  24337161.7274                   24337159.0434
 -26841616.42248 -20905890.28745  20304564.0084                   20304562.5824
  -3732323.85246  -2897738.44243  24368983.4534                   24368985.0984
 -11118920.08647  -8653828.44643  22363854.8674                   22363853.1684
  -7937503.25046  -6173197.89253  24570901.8204                   24570903.5784
 -20854543.52347 -16239646.86344  20807296.5554                   20807294.3014
 -15087874.02346 -11745003.76343  23713172.2114                   23713169.6844
 -20499394.97347 -15962780.34243  21347943.5554                   21347941.9774
 -12509548.16447  -9740320.00643  22774302.7424                   22774299.4184
 11  9 25  2  0 30.0000000  0  9G02G29G30G18G25G15G05G26G21
 -18262737.277 6                  24347247.867
 -26848012.27348 -20910874.06645  20303347.0164                   20303345.4774
  -3678052.84447  -2855449.77353  24379312.0394                   24379313.7274
 -11187960.09447  -8707625.89143  22350716.9304                   22350714.5824
  -7874592.840 6                  24582873.102
 -20904435.88347 -16278523.99744  20797802.5944                   20797800.8794
 -15019583.809 6                  23726167.742
 -20490590.61347 -15955919.71243  21349618.7894                   21349616.8834
 -12591166.93747  -9803918.81743  22758771.1804                   22758768.1844
 11  9 25  2  1  0.0000000  0  9G02G29G30G18G25G15G05G26G21
 -18209563.93046 -14177318.11353  24357364.6564                   24357363.8874
 -26853838.80548 -20915414.21245  20302238.1564                   20302236.3524
  -3623695.93446  -2813092.74652  24389655.2424                   24389659.1024
 -11256735.84447  -8761217.30043  22337629.8284                   22337627.2384
  -7811763.191 6                  24594828.789
 -20953751.27047 -16316951.51844  20788418.0314                   20788415.9224
 -14951294.85546 -11638578.60453  23739162.3444                   23739159.6524
 -20481094.50847 -15948520.12744  21351425.8204                   21351424.2304
 -12672782.52747  -9867515.26543  22743240.2734                   22743237.4844
 11  9 25  2  1 30.0000000  0  8G29G30G18G25G15G05G26G21
 -26859095.15248 -20919510.06645  20301238.1484                   20301235.7074
  -3569254.852 6                  24400015.477
 -11325246.63347  -8814602.24443  22324592.2814                   22324591.0514
  -7749015.676 6                  24606769.883
 -21002486.94947 -16354927.32844  20779143.7664                   20779141.4964
 -14883007.10946 -11585367.24543  23752157.2034                   23752154.8754
 -20470906.39847 -15940581.31243  21353364.8444                   21353363.1484
 -12754393.03947  -9931107.90543  22727710.2274                   22727707.7584
 11  9 25  2  2  0.0000000  0  8G29G30G18G25G15G05G26G21
 -26863781.34448 -20923161.62945  20300346.2814                   20300344.5904
  -3514733.004 6                  24410390.109
 -11393492.57447  -8867780.77843  22311605.2344                   22311603.0514
  -7686353.297 5                  24618693.352
 -21050642.27047 -16392450.90844  20769980.1564                   20769978.1954
 -14814722.46147 -11532158.39643  23765151.4924                   23765148.9844
 -20460027.42647 -15932104.12443  21355434.9694                   21355433.3244
 -12835997.78547  -9994695.94143  22712181.2734                   22712178.8674
 11  9 25  2  2 30.0000000  0  8G29G30G18G25G15G05G26G21
 -26867890.25048 -20926363.35845  20299564.4144                   20299562.9924
  -3460126.391 6                  24420780.805
 -11461467.17647  -8920748.06443  22298670.4924                   22298668.5864
  -7623771.645 6                  24630602.438
 -21098208.98848 -16429515.85244  20760928.5394                   20760926.8554
 -14746434.65247 -11478947.08242  23778146.8134                   23778145.0164
 -20448451.61747 -15923084.10644  21357637.7274                   21357635.4264
 -12917589.23847 -10058273.64143  22696655.0864                   22696652.2624
 11  9 25  2  3  0.0000000  0  8G29G30G18G25G15G05G26G21
 -26871417.65648 -20929111.97945  20298893.1484                   20298891.4184
  -3405434.008 5                  24431188.617
 -11529166.80947  -8973500.97343  22285787.1334                   22285784.5084
  -7561269.348 6                  24642496.898
 -21145181.94947 -16466118.11744  20751990.1804                   20751987.9534
 -14678141.24647 -11425731.51043  23791142.2974                   23791140.2304
 -20436175.63347 -15913518.34843  21359973.7734                   21359972.4264
 -12999162.80547 -10121837.36843  22681132.1564                   22681129.3794
 11  9 25  2  3 30.0000000  0  8G29G30G18G25G15G05G26G21
 -26874367.18748 -20931410.32145  20298331.6804                   20298329.9144
  -3350662.418 5                  24441611.805
 -11596595.03947  -9026042.29043  22272956.1724                   22272953.9454
  -7498852.42647  -5831398.97553  24654374.1484                   24654348.5204
 -21191563.34448 -16502259.41144  20743163.5474                   20743161.6564
 -14609846.75847 -11372514.94643  23804138.1024                   23804136.8094
 -20423204.37547 -15903410.84943  21362442.2274                   21362440.4414
 -13080720.78147 -10185388.98443  22665611.8524                   22665609.5274
 11  9 25  2  4  0.0000000  0  8G29G30G18G25G15G05G26G21
 -26876740.08248 -20933259.30545  20297880.3134                   20297878.7384
  -3295815.918 6                  24452048.539
 -11663753.32047  -9078373.33243  22260176.5164                   22260174.6954
  -7436524.96947  -5782832.54853  24666235.0944                   24666237.8054
 -21237353.36748 -16537939.92044  20734449.9064                   20734448.2934
 -14541553.66847 -11319299.60343  23817133.8914                   23817132.2664
 -20409539.94547 -15892763.23043  21365042.2814                   21365040.3164
 -13162263.71947 -10248928.88343  22650094.8594                   22650092.1094
 11  9 25  2  4 30.0000000  0  8G29G30G18G25G15G05G26G21
 -26878539.33648 -20934661.31845  20297538.1564                   20297536.3134
  -3240900.426 6                  24462498.500
 -11730645.10547  -9130496.81043  22247447.1564                   22247444.7304
  -7374292.27747  -5734339.42953  24678077.9304                   24678082.3634
 -21282553.44548 -16573160.74444  20725848.8284                   20725846.3484
 -14473266.17247 -11266088.55143  23830128.6414                   23830127.3054
 -20395186.43747 -15881578.63343  21367773.7344                   21367772.8324
 -13243793.75047 -10312458.74843  22634580.1334                   22634578.2544
 11  9 25  2  5  0.0000000  0  8G29G30G18G25G15G05G26G21
 -26879766.59048 -20935617.61845  20297304.1024                   20297303.1684
  -3185920.840 6                  24472961.492
 -11797272.34447  -9182414.13543  22234768.6414                   22234766.3164
  -7312158.72347  -5685923.95043  24689901.2584                   24689905.6564
 -21327164.51648 -16607922.57644  20717359.4694                   20717357.7584
 -14404987.43747 -11212884.37243  23843121.1334                   23843120.4264
 -20380146.73447 -15869859.43543  21370635.7034                   21370634.4774
 -13325311.59047 -10375979.17443  22619067.5474                   22619065.1254
 11  9 25  2  5 30.0000000  0  8G29G30G18G25G15G05G26G21
 -26880420.19548 -20936126.92645  20297179.8594                   20297178.6604
  -3130878.187 6                  24483435.164
 -11863633.03547  -9234123.69343  22222140.7504                   22222137.1994
  -7250125.08647  -5637586.10043  24701706.1644                   24701710.3204
 -21371183.90248 -16642223.37644  20708982.8284                   20708980.8524
 -14336716.49246 -11159686.27742  23856111.9224                   23856112.6094
 -20364420.37147 -15857605.10543  21373628.3364                   21373627.1414
 -13406814.87147 -10439488.13543  22603558.0314                   22603554.2504
 11  9 25  2  6  0.0000000  0  8G29G30G18G25G15G05G26G21
 -26880502.37548 -20936190.93545  20297164.6094                   20297162.5514
  -3075777.67646  -2386149.96553  24493921.1334                   24493919.5744
 -11929730.02747  -9285627.76043  22209562.6174                   22209559.3364
  -7188196.04346  -5589329.80743  24713490.3834                   24713495.4454
 -21414612.38748 -16676063.69345  20700718.5784                   20700716.9734
 -14268456.71147 -11106496.83043  23869101.9304                   23869100.5004
 -20348010.43748 -15844818.10043  21376751.1414                   21376749.6724
 -13488304.60947 -10502986.56943  22588051.4304                   22588048.3594
 11  9 25  2  6 30.0000000  0  7G29G30G18G15G05G26G21
 -26880014.52748 -20935810.77745  20297257.0314                   20297255.5594
  -3020623.80546  -2343173.09153  24504415.5864                   24504412.4384
 -11995565.13747  -9336927.78543  22197034.7114                   22197031.5164
 -21457450.59848 -16709444.08744  20692566.9064                   20692564.7814
 -14200210.70346 -11053318.02443  23882089.2814                   23882088.0744
 -20330919.79348 -15831500.65443  21380003.3754                   21380001.1994
 -13569781.62147 -10566475.21143  22572546.8364                   22572543.8134
 11  9 25  2  7  0.0000000  0  7G29G30G18G15G05G26G21
 -26878953.84048 -20934984.26445  20297458.9924                   20297457.1724
  -2965416.29346  -2300154.17642  24514922.1174                   24514919.8244
 -12061135.14547  -9388021.23043  22184556.9144                   22184553.4964
 -21499694.38748 -16742361.28844  20684528.0784                   20684526.4264
 -14131976.18746 -11000148.33153  23895073.3524                   23895071.9144
 -20313146.12148 -15817651.07043  21383385.5634                   21383384.2584
 -13651241.58248 -10629950.37443  22557045.3594                   22557041.8554
 11  9 25  2  7 30.0000000  0  7G29G30G18G15G05G26G21
 -26877317.28948 -20933709.03745  20297770.8524                   20297768.5824
  -2910155.05946  -2257093.76343  24525437.3674                   24525436.7664
 -12126437.39147  -9438906.13643  22172130.2814                   22172127.4694
 -21541339.50448 -16774811.99344  20676603.2734                   20676600.7814
 -14063751.35947 -10946986.17843  23908056.2194                   23908052.8674
 -20294687.73048 -15803267.91443  21386898.0004                   21386895.6094
 -13732680.66447 -10693409.32843  22541547.9454                   22541544.8754
 11  9 25  2  8  0.0000000  0  7G29G30G18G15G05G26G21
 -26875100.33648 -20931981.52945  20298192.0004                   20298190.1914
  -2854838.59447  -2213989.64142  24535963.8524                   24535963.7304
 -12191467.72347  -9489579.03443  22159755.4454                   22159752.4924
 -21582380.58248 -16806791.99845  20668793.1414                   20668791.4344
 -13995532.94146 -10893829.03343  23921038.3134                   23921036.4534
 -20275541.72348 -15788348.89443  21390541.2894                   21390539.9414
 -13814093.47747 -10756847.81443  22526055.4924                   22526052.0514
 11  9 25  2  8 30.0000000  0  7G29G30G18G15G05G26G21
 -26872306.42648 -20929804.46345  20298723.7814                   20298721.9384
  -2799472.88747  -2170847.69743  24546499.3984                   24546499.8834
 -12256229.69547  -9540042.86143  22147431.5704                   22147428.6294
 -21622819.74648 -16838303.00544  20661097.5944                   20661095.7074
 -13927325.09446 -10840680.05142  23934017.4384                   23934016.6724
 -20255712.18448 -15772897.28643  21394314.6414                   21394312.5554
 -13895482.03547 -10820267.49943  22510568.1094                   22510563.9264
 11  9 25  2  9  0.0000000  0  7G29G30G18G15G05G26G21
 -26868937.42248 -20927179.25545  20299365.1644                   20299363.4964
  -2744062.65247  -2127670.66443  24557043.4924                   24557044.7934
 -12320725.26648  -9590299.06143  22135158.4774                   22135155.4494
 -21662657.90248 -16869345.70444  20653516.8444                   20653514.7814
 -13859130.37547 -10787541.41853  23946994.7894                   23946991.4224
 -20235202.33248 -15756915.61043  21398217.5474                   21398216.3714
 -13976846.63747 -10883668.41343  22495084.5944                   22495081.2384
 11  9 25  2  9 30.0000000  0  7G29G30G18G15G05G26G21
 -26864994.66448 -20924106.95745  20300115.2734                   20300113.6414
  -2688611.85547  -2084462.26253  24567595.6954                   24567595.8364
 -12384955.64148  -9640348.62043  22122935.7424                   22122933.5004
 -21701895.00048 -16899920.01144  20646050.3834                   20646048.9454
 -13790951.23046 -10734414.65543  23959968.7034                   23959966.6054
 -20214014.49247 -15740405.58743  21402249.6484                   21402247.6054
 -14058188.07847 -10947051.30843  22479605.5554                   22479602.8134
 11  9 25  2 10  0.0000000  0  7G29G30G18G15G05G26G21
 -26860482.25048 -20920590.78145  20300973.9774                   20300972.6374
  -2633127.18446  -2041227.49143  24578153.8054                   24578153.2854
 -12448924.89548  -9690194.80743  22110762.8204                   22110759.9024
 -21740534.03948 -16930028.36144  20638697.9144                   20638695.0474
 -13722792.28146 -10681303.78853  23972939.2114                   23972936.8834
 -20192154.20348 -15723371.56443  21406409.2584                   21406407.5084
 -14139508.45747 -11010417.81943  22464130.7504                   22464128.2504
 11  9 25  2 10 30.0000000  0  7G29G30G18G15G05G26G21
 -26855398.13748 -20916629.14445  20301941.4454                   20301939.8754
  -2577609.17646  -1997966.59343  24588718.7664                   24588719.3014
 -12512630.78547  -9739835.59943  22098639.8754                   22098637.0204
 -21778571.78948 -16959668.10944  20631459.3364                   20631457.1374
 -13654652.18047 -10628207.79643  23985905.1414                   23985902.9844
 -20169619.91847 -15705812.33243  21410697.8284                   21410696.0434
 -14220804.81247 -11073765.57043  22448660.8054                   22448658.1294
 11  9 25  2 11  0.0000000  0  7G29G30G18G15G05G26G21
 -26849745.19548 -20912224.26445  20303017.1174                   20303016.0274
  -2522063.590 6                  24599288.859
 -12576076.78947  -9789274.07443  22086566.5314                   22086563.6844
 -21816010.35248 -16988841.02244  20624335.0704                   20624332.5984
 -13586534.47347 -10575128.89453  23998868.1644                   23998869.9884
 -20146416.14547 -15687731.45743  21415112.9774                   21415111.1884
 -14302079.25848 -11137096.30843  22433194.6884                   22433191.9654
 11  9 25  2 11 30.0000000  0  7G29G30G18G15G05G26G21
 -26843523.90648 -20907376.47945  20304201.1174                   20304199.6094
  -2466493.434 6                  24609863.641
 -12639263.28148  -9838510.16543  22074542.3524                   22074540.2194
 -21852849.37948 -17017546.68244  20617324.7894                   20617323.0274
 -13518440.65646 -10522069.21053  24011826.0164                   24011826.5124
 -20122544.60947 -15669130.29643  21419655.9144                   21419654.0394
 -14383331.05147 -11200409.25543  22417732.7974                   22417729.8094
 11  9 25  2 12  0.0000000  0  7G29G30G18G15G05G26G21
 -26836735.17648 -20902086.53245  20305493.1024                   20305491.5124
  -2410902.027 5                  24620441.828
 -12702190.60548  -9887544.39743  22062567.6174                   22062564.9224
 -21889087.72748 -17045784.34145  20610428.7894                   20610426.4574
 -13450372.20346 -10469028.58043  24024779.0474                   24024778.1524
 -20098007.23447 -15650010.20043  21424324.6954                   21424322.5314
 -14464558.91847 -11263703.67343  22402275.5554                   22402272.8244
 11  9 25  2 12 30.0000000  0  7G29G30G18G15G05G26G21
 -26829378.91448 -20896354.38945  20306892.9064                   20306891.1174
  -2355291.91845  -1824732.73852  24631023.9694                   24631017.2774
 -12764859.43747  -9936377.12643  22050642.1174                   22050640.5554
 -21924724.74248 -17073553.41844  20603647.1174                   20603645.4064
 -13382329.59446 -10416008.16743  24037727.0164                   24037725.5314
 -20072805.09447 -15630372.10943  21429120.8444                   21429118.9024
 -14545761.57047 -11326978.40843  22386823.7034                   22386819.9574
 11  9 25  2 13  0.0000000  0  7G29G30G18G15G05G26G21
 -26821454.85548 -20890179.79245  20308400.6174                   20308399.1094
  -2299665.508 5                  24641609.508
 -12827269.57447  -9985008.37043  22038765.7584                   22038763.2704
 -21959759.30548 -17100853.03644  20596980.5164                   20596977.7584
 -13314313.37546 -10363008.66753  24050669.9694                   24050667.8524
 -20046939.39847 -15610217.02443  21434043.0314                   21434040.8834
 -14626937.43047 -11390232.20443  22371376.3134                   22371372.8204
 11  9 25  2 13 30.0000000  0  7G29G30G18G15G05G26G21
 -26812965.19548 -20883564.46145  20310016.3204                   20310015.1094
  -2244026.992 5                  24652197.914
 -12889422.50047 -10033439.09943  22026938.3834                   22026936.1844
 -21994191.71948 -17127683.45044  20590427.9924                   20590426.3714
 -13246325.57846 -10310031.39143  24063607.5864                   24063605.8554
 -20020412.86347 -15589546.93243  21439090.8674                   21439088.2584
 -14708086.85247 -11453465.49243  22355933.7274                   22355930.2974
 11  9 25  2 14  0.0000000  0  7G29G30G18G15G05G26G21
 -26803910.40648 -20876508.78045  20311739.0164                   20311737.7504
  -2188380.020 6                  24662786.836
 -12951319.11747 -10081670.21643  22015159.7734                   22015157.2504
 -22028022.48448 -17154045.05644  20583990.2344                   20583988.0274
 -13178368.23846 -10257077.38742  24076539.7424                   24076537.7074
 -19993228.15647 -15568364.07843  21444263.6094                   21444262.1764
 -14789209.53147 -11516677.95843  22340496.6954                   22340493.0784
 11  9 25  2 14 30.0000000  0  7G29G30G18G15G05G26G21
 -26794291.18048 -20869013.24245  20313569.4304                   20313567.7704
  -2132727.160 5                  24673376.648
 -13012959.71947 -10129701.77643  22003430.2504                   22003427.4224
 -22061250.77347 -17179937.19644  20577667.1024                   20577664.4064
 -13110442.00846 -10204147.99642  24089464.6334                   24089463.4144
 -19965386.46547 -15546669.21243  21449561.7114                   21449559.4494
 -14870304.39847 -11579868.72643  22325064.8284                   22325060.8554
 11  9 25  2 15  0.0000000  0  7G29G30G18G15G05G26G21
 -26784106.39148 -20861077.04945  20315508.0004                   20315506.0084
  -2077069.711 6                  24683967.477
 -13074343.14547 -10177532.95743  21991749.2814                   21991746.8984
 -22093874.04348 -17205357.91044  20571459.1414                   20571457.1564
 -13042546.10946 -10151242.20253  24102385.8284                   24102384.5784
 -19936888.02047 -15524462.66043  21454984.7504                   21454983.6094
 -14951368.77347 -11643035.68343  22309638.6094                   22309635.4414
 11  9 25  2 15 30.0000000  0  7G29G30G18G15G05G26G21
 -26773358.33648 -20852701.95845  20317552.9384                   20317551.5904
  -2021412.254 6                  24694559.813
 -13135471.44948 -10225165.34843  21980116.5784                   21980114.1884
 -22125893.34048 -17230307.95144  20565365.6954                   20565363.9264
 -12974683.17246 -10098361.67743  24115299.4924                   24115296.9844
 -19907736.11347 -15501746.82043  21460532.1954                   21460530.4844
 -15032402.68747 -11706178.97143  22294218.4614                   22294214.5904
 11  9 25  2 16  0.0000000  0  7G29G30G18G15G05G26G21
 -26762046.61748 -20843887.61145  20319705.6724                   20319703.9614
  -1965756.883 6                  24705150.656
 -13196344.31247 -10272598.62543  21968533.1564                   21968530.5084
 -22157307.80948 -17254786.76044  20559387.9774                   20559385.9884
 -12906853.53546 -10045507.62943  24128207.0004                   24128206.3554
 -19877931.80547 -15478522.72743  21466203.5394                   21466202.5354
 -15113404.91447 -11769297.56243  22278804.3444                   22278801.3984
 11  9 25  2 16 30.0000000  0  7G29G30G18G15G05G26G21
 -26750173.91848 -20834636.14545  20321964.9844                   20321963.0044
  -1910108.414 6                  24715740.656
 -13256964.19147 -10319834.85043  21956997.0004                   21956994.9184
 -22188118.44948 -17278795.01444  20553525.4924                   20553523.5474
 -12839059.93046  -9992681.44943  24141107.7814                   24141107.4964
 -19847478.75847 -15454793.06243  21471998.7194                   21471997.3444
 -15194375.91848 -11832391.81543  22263395.9144                   22263392.8754
 11  9 25  2 17  0.0000000  0  7G29G30G18G15G05G26G21
 -26737739.84848 -20824947.28045  20324330.9694                   20324329.8484
  -1854468.914 6                  24726327.367
 -13317330.58647 -10366873.49743  21945509.7424                   21945506.7274
 -22218324.61748 -17302332.25645  20547776.7664                   20547774.4184
 -12771302.28546  -9939883.27052  24154002.1024                   24154003.5044
 -19816378.19947 -15430558.92443  21477916.5084                   21477915.6684
 -15275314.25448 -11895460.58343  22247993.7734                   22247990.3754
 11  9 25  2 17 30.0000000  0  6G29G18G15G05G26G21
 -26724744.93448 -20814821.37245  20326803.8444                   20326802.2154
 -13377443.74647 -10413714.89243  21934071.1804                   21934068.4694
 -22247924.90648 -17325397.40545  20542144.2114                   20542142.0314
 -12703581.72746  -9887114.05542  24166888.4694                   24166888.5274
 -19784631.64847 -15405821.23743  21483957.8594                   21483956.8714
 -15356218.34047 -11958502.65243  22232598.1254                   22232594.8244
 11  9 25  2 18  0.0000000  0  6G29G18G15G05G26G21
 -26711189.57048 -20804258.75245  20329383.5234                   20329381.5554
 -13437303.86348 -10460359.11243  21922679.8914                   21922676.9614
 -22276918.82848 -17347990.02645  20536626.7894                   20536624.4734
 -12635898.590 6                  24179768.594
 -19752240.60547 -15380581.48743  21490121.8444                   21490119.7974
 -15437086.39547 -12021516.72043  22217209.7194                   22217205.5744
 11  9 25  2 18 30.0000000  0  6G29G18G15G05G26G21
 -26697067.84848 -20793254.78445  20332070.7274                   20332068.6994
 -13496904.78948 -10506801.39943  21911338.3524                   21911335.0234
 -22305299.55548 -17370104.86944  20531226.1804                   20531223.1844
 -12568247.44546  -9781658.73452  24192641.4454                   24192640.4574
 -19719200.39547 -15354835.91843  21496409.0944                   21496407.7814
 -15517911.19147 -12084497.00943  22201829.2734                   22201825.9184
 11  9 25  2 19  0.0000000  0  6G29G18G15G05G26G21
 -26682377.85248 -20781808.05345  20334866.0394                   20334864.6684
 -13556244.61348 -10553040.09243  21900045.9924                   21900043.0824
 -22333064.71548 -17391740.01144  20525942.6024                   20525939.2814
 -12500626.70346  -9728967.18442  24205509.7734                   24205508.1254
 -19685510.80147 -15328584.21243  21502820.1644                   21502818.4734
 -15598689.19548 -12147440.95243  22186457.3984                   22186454.5354
 11  9 25  2 19 30.0000000  0  6G29G18G15G05G26G21
 -26667123.56648 -20769921.56445  20337768.6884                   20337767.1024
 -13615326.68747 -10599078.06643  21888802.9534                   21888800.1134
 -22360216.23848 -17412897.04245  20520775.5474                   20520773.6804
 -12433039.77346  -9676302.15453  24218370.5314                   24218370.8324
 -19651176.39547 -15301830.13043  21509353.8364                   21509352.4264
 -15679421.80947 -12210349.46443  22171094.3834                   22171091.2814
 11  9 25  2 20  0.0000000  0  6G29G18G15G05G26G21
 -26651307.55548 -20757597.41845  20340778.6414                   20340776.6914
 -13674153.43748 -10644917.07443  21877608.3204                   21877606.1174
 -22386755.87548 -17433577.24845  20515725.4924                   20515723.4494
 -12365489.84846  -9623665.84442  24231224.7974                   24231224.4614
 -19616201.20747 -15274576.72543  21516009.4144                   21516007.5234
 -15760109.98448 -12273223.27643  22155739.7734                   22155736.3714
 11  9 25  2 20 30.0000000  0  6G29G18G15G05G26G21
 -26634933.32848 -20744838.29445  20343894.6024                   20343893.5084
 -13732728.27348 -10690559.70243  21866462.3134                   21866459.0234
 -22412686.45348 -17453782.88344  20510790.8834                   20510788.4064
 -12297980.73446  -9571061.27953  24244071.2424                   24244069.6954
 -19580590.06247 -15246827.77843  21522786.1484                   21522784.9384
 -15840755.53147 -12336063.93943  22140393.2424                   22140390.3404
 11  9 25  2 21  0.0000000  0  6G29G18G15G05G26G21
 -26618004.66048 -20731647.10345  20347115.8594                   20347113.7424
 -13791054.18748 -10736008.41543  21855363.0944                   21855360.1844
 -22438010.36348 -17473515.73644  20505971.9064                   20505969.9804
 -12230515.773 6                  24256910.234
 -19544348.06247 -15218587.25643  21529682.3674                   21529680.6174
 -15921360.28547 -12398872.81943  22125055.0314                   22125052.9184
 11  9 25  2 21 30.0000000  0  6G29G18G15G05G26G21
 -26600521.35248 -20718023.73645  20350443.0164                   20350441.6604
 -13849130.91048 -10781263.02643  21844311.4304                   21844309.3134
 -22462726.53148 -17492775.08345  20501268.5784                   20501266.4654
 -12163095.03146  -9465955.51653  24269739.7114                   24269738.1844
 -19507475.94547 -15189855.73743  21536698.7894                   21536697.8984
 -16001921.58648 -12461647.78043  22109724.6024                   22109722.2504
 11  9 25  2 22  0.0000000  0  6G29G18G15G05G26G21
 -26582485.17648 -20703969.55045  20353875.1174                   20353873.7814
 -13906960.09848 -10826324.66743  21833306.8674                   21833304.0314
 -22486835.62148 -17511561.37144  20496680.3834                   20496678.1454
 -12095720.03946  -9413455.78843  24282560.7194                   24282559.7934
 -19469976.90647 -15160635.69343  21543834.5944                   21543833.4384
 -16082439.73047 -12524389.21144  22094402.5394                   22094398.9804
 11  9 25  2 22 30.0000000  0  6G29G18G15G05G26G21
 -26563896.75048 -20689485.09245  20357412.5944                   20357410.3484
 -13964542.04748 -10871193.67243  21822349.3674                   21822347.2894
 -22510337.19948 -17529874.26944  20492208.4534                   20492206.4344
 -12028391.75046  -9360992.02043  24295372.2974                   24295370.1884
 -19431853.02047 -15130928.73643  21551089.4144                   21551087.2624
 -16162913.05947 -12587095.64943  22079088.9924                   22079085.2934
 11  9 25  2 23  0.0000000  0  6G29G18G15G05G26G21
 -26544757.91048 -20674571.71245  20361054.2894                   20361052.0984
 -14021877.66448 -10915870.67843  21811438.7424                   21811435.6724
 -22533232.01648 -17547714.33945  20487851.7894                   20487849.3524
 -11961111.44546  -9308565.86752  24308176.6094                   24308176.9844
 -19393107.09447 -15100737.12643  21558462.7194                   21558461.1844
 -16243340.98047 -12649766.76643  22063784.3204                   22063780.6294
 11  9 25  2 23 30.0000000  0  6G29G18G15G05G26G21
 -26525069.56248 -20659230.14045  20364801.0164                   20364798.8954
 -14078967.97348 -10960356.62943  21800575.1174                   21800571.5124
 -22555520.42648 -17565081.91945  20483610.3364                   20483608.5664
 -11893880.35546  -9256177.86743  24320968.9304                   24320966.9144
 -19353741.24647 -15070062.39443  21565953.7894                   21565951.2344
 -16323722.62947 -12712401.74543  22048487.8054                   22048485.6134
 11  9 25  2 24  0.0000000  0  6G29G18G15G05G26G21
 -26504834.43048 -20643462.53045  20368651.4304                   20368649.3524
 -14135815.35948 -11004653.22543  21789756.9304                   21789754.4184
 -22577204.06248 -17581978.24044  20479484.4304                   20479482.2114
 -11826701.168 6                  24333753.758
 -19313759.84847 -15038908.10143  21573561.9774                   21573560.6134
 -16404058.32847 -12775000.96943  22033200.3444                   22033197.7034
 11  9 25  2 24 30.0000000  0  6G29G18G15G05G26G21
 -26484051.68048 -20627268.16045  20372606.2894                   20372604.1024
 -14192417.86348 -11048759.05944  21778985.6644                   21778982.7934
 -22598279.98048 -17598401.01245  20475473.4534                   20475471.6564
 -11759571.91846  -9151522.09852  24346528.1484                   24346522.9884
 -19273162.41047 -15007273.67943  21581287.2584                   21581286.0824
 -16484344.68447 -12837561.71043  22017922.1884                   22017918.4224
 11  9 25  2 25  0.0000000  0  6G29G18G15G05G26G21
 -26462725.13748 -20610650.08245  20376664.5634                   20376663.3634
 -14248778.98848 -11092676.81243  21768260.5004                   21768257.6374
 -22618751.68448 -17614352.95945  20471578.0704                   20471575.6524
 -11692497.039 6                  24359291.586
 -19231954.59447 -14975163.71043  21589128.5784                   21589127.1764
 -16564583.26647 -12900085.25643  22002653.4614                   22002650.0704
 11  9 25  2 25 30.0000000  0  6G29G18G15G05G26G21
 -26440854.05148 -20593607.68545  20380826.6884                   20380825.1914
 -14304898.08648 -11136405.98344  21757581.5944                   21757578.6374
 -22638617.66047 -17629832.89845  20467797.3594                   20467795.6844
 -11625475.270 6                  24372045.281
 -19190137.02747 -14942578.52443  21597086.6334                   21597084.5664
 -16644771.91847 -12962569.88543  21987394.1564                   21987390.6484
 11  9 25  2 26  0.0000000  0  6G29G18G15G05G26G21
 -26418441.15248 -20576143.10045  20385091.3754                   20385089.9884
 -14360777.02348 -11179947.99243  21746948.1094                   21746944.6724
 -22657879.53548 -17644842.14145  20464131.9064                   20464129.9064
 -11558509.012 6                  24384788.336
 -19147713.43447 -14909521.28043  21605159.5394                   21605158.4574
 -16724910.72347 -13025015.66743  21972143.8834                   21972140.3284
 11  9 25  2 26 30.0000000  0  7G22G29G18G15G05G26G21
   4592264.43816                  24545036.680
 -26395487.78548 -20558257.34845  20389459.8444                   20389458.9694
 -14416416.86348 -11223303.62143  21736360.2504                   21736357.7664
 -22676537.69148 -17659380.94645  20460581.4224                   20460579.4964
 -11491599.258 6                  24397521.094
 -19104686.25847 -14875993.54143  21613347.2734                   21613345.4804
 -16804998.57447 -13087421.75843  21956904.1954                   21956900.3794
 11  9 25  2 27  0.0000000  0  7G22G29G18G15G05G26G21
   4500764.000 6                  24527624.656
 -26372001.66048 -20539956.47045  20393928.5234                   20393927.0004
 -14471824.84848 -11266478.60243  21725816.4454                   21725813.3204
 -22694599.13748 -17673454.77744  20457144.3834                   20457142.1524
 -11424753.664 6                  24410241.398
 -19061065.01247 -14842003.01843  21621648.1484                   21621646.4534
 -16885041.06247 -13149792.42843  21941672.3204                   21941669.0314
 11  9 25  2 27 30.0000000  0  7G22G29G18G15G05G26G21
   4409415.602 6                  24510240.852
 -26347987.18048 -20521243.86945  20398498.3594                   20398496.6954
 -14527004.53148 -11309475.77043  21715315.8914                   21715313.5434
 -22712066.21148 -17687065.47245  20453820.7734                   20453818.2704
 -11357976.195 6                  24422948.273
 -19016854.86747 -14807553.50543  21630061.3204                   21630058.8674
 -16965039.82848 -13212129.17643  21926449.2274                   21926445.9304
 11  9 25  2 28  0.0000000  0  7G22G29G18G15G05G26G21
   4318222.055 6                  24492887.492
 -26323443.13348 -20502118.65745  20403169.1334                   20403167.4534
 -14581954.18048 -11352293.66443  21704859.7664                   21704857.1334
 -22728937.04748 -17700211.56545  20450610.0704                   20450607.9734
 -11291265.09446  -8786609.83953  24435643.0164                   24435638.5394
 -18972055.69147 -14772645.03643  21638586.3134                   21638584.8284
 -17044991.24648 -13274428.95543  21911235.0234                   21911231.7854
 11  9 25  2 28 30.0000000  0  7G22G29G18G15G05G26G21
   4227185.100 6                  24475563.203
 -26298368.53948 -20482580.02945  20407940.4844                   20407939.0634
 -14636672.32848 -11394931.15043  21694446.7734                   21694443.7624
 -22745210.27048 -17712891.98245  20447513.4774                   20447510.8754
 -11224619.059 6                  24448325.852
 -18926668.30947 -14737278.16443  21647222.6804                   21647221.5204
 -17124891.78948 -13336689.00443  21896030.2504                   21896026.1374
 11  9 25  2 29  0.0000000  0  7G22G29G18G15G05G26G21
   4136306.781 6                  24458270.250
 -26272762.79348 -20462627.48545  20412813.3914                   20412810.9654
 -14691157.65248 -11437387.22843  21684078.8054                   21684076.0554
 -22760883.84848 -17725105.11445  20444530.7974                   20444528.1764
 -11158036.844 6                  24460995.961
 -18880693.09047 -14701453.48743  21655971.9304                   21655970.1954
 -17204738.52348 -13398907.26443  21880836.0864                   21880832.2424
 11  9 25  2 29 30.0000000  0  7G22G29G18G15G05G26G21
   5621010.172 6                  24740799.344
 -24671208.26648 -19214662.93245  20717579.0784                   20717577.0394
 -13169989.42248 -10252061.29344  21973547.3674                   21973544.6454
 -21200538.01248 -16509251.21545  20741454.8444                   20741452.7584
  -9516101.74646  -7403365.70752  24773446.2974                   24773445.1414
 -17258714.43047 -13437573.96043  21964623.9304                   21964622.7974
 -15709108.28148 -12233481.05044  22165444.9694                   22165440.6764
 11  9 25  2 30  0.0000000  0  7G22G29G18G15G05G26G21
   5530450.16446   4317916.23353  24723566.4224                   24723562.6134
 -24644543.64148 -19193885.29045  20722653.3204                   20722651.4414
 -13224010.91448 -10294155.96543  21963267.1954                   21963264.3874
 -21215013.21548 -16520530.58244  20738700.2424                   20738698.1724
  -9449649.26246  -7351584.43442  24786091.6414                   24786089.5904
 -17211570.69547 -13400838.60043  21973595.1724                   21973592.6054
 -15788843.66047 -12295612.50643  22150271.9534                   22150268.2384
 11  9 25  2 30 30.0000000  0  7G22G29G18G15G05G26G21
   5440052.23847   4247476.48842  24706364.3444                   24706360.8754
 -24617348.87548 -19172694.57544  20727828.0784                   20727826.1254
 -13277799.09048 -10336068.77843  21953031.6644                   21953028.7664
 -21228886.94548 -16531341.25145  20736059.8204                   20736057.5394
  -9383260.13746  -7299852.82052  24798725.2424                   24798722.0554
 -17163843.84447 -13363648.89543  21982677.2344                   21982676.2814
 -15868518.41048 -12357696.64443  22135110.2034                   22135106.3594
 11  9 25  2 31  0.0000000  0  7G22G29G18G15G05G26G21
   5349813.83647   4177160.98153  24689192.1484                   24689190.3164
 -24589627.71548 -19151093.68545  20733103.0084                   20733101.4924
 -13331356.84848 -10377802.07843  21942840.0944                   21942837.1484
 -21242162.09048 -16541685.51245  20733533.7274                   20733531.5634
  -9316937.266 6                  24811345.953
 -17115539.02047 -13326008.60843  21991870.0234                   21991868.2854
 -15948133.83248 -12419734.68243  22119959.5474                   22119955.9454
 11  9 25  2 31 30.0000000  0  7G22G29G18G15G05G26G21
   5259737.05546   4106971.54353  24672050.6484                   24672049.2544
 -24561379.34848 -19129081.97045  20738478.5394                   20738477.3284
 -13384682.72748 -10419354.74344  21932692.6644                   21932689.7234
 -21254837.37948 -16551562.32845  20731121.9694                   20731119.3524
  -9250679.57046  -7196543.30053  24823954.3054                   24823953.2664
 -17066656.54747 -13287918.46643  22001171.5944                   22001170.1334
 -16027686.52748 -12481723.75943  22104821.1484                   22104818.2624
 11  9 25  2 32  0.0000000  0  7G22G29G18G15G05G26G21
   5169820.57447   4036906.79243  24654940.2584                   24654938.7544
 -24532606.78548 -19106661.78645  20743954.1024                   20743951.8324
 -13437778.99648 -10460728.36044  21922588.9144                   21922586.0234
 -21266913.91848 -16560972.57645  20728823.7194                   20728821.8914
  -9184489.27746  -7144966.49642  24836549.5234                   24836549.1914
 -17017200.56647 -13249381.34443  22010582.5864                   22010580.6414
 -16107176.81648 -12543664.24243  22089694.7344                   22089691.7034
 11  9 25  2 32 30.0000000  0  7G22G29G18G15G05G26G21
   5080064.51647   3966967.27543  24637860.6334                   24637857.6684
 -24503311.15648 -19083834.03945  20749528.6334                   20749527.3324
 -13490646.04748 -10501923.44543  21912527.9454                   21912525.3674
 -21278392.23448 -16569916.72245  20726639.3054                   20726637.7584
  -9118366.55946  -7093442.41442  24849132.0704                   24849131.3014
 -16967173.55947 -13210399.24243  22020102.7894                   22020100.8284
 -16186603.02347 -12605554.75943  22074580.3524                   22074577.0044
 11  9 25  2 33  0.0000000  0  7G22G29G18G15G05G26G21
   4990468.11346   3897151.96243  24620811.1414                   24620807.7234
 -24473495.03548 -19060600.68645  20755202.5554                   20755200.9414
 -13543285.72348 -10542941.31843  21902511.1804                   21902507.7034
 -21289273.78948 -16578395.83945  20724569.0234                   20724566.2734
  -9052313.578 6                  24861701.406
 -16916579.18747 -13170975.03143  22029730.0314                   22029728.4924
 -16265964.99247 -12667395.14643  22059478.3364                   22059475.5394
 11  9 25  2 33 30.0000000  0  7G22G29G18G15G05G26G21
   4901032.97347   3827462.46943  24603791.3134                   24603788.8874
 -24443158.32448 -19036961.66545  20760975.7114                   20760973.6334
 -13595697.31648 -10583781.49444  21892537.6414                   21892534.9924
 -21299557.83648 -16586409.37645  20722611.6954                   20722609.0164
  -8986329.63746  -6990557.29352  24874258.5394                   24874258.3204
 -16865418.48447 -13131109.56243  22039465.6804                   22039464.3524
 -16345259.91048 -12729183.43043  22044389.1564                   22044385.3484
 11  9 25  2 34  0.0000000  0  7G22G29G18G15G05G26G21
   4811758.902 6                  24586802.328
 -24412302.64548 -19012918.29545  20766846.9454                   20766845.2154
 -13647881.58648 -10624444.57744  21882607.3754                   21882604.6454
 -21309245.10948 -16593957.86545  20720768.4384                   20720766.0864
  -8920415.11746  -6939195.37453  24886801.1094                   24886800.9844
 -16813694.37547 -13090805.09943  22049308.4774                   22049307.0784
 -16424486.35947 -12790918.29043  22029312.7344                   22029309.3444
 11  9 25  2 34 30.0000000  0  7G22G29G18G15G05G26G21
   4722644.45746   3688458.27453  24569844.2664                   24569841.2704
 -24380930.81248 -18988472.74744  20772816.9304                   20772815.0204
 -13699840.58248 -10664932.06743  21872720.0004                   21872717.5514
 -21318337.39848 -16601042.75945  20719038.1024                   20719035.6884
  -8854572.273 6                  24899331.031
 -16761411.18747 -13050064.92743  22059257.9614                   22059255.7544
 -16503644.61348 -12852600.01444  22014249.3054                   22014245.7384
 11  9 25  2 35  0.0000000  0  7G22G29G18G15G05G26G21
   4633690.379 6                  24552916.953
 -24349043.43048 -18963625.40444  20778884.6644                   20778883.7814
 -13751573.87548 -10705243.72343  21862875.0164                   21862871.8164
 -21326834.37948 -16607663.76745  20717421.1254                   20717419.1764
  -8788800.773 6                  24911847.383
 -16708570.52747 -13008890.40543  22069313.3674                   22069311.3204
 -16582732.10947 -12914226.61443  21999199.4614                   21999195.5204
 11  9 25  2 35 30.0000000  0  7G22G29G18G15G05G26G21
   4544897.980 6                  24536020.367
 -24316641.39848 -18938377.06845  20785050.6884                   20785049.1294
 -13803081.98048 -10745379.79044  21853073.6414                   21853070.3524
 -21334735.98448 -16613820.86245  20715917.5314                   20715915.5744
  -8723100.547 6                  24924348.414
 -16655174.51647 -12967283.10543  22079473.9694                   22079471.4384
 -16661747.21947 -12975796.77643  21984163.2584                   21984160.3014
 11  9 25  2 36  0.0000000  0  6G22G29G18G15G26G21
   4456266.004 6                  24519154.555
 -24283727.20748 -18912729.66644  20791314.1094                   20791313.3954
 -13854366.54748 -10785341.81444  21843314.3594                   21843311.8874
 -21342043.78548 -16619515.20644  20714526.9614                   20714524.3444
 -16601227.02047 -12925246.09043  22089740.2664                   22089738.1414
 -16740689.22347 -13037309.99243  21969141.1884                   21969138.0434
 11  9 25  2 36 30.0000000  0  6G22G29G18G15G26G21
   4367795.023 6                  24502318.938
 -24250301.80148 -18886683.89444  20797675.0394                   20797673.8284
 -13905427.19548 -10825129.31943  21833597.3204                   21833594.4414
 -21348757.87148 -16624746.96444  20713249.3054                   20713247.4144
 -16546729.75047 -12882780.75243  22100110.0554                   22100107.9304
 -16819556.10547 -13098764.74143  21954133.3284                   21954129.2734
 11  9 25  2 37  0.0000000  0  6G22G29G18G15G26G21
   4279491.820 6                  24485515.000
 -24216360.04748 -18860235.77445  20804133.7194                   20804131.7274
 -13956258.24648 -10864737.86544  21823925.1334                   21823921.9614
 -21354872.11348 -16629511.31144  20712085.6884                   20712083.7074
 -16491679.18747 -12839884.15143  22110585.8984                   22110584.7664
 -16898339.11747 -13160154.10243  21939141.4614                   21939137.3874
 11  9 25  2 37 30.0000000  0  6G22G29G18G15G26G21
   4191356.758 6                  24468743.859
 -24181903.07448 -18833386.18245  20810690.7974                   20810688.6174
 -14006859.97747 -10904167.79244  21814296.0164                   21814293.3524
 -21360386.95348 -16633808.54944  20711036.0704                   20711034.3204
 -16436077.60547 -12796558.21543  22121166.8284                   22121165.4384
 -16977037.60947 -13221477.53543  21924165.7734                   21924162.1764
 11  9 25  2 38  0.0000000  0  6G22G29G18G15G26G21
   4103391.184 6                  24452004.625
 -24146931.25848 -18806135.41244  20817345.6804                   20817344.0634
 -14057231.94147 -10943418.58343  21804710.1644                   21804707.8244
 -21365301.82048 -16637638.30745  20710101.1094                   20710099.0084
 -16379926.73847 -12752804.32543  22131851.5784                   22131850.1024
 -17055648.62547 -13282732.87343  21909206.6644                   21909202.3954
 11  9 25  2 38 30.0000000  0  6G22G29G18G15G26G21
   4015592.063 6                  24435296.461
 -24111449.27048 -18778487.10744  20824097.8284                   20824096.0904
 -14107377.88347 -10982493.35743  21795167.8134                   21795165.2584
 -21369620.32048 -16641003.39144  20709279.1334                   20709276.9454
 -16323232.11747 -12708626.67343  22142640.6644                   22142637.5164
 -17134173.11747 -13343920.72544  21894263.4144                   21894259.9064
 11  9 25  2 39  0.0000000  0  6G22G29G18G15G26G21
   3927955.848 6                  24418619.734
 -24075462.42248 -18750445.42644  20830945.5554                   20830944.2584
 -14157301.82447 -11021395.04843  21785667.8524                   21785665.0004
 -21373347.19548 -16643907.38845  20708570.0474                   20708567.8134
 -16266000.43747 -12664030.67643  22153531.3914                   22153529.2304
 -17212614.03948 -13405043.55443  21879336.7734                   21879333.0124
 11  9 25  2 39 30.0000000  0  6G22G29G18G15G26G21
   3840480.31346   3001054.64152  24401973.0704                   24401970.5314
 -24038974.63748 -18722013.38345  20837889.1884                   20837887.2814
 -14207006.93747 -11060126.32943  21776209.1724                   21776205.8014
 -21376485.18748 -16646352.59045  20707973.0864                   20707970.9414
 -16208236.53147 -12619019.76743  22164523.2194                   22164521.6454
 -17290971.42247 -13466101.23644  21864425.8834                   21864421.9804
 11  9 25  2 40  0.0000000  0  6G22G29G18G15G26G21
   3753167.11747   2933018.31143  24385358.3914                   24385354.2274
 -24001985.76248 -18693190.88644  20844927.6644                   20844926.1684
 -14256492.10547 -11098686.18244  21766792.3754                   21766789.5004
 -21379032.89548 -16648337.79745  20707488.3364                   20707485.9224
 -16149941.38347 -12573594.97343  22175616.3364                   22175614.2894
 -17369241.64547 -13527090.96244  21849531.5634                   21849527.6294
 11  9 25  2 40 30.0000000  0  6G22G29G18G15G26G21
   3666014.49247   2865107.34343  24368774.2344                   24368769.7584
 -23964498.99648 -18663980.42844  20852061.6484                   20852059.0124
 -14305760.02347 -11137076.71843  21757417.0784                   21757413.9344
 -21380993.41448 -16649865.42545  20707115.1484                   20707113.4574
 -16091120.09447 -12527760.15843  22186810.0084                   22186808.2974
 -17447426.29347 -13588014.06444  21834653.5944                   21834650.1024
 11  9 25  2 41  0.0000000  0  6G22G29G18G15G26G21
   3579024.29747   2797322.99343  24352220.1254                   24352216.3984
 -23926514.42248 -18634382.02945  20859289.5864                   20859287.8204
 -14354809.33647 -11175296.97143  21748083.3284                   21748080.5594
 -21382365.53948 -16650934.64945  20706853.7814                   20706851.2304
 -16031773.44147 -12481515.98343  22198103.2664                   22198102.6094
 -17525521.14547 -13648867.14544  21819792.3914                   21819788.9964
 11  9 25  2 41 30.0000000  0  6G22G29G18G15G26G21
   3492195.78147   2729664.23743  24335697.2664                   24335693.5634
 -23888034.65648 -18604397.83444  20866612.0084                   20866610.4454
 -14403641.75047 -11213348.19943  21738790.5864                   21738787.5864
 -21383151.16048 -16651546.78845  20706704.1414                   20706702.1564
 -15971905.24647 -12434865.46843  22209495.8834                   22209493.6804
 -17603525.77047 -13709649.98643  21804948.9304                   21804944.8134
 11  9 25  2 42  0.0000000  0  6G22G29G18G15G26G21
   3405528.28947   2662131.47953  24319204.6884                   24319202.4844
 -23849061.68748 -18574029.27044  20874028.2894                   20874026.5944
 -14452258.41047 -11251231.27344  21729539.2814                   21729536.0984
 -21383351.64548 -16651703.01044  20706666.3444                   20706663.9654
 -15911518.88747 -12387811.17143  22220986.6884                   22220985.0394
 -17681439.10247 -13770361.62644  21790122.1484                   21790118.8954
 11  9 25  2 42 30.0000000  0  7G22G09G29G18G15G26G21
   3319019.14547   2594721.81743  24302742.2734                   24302740.5594
   6150287.60516                  24929600.008
 -23809600.10248 -18543280.01544  20881537.5784                   20881535.8524
 -14500663.14547 -11288949.22043  21720328.3204                   21720325.1564
 -21382970.77348 -16651406.21845  20706738.3364                   20706735.6294
 -15850619.93747 -12340357.46843  22232575.8524                   22232573.7934
 -17759261.83647 -13831002.70944  21775313.0554                   21775309.5274
 11  9 25  2 43  0.0000000  0  7G22G09G29G18G15G26G21
   3232664.32847   2527432.72843  24286310.1254                   24286305.7974
   6046695.828 6                  24909887.477
 -23769656.09847 -18512154.79644  20889138.8834                   20889137.0984
 -14548860.06647 -11326505.23844  21711156.4384                   21711153.2274
 -21382013.35548 -16650660.13644  20706920.9384                   20706918.6994
 -15789215.23447 -12292509.65043  22244260.3444                   22244259.0984
 -17836997.35947 -13891575.76244  21760520.5554                   21760516.9494
 11  9 25  2 43 30.0000000  0  7G22G09G29G18G15G26G21
   3146459.25847   2460259.81343  24269905.3594                   24269900.7774
   5942997.113 6                  24890153.672
 -23729235.78147 -18480658.45844  20896830.6254                   20896828.4884
 -14596854.67647 -11363903.59143  21702023.2194                   21702020.4804
 -21380484.75848 -16649469.03444  20707211.7894                   20707209.7384
 -15727312.41847 -12244273.65243  22256040.4534                   22256038.6454
 -17914648.55947 -13952083.23344  21745743.9454                   21745740.7194
 11  9 25  2 44  0.0000000  0  7G22G09G29G18G15G26G21
   3060407.070 6                  24253529.766
   5839197.852 6                  24870401.477
 -23688337.42647 -18448789.64844  20904613.1484                   20904611.1604
 -14644644.32447 -11401142.28744  21692929.4304                   21692925.9574
 -21378382.60948 -16647830.98144  20707611.9064                   20707609.3134
 -15664911.18447 -12195649.39943  22267915.1804                   22267912.0354
 -17992209.52047 -14012520.34044  21730984.6804                   21730981.6564
 11  9 25  2 44 30.0000000  0  7G22G09G29G18G15G26G21
   2974512.43446   2326275.46453  24237184.7194                   24237180.1764
   5735305.12146   4478472.29653  24850632.2194                   24850626.4024
 -23646958.48447 -18416546.30244  20912487.5394                   20912485.3984
 -14692225.26247 -11438218.27243  21683874.6254                   21683872.0204
 -21375703.75048 -16645743.54744  20708121.5394                   20708118.8914
 -15602009.93747 -12146635.39143  22279884.5234                   22279882.0984
 -18069674.30547 -14072882.47644  21716243.6724                   21716239.9024
 11  9 25  2 45  0.0000000  0  7G22G09G29G18G15G26G21
   2888775.52746   2259467.68943  24220869.5554                   24220866.1214
   5631322.14547   4397446.53553  24830844.7894                   24830843.9774
 -23605100.59448 -18383929.79044  20920452.8054                   20920451.2464
 -14739598.12548 -11475132.18244  21674860.1094                   21674857.4774
 -21372448.98848 -16643207.35245  20708740.5944                   20708738.3524
 -15538611.57847 -12097234.00843  22291949.1804                   22291946.9024
 -18147042.01248 -14133168.97944  21701520.8754                   21701518.3204
 11  9 25  2 45 30.0000000  0  7G22G09G29G18G15G26G21
   2803196.58246   2192783.03643  24204584.7584                   24204579.6564
   5527252.35546   4316353.12853  24811040.3054                   24811035.3484
 -23562765.03948 -18350941.04344  20928508.7424                   20928506.9024
 -14786763.12148 -11511884.13644  21665885.0554                   21665881.9184
 -21368618.37148 -16640222.41744  20709469.8834                   20709467.3284
 -15474718.41047 -12047447.25843  22304107.4064                   22304105.2234
 -18224309.80148 -14193377.67344  21686817.3594                   21686813.7624
 11  9 25  2 46  0.0000000  0  7G22G09G29G18G15G26G21
   2717776.68446   2126221.91643  24188329.4924                   24188324.9574
   5423099.492 6                  24791220.703
 -23519952.94948 -18317580.94444  20936655.4614                   20936654.5314
 -14833719.78147 -11548473.67944  21656949.5554                   21656946.5044
 -21364212.35548 -16636789.15145  20710308.1174                   20710306.0354
 -15410332.59047 -11997276.41643  22316360.0004                   22316357.8134
 -18301474.80947 -14253506.19844  21672133.3444                   21672130.0944
 11  9 25  2 46 30.0000000  0  7G22G09G29G18G15G26G21
   2632516.05546   2059785.26853  24172104.4144                   24172097.8634
   5318867.086 6                  24771385.656
 -23476665.77047 -18283850.70144  20944892.9144                   20944891.5664
 -14880468.97347 -11584901.60844  21648053.2424                   21648050.2854
 -21359231.63748 -16632908.06844  20711256.0004                   20711253.6524
 -15345456.57447 -11946723.72543  22328705.0864                   22328703.6994
 -18378535.85947 -14313553.72144  21657469.1564                   21657465.4104
 11  9 25  2 47  0.0000000  0  7G22G09G29G18G15G26G21
   2547414.332 6                  24155909.953
   5214557.680 6                  24751536.406
 -23432905.61347 -18249751.90244  20953220.3594                   20953218.8444
 -14927011.37947 -11621168.41044  21639196.6954                   21639193.3054
 -21353677.90248 -16628580.46944  20712312.7194                   20712310.7624
 -15280093.93747 -11895791.78743  22341142.8834                   22341141.4264
 -18455491.69547 -14373519.26544  21642824.8364                   21642821.3634
 11  9 25  2 47 30.0000000  0  7G22G09G29G18G15G26G21
   2462472.95346   1927284.44253  24139746.2814                   24139740.4414
   5110175.363 6                  24731672.133
 -23388672.90247 -18215284.84244  20961637.3834                   20961635.9964
 -14973346.25847 -11657273.50343  21630378.8204                   21630375.4734
 -21347550.49648 -16623805.87944  20713478.7344                   20713476.2114
 -15214245.93047 -11844481.71643  22353673.5554                   22353672.1524
 -18532338.28547 -14433399.76344  21628201.3524                   21628197.6644
 11  9 25  2 48  0.0000000  0  7G22G09G29G18G15G26G21
   2377691.17646   1861220.68543  24123612.4924                   24123608.1174
   5005722.793 6                  24711796.281
 -23343970.60547 -18180451.89244  20970144.3054                   20970142.3914
 -15019475.20347 -11693218.09743  21621601.2034                   21621597.8874
 -21340851.32448 -16618585.72744  20714753.5704                   20714751.7504
 -15147916.77347 -11792796.54743  22366295.2114                   22366293.7734
 -18609075.62947 -14493195.08144  21613598.6334                   21613595.7074
 11  9 25  2 48 30.0000000  0  7G22G09G29G18G15G26G21
   2293070.10546   1795282.07743  24107509.5234                   24107504.5204
   4901204.215 6                  24691906.602
 -23298798.88347 -18145253.17644  20978740.1024                   20978738.6564
 -15065397.55547 -11729001.67644  21612862.7664                   21612859.0864
 -21333580.07448 -16612919.81445  20716137.3524                   20716135.1644
 -15081107.83647 -11740737.60243  22379008.7424                   22379007.1374
 -18685700.12547 -14552902.40344  21599017.7814                   21599013.8094
 11  9 25  2 49  0.0000000  0  7G22G09G29G18G15G26G21
   2208608.31346   1729466.84553  24091437.1414                   24091436.1024
   4796621.059 6                  24672005.148
 -23253161.43447 -18109691.51544  20987424.6804                   20987422.9144
 -15111115.42247 -11764625.98943  21604162.8914                   21604159.2664
 -21325739.69148 -16606810.39244  20717629.2274                   20717626.4804
 -15013823.70747 -11688308.48343  22391812.4924                   22391810.1454
 -18762211.61747 -14612521.75844  21584457.6644                   21584454.6294
 11  9 25  2 49 30.0000000  0  7G22G09G29G18G15G26G21
   2124304.90247   1663776.04453  24075394.9844                   24075393.8054
   4691975.617 6                  24652091.539
 -23207060.96947 -18073769.07544  20996197.0554                   20996195.3364
 -15156630.28147 -11800092.10043  21595501.3914                   21595498.5354
 -21317332.08248 -16600259.00344  20719229.2344                   20719227.0434
 -14946068.16847 -11635512.12243  22404705.6724                   22404703.9224
 -18838609.48847 -14672052.56844  21569919.8284                   21569915.8794
 11  9 25  2 50  0.0000000  0  7G22G09G29G18G15G26G21
   2040162.36347   1598210.45343  24059383.3914                   24059380.5234
   4587273.188 6                  24632167.648
 -23160497.07848 -18037485.53444  21005057.8284                   21005056.2234
 -15201940.31647 -11835398.55844  21586879.1334                   21586875.8634
 -21308356.10248 -16593264.74344  20720937.2584                   20720935.1564
 -14877841.88747 -11582348.70543  22417689.0554                   22417688.1804
 -18914889.19547 -14731491.26044  21555404.5314                   21555400.9344
 11  9 25  2 50 30.0000000  0  7G22G09G29G18G15G26G21
   1956179.41047   1532769.29043  24043401.6724                   24043397.1954
   4482515.230 6                  24612233.031
 -23113473.20348 -18000843.57044  21014006.2504                   21014004.2154
 -15247047.78548 -11870547.27243  21578295.2504                   21578291.9184
 -21298814.12548 -16585829.42344  20722752.8524                   20722750.5664
 -14809149.22347 -11528822.02343  22430760.8204                   22430759.0594
 -18991050.18747 -14790837.49644  21540911.6484                   21540907.8324
 11  9 25  2 51  0.0000000  0  7G22G09G29G18G15G26G21
   1872355.85947   1467452.28153  24027450.1954                   24027444.8054
   4377705.363 6                  24592287.547
 -23065990.94948 -17963844.44544  21023041.9144                   21023040.6134
 -15291953.14847 -11905538.46044  21569750.4694                   21569746.9104
 -21288707.08648 -16577953.76944  20724676.5234                   20724673.7544
 -14739993.08247 -11474934.12843  22443921.3674                   22443918.2854
 -19067091.16847 -14850090.19544  21526441.1414                   21526437.6524
 11  9 25  2 51 30.0000000  0  7G22G09G29G18G15G26G21
   1788692.25047   1402259.98643  24011529.3834                   24011523.3284
   4272846.980 6                  24572333.977
 -23018051.79348 -17926489.26344  21032164.5234                   21032162.3714
 -15336656.76647 -11940372.43444  21561243.3284                   21561239.9184
 -21278036.28947 -16569638.88044  20726706.6804                   20726704.7894
 -14670376.28547 -11420687.16343  22457168.9614                   22457165.1644
 -19143009.38747 -14909247.26144  21511994.3984                   21511991.0944
 11  9 25  2 52  0.0000000  0  7G22G09G29G18G15G26G21
   1705187.43847   1337191.26853  23995639.2814                   23995632.9184
   4167942.004 6                  24552370.813
 -22969659.02348 -17888780.61844  21041373.2894                   21041371.4804
 -15381160.42247 -11975050.56144  21552774.7194                   21552771.5784
 -21266804.07448 -16560886.46744  20728844.2814                   20728841.6094
 -14600302.51247 -11366084.33443  22470503.6484                   22470500.9184
 -19218804.52347 -14968308.35543  21497571.4614                   21497567.7194
 11  9 25  2 52 30.0000000  0  8G22G09G29G06G18G15G26G21
   1621840.40647   1272245.64842  23979779.5784                   23979773.9574
   4062992.99646   3175373.04653  24532400.2734                   24532401.4694
 -22920815.47348 -17850720.73944  21050667.7344                   21050666.4614
   6149909.56616                  24810576.250
 -15425465.42247 -12009573.90944  21544344.0554                   21544340.4614
 -21255012.34848 -16551698.13044  20731088.1564                   20731085.6374
 -14529776.05547 -11311128.61843  22483924.2034                   22483921.9494
 -19294475.37547 -15027272.61144  21483171.6174                   21483167.4024
 11  9 25  2 53  0.0000000  0  8G22G09G29G06G18G15G26G21
   1538647.035 7                  23963947.609
   3957998.65246   3093559.27243  24512420.0474                   24512419.3484
 -22871527.53948 -17812314.51844  21060046.9694                   21060045.2504
   6046492.336 5                  24790894.875
 -15469576.68747 -12043946.27944  21535949.7274                   21535946.5864
 -21242666.21147 -16542077.75244  20733437.6804                   20733434.8404
 -14458804.01647 -11255825.58943  22497429.4844                   22497427.0474
 -19370024.19147 -15086141.86044  21468794.9924                   21468790.9414
 11  9 25  2 53 30.0000000  0  8G22G09G29G06G18G15G26G21
   1455604.47747   1142711.28053  23948145.1254                   23948141.6764
   3852959.195 6                  24492431.813
 -22821799.72748 -17773565.59444  21069510.0394                   21069508.4024
   5943328.258 5                  24771263.672
 -15513497.90247 -12078170.60144  21527591.6564                   21527588.1604
 -21229770.39547 -16532029.03944  20735891.5554                   20735889.3404
 -14387392.35946 -11200180.09843  22511018.2504                   22511016.4534
 -19445452.15247 -15144916.81044  21454441.5864                   21454438.3284
 11  9 25  2 54  0.0000000  0  8G22G09G29G06G18G15G26G21
   1372715.80947   1078122.82243  23932371.5084                   23932368.6094
   3747880.99246   2929831.44942  24472436.2274                   24472432.7734
 -22771631.09048 -17734473.16544  21079056.8204                   21079054.9144
   5840423.238 6                  24751682.320
 -15557226.14147 -12112244.57844  21519270.2034                   21519267.6994
 -21216322.89147 -16521550.47044  20738450.5704                   20738448.1454
 -14315540.85546 -11144192.10253  22524691.1174                   22524689.1724
 -19520753.80547 -15203593.44444  21440112.3594                   21440108.4804
 11  9 25  2 54 30.0000000  0  8G22G09G29G06G18G15G26G21
   1289981.06347   1013654.10043  23916627.7584                   23916624.6454
   3642767.48846   2847924.78953  24452433.4614                   24452430.5514
 -22721023.40648 -17695038.64344  21088686.9534                   21088685.8444
   5737779.840 6                  24732150.125
 -15600761.80947 -12146168.42044  21510985.4144                   21510982.2154
 -21202324.66848 -16510642.74945  20741114.1414                   20741112.1724
 -14243252.46547 -11087863.47043  22538447.6174                   22538446.5784
 -19595927.54348 -15262170.37244  21425806.9144                   21425803.0784
 11  9 25  2 55  0.0000000  0  8G22G09G29G06G18G15G26G21
   1207402.39547    949307.39953  23900913.6174                   23900906.5554
   3537624.07846   2765995.07643  24432425.0234                   24432424.3014
 -22669976.75448 -17655262.01544  21098400.5554                   21098399.2704
   5635402.445 5                  24712667.250
 -15644104.16447 -12179941.73143  21502738.0864                   21502734.9654
 -21187775.18748 -16499305.51744  20743883.0864                   20743880.4144
 -14170528.23046 -11031195.30043  22552286.6414                   22552283.9804
 -19670969.32047 -15320644.49944  21411526.9924                   21411523.7114
 11  9 25  2 55 30.0000000  0  8G22G09G29G06G18G15G26G21
   1124980.03147    885082.20352  23885229.3594                   23885222.8204
   3432454.063 6                  24412411.609
 -22618492.90648 -17615144.75444  21108197.8914                   21108196.1684
   5533293.965 6                  24693238.172
 -15687253.25047 -12213564.31644  21494527.0394                   21494524.3244
 -21172675.52748 -16487539.50544  20746755.7734                   20746753.8054
 -14097370.770 6                  22566208.000
 -19745876.99248 -15379014.08044  21397272.4304                   21397268.7664
 11  9 25  2 56  0.0000000  0  8G22G09G29G06G18G15G26G21
   1042712.58246    820977.98143  23869573.4304                   23869569.3554
   3327259.46546   2602074.73852  24392394.5164                   24392392.3794
 -22566575.25448 -17574689.47144  21118077.2424                   21118075.6844
   5431455.273 5                  24673857.141
 -15730211.07447 -12247037.89744  21486352.3444                   21486348.7384
 -21157028.88747 -16475347.32944  20749733.7814                   20749731.7664
 -14023784.78546 -10916849.93053  22580211.0084                   22580210.3364
 -19820650.10248 -15437278.81744  21383043.9144                   21383040.6954
 11  9 25  2 56 30.0000000  0  8G22G09G29G06G18G15G26G21
    960602.66846    756996.11643  23853948.5704                   23853944.5904
   3222045.809 6                  24372372.492
 -22514223.39148 -17533895.81244  21128039.5164                   21128038.2234
   5329891.391 5                  24654530.031
 -15772975.68447 -12280361.01344  21478214.6884                   21478211.1884
 -21140833.52347 -16462727.53644  20752815.5474                   20752813.2624
 -13949770.50046 -10859176.32843  22594295.9224                   22594293.9884
 -19895283.71147 -15495434.89744  21368841.2974                   21368838.0554
 11  9 25  2 57  0.0000000  0  8G22G09G29G06G18G15G26G21
    878648.92247    693136.13543  23838353.4454                   23838350.2344
   3116815.531 6                  24352347.094
 -22461440.32848 -17492766.16044  21138084.2344                   21138082.3484
   5228603.836 6                  24635257.414
 -15815548.38747 -12313534.47744  21470112.9304                   21470109.9344
 -21124091.78948 -16449682.02545  20756001.3674                   20755999.3364
 -13875332.05547 -10801172.43443  22608460.7034                   22608459.4224
 -19969777.23447 -15553481.73844  21354665.6804                   21354661.4144
 11  9 25  2 57 30.0000000  0  8G22G09G29G06G18G15G26G21
    796849.91047    629396.71542  23822788.3284                   23822783.6374
   3011570.14546   2356083.15553  24332320.0234                   24332314.6804
 -22408229.99648 -17451303.54244  21148209.9844                   21148208.7664
   5127593.355 5                  24616034.750
 -15857932.03148 -12346560.69343  21462047.9064                   21462044.6334
 -21106807.14847 -16436213.45944  20759290.5314                   20759288.3594
 -13800474.27046 -10742841.64543  22622705.7274                   22622702.8094
 -20044130.62147 -15611419.44444  21340516.6564                   21340512.9144
 11  9 25  2 58  0.0000000  0  8G22G09G29G06G18G15G26G21
    715205.88747    565778.08253  23807251.2894                   23807245.6374
   2906313.496 6                  24312291.086
 -22354593.84048 -17409509.19044  21158416.2734                   21158414.2664
   5026862.695 6                  24596866.734
 -15900126.18448 -12379439.25944  21454018.4224                   21454015.9774
 -21088980.36748 -16422322.46044  20762682.9384                   20762680.7624
 -13725199.75047 -10684186.16243  22637029.7344                   22637026.4144
 -20118341.12148 -15669245.76444  21326394.7664                   21326391.4494
 11  9 25  2 58 30.0000000  0  8G22G09G29G06G18G15G26G21
    633715.72747    502279.11043  23791743.5474                   23791738.5744
   2801047.53546   2192039.72752  24292259.3594                   24292258.9304
 -22300535.27048 -17367385.60744  21168703.4224                   21168701.5554
   4926413.316 5                  24577751.531
 -15942133.12547 -12412171.93044  21446024.6484                   21446022.1954
 -21070614.00847 -16408010.98145  20766178.1484                   20766176.0864
 -13649512.73047 -10625209.26543  22651432.5234                   22651429.8794
 -20192407.97348 -15726960.20844  21312300.7034                   21312296.9024
 11  9 25  2 59  0.0000000  0  8G22G09G29G06G18G15G26G21
    552381.67647    438902.14243  23776266.0234                   23776262.7504
   2695777.836 6                  24272226.633
 -22246054.01248 -17324932.71444  21179070.9454                   21179069.1604
   4826249.953 6                  24558691.844
 -15983951.06647 -12444757.29644  21438067.2424                   21438064.0824
 -21051707.35248 -16393278.56444  20769775.7894                   20769773.4694
 -13573413.79347 -10565911.59443  22665914.1724                   22665911.6174
 -20266326.72348 -15784559.19144  21298234.1094                   21298230.2664
 11  9 25  2 59 30.0000000  0  8G22G09G29G06G18G15G26G21
    471203.90647    375646.94243  23760819.0004                   23760814.4024
   2590507.91846   2027983.03952  24252195.1094                   24252193.6414
 -22191152.53148 -17282152.32644  21189518.3284                   21189516.6294
   4726374.75016                  24539685.320
 -16025580.56247 -12477195.86144  21430145.1724                   21430141.5984
 -21032262.23048 -16378126.54244  20773476.1334                   20773474.0864
 -13496906.43447 -10506295.28542  22680472.5164                   22680470.3634
 -20340095.50848 -15842041.35944  21284196.3054                   21284192.9924
 11  9 25  3  0  0.0000000  0  8G22G09G29G06G18G15G26G21
    390180.85547    312512.16443  23745400.7274                   23745397.4694
   2485239.430 6                  24232162.586
 -22135833.97348 -17239046.95744  21200045.0784                   21200043.0944
   4626789.012 6                  24520735.453
 -16067023.55147 -12509489.03643  21422259.1564                   21422256.0634
 -21012281.18048 -16362556.85244  20777278.1484                   20777276.2234
 -13419994.85547 -10446364.21243  22695108.4144                   22695106.9494
 -20413713.77348 -15899406.20544  21270187.0704                   21270184.3054
 11  9 25  3  0 30.0000000  0  8G22G09G29G06G18G15G26G21
    309310.68847    249496.43143  23730011.4924                   23730007.5784
   2379974.56347   1863931.19552  24212131.7814                   24212128.6954
 -22080102.10248 -17195619.56444  21210650.0784                   21210649.3164
   4527493.73846   3537379.17453  24501838.7664                   24501840.7074
 -16108281.96947 -12541638.49444  21414407.6644                   21414405.0004
 -20991766.99648 -16346571.77644  20781181.9694                   20781179.7894
 -13342683.46146 -10386121.57243  22709820.5784                   22709817.6054
 -20487180.75048 -15956653.17144  21256207.0164                   21256203.3914
 11  9 25  3  1  0.0000000  0  8G22G09G29G06G18G15G26G21
    228594.33247    186600.55643  23714651.8284                   23714646.8594
   2274717.44946   1781912.69542  24192101.8914                   24192099.1294
 -22023958.34848 -17151871.18344  21221334.1094                   21221332.8754
   4428492.059 6                  24483000.055
 -16149355.56648 -12573643.85144  21406591.8754                   21406588.5824
 -20970720.68748 -16330172.06544  20785187.1254                   20785183.8484
 -13264974.64546 -10325569.36753  22724607.9144                   22724605.5594
 -20560493.41448 -16013779.97044  21242255.7734                   21242252.8714
 11  9 25  3  1 30.0000000  0  8G22G09G29G06G18G15G26G21
    148030.70347    123823.84153  23699321.3524                   23699316.9384
   2169470.172 6                  24172073.227
 -21967406.14148 -17107804.54544  21232095.9694                   21232094.1374
   4329785.42646   3383320.78853  24464217.7274                   24464212.0044
 -16190246.46148 -12605506.83344  21398810.3834                   21398807.4384
 -20949144.91448 -16313359.77244  20789292.6334                   20789290.5124
 -13186872.72746 -10264710.76443  22739470.3204                   22739467.9654
 -20633651.38348 -16070786.13444  21228334.1414                   21228331.4264
 11  9 25  3  2  0.0000000  0  8G22G09G29G06G18G15G26G21
     67620.34047     61166.57843  23684019.4454                   23684014.3554
   2064236.61347   1617901.80152  24152048.5234                   24152046.0234
 -21910446.88348 -17063420.73944  21242935.1174                   21242933.1294
   4231376.648 6                  24445490.414
 -16230954.59048 -12637227.44044  21391063.7344                   21391060.9694
 -20927040.53148 -16296135.53844  20793498.9614                   20793496.7734
 -13108379.81646 -10203547.41442  22754406.8134                   22754405.0274
 -20706651.68048 -16127669.48444  21214442.7194                   21214439.5744
 11  9 25  3  2 30.0000000  0  8G22G09G29G06G18G15G26G21
    -12637.77747     -1371.97643  23668746.7974                   23668741.3674
   1959019.52347   1535914.53153  24132026.5084                   24132025.2734
 -21853083.53948 -17018722.05044  21253850.5234                   21253848.5664
   4133267.277 6                  24426820.352
 -16271480.92648 -12668806.40144  21383351.7344                   21383348.9344
 -20904410.28148 -16278501.60644  20797805.3914                   20797803.1844
 -13029500.23446 -10142082.75443  22769417.3594                   22769415.4574
 -20779493.21948 -16184429.11444  21200581.7114                   21200578.1214
 11  9 25  3  3  0.0000000  0  8G22G09G29G06G18G15G26G21
    -92745.17647    -63793.40843  23653501.8284                   23653497.8634
   1853820.41047   1453941.44343  24112008.1254                   24112007.2074
 -21795320.28948 -16973711.71944  21264842.7424                   21264841.4964
   4035458.08646   3153976.12552  24408208.8134                   24408206.5314
 -16311828.22748 -12700245.84544  21375674.2584                   21375671.0594
 -20881257.18748 -16260460.19844  20802211.3834                   20802208.7734
 -12950238.83646 -10080320.59943  22784500.0474                   22784497.8594
 -20852175.70348 -16241064.79044  21186750.5084                   21186747.9304
 11  9 25  3  3 30.0000000  0  8G22G09G29G06G18G15G26G21
   -172700.89547   -126096.59843  23638287.4384                   23638283.0474
   1748643.54746   1371985.30843  24091993.1094                   24091992.7274
 -21737158.46948 -16928390.86244  21275910.5704                   21275908.8134
   3937952.62946   3077997.72043  24389652.9064                   24389651.6954
 -16351996.09848 -12731545.45244  21368030.6094                   21368028.1604
 -20857582.01248 -16242012.04844  20806716.5004                   20806714.4064
 -12870597.43746 -10018262.61343  22799655.4454                   22799652.7304
 -20924695.52048 -16297573.73444  21172950.7424                   21172947.4384
 11  9 25  3  4  0.0000000  0  8G22G09G29G06G18G15G26G21
   -252506.77347   -188282.77943  23623100.8834                   23623095.4774
   1643490.94946   1290048.43452  24071982.2894                   24071980.9924
 -21678601.13348 -16882761.81644  21287053.4534                   21287051.6914
   3840751.73046   3002257.02752  24371156.0634                   24371155.2544
 -16391986.27748 -12762706.67744  21360420.4144                   21360416.8984
 -20833387.86348 -16223159.42044  20811320.3444                   20811318.1644
 -12790580.73847  -9955911.73053  22814881.6174                   22814881.3954
 -20997052.77048 -16353955.96744  21159181.1644                   21159177.7584
 11  9 25  3  4 30.0000000  0  8G22G09G29G06G18G15G26G21
   -332161.61347   -250351.46053  23607943.3364                   23607934.8914
   1538367.42246   1208133.88342  24051978.6024                   24051976.9104
 -21619649.73048 -16836825.62544  21298271.8134                   21298269.8954
   3743859.26646   2926756.45543  24352719.1094                   24352715.5004
 -16431798.38748 -12793729.01544  21352844.5314                   21352841.1954
 -20808674.90648 -16203902.55344  20816023.1334                   20816020.8954
 -12710190.33247  -9893269.92943  22830179.9224                   22830178.4454
 -21069243.77048 -16410208.71944  21145443.9384                   21145440.2814
 11  9 25  3  5  0.0000000  0  8G22G09G29G06G18G15G26G21
   -411665.06247   -312302.24653  23592814.0704                   23592808.9224
   1433276.50446   1126245.07343  24031980.1174                   24031978.6844
 -21560306.52348 -16790584.20044  21309564.3594                   21309563.0274
   3647277.434 6                  24334339.055
 -16471432.61348 -12824612.82144  21345302.2034                   21345298.9264
 -20783444.98448 -16184242.92244  20820824.4844                   20820822.1524
 -12629429.50447  -9830339.41842  22845548.3984                   22845548.1374
 -21141266.24248 -16466330.11644  21131738.5944                   21131734.8524
 11  9 25  3  5 30.0000000  0  8G22G09G29G06G18G15G26G21
   -491020.78547   -374137.67143  23577713.1024                   23577706.8204
   1328218.277 6                  24011987.930
 -21500576.91048 -16744041.63844  21320930.5784                   21320929.0044
   3551005.543 6                  24316020.148
 -16510893.07048 -12855361.26144  21337793.1024                   21337789.8554
 -20757702.93448 -16164184.15744  20825722.5004                   20825719.7464
 -12548304.60247  -9767125.28443  22860985.7584                   22860983.3714
 -21213121.56648 -16522321.28044  21118065.2274                   21118061.5394
 11  9 25  3  6  0.0000000  0  8G22G09G29G06G18G15G26G21
   -570225.53147   -435855.71243  23562641.1094                   23562635.3984
   1223198.92646    962548.47752  23992003.2664                   23991999.6334
 -21440460.20348 -16697197.43644  21332370.4144                   21332369.2304
   3455048.750 6                  24297759.867
 -16550177.34448 -12885972.34344  21330317.5554                   21330314.3484
 -20731447.46148 -16143725.38244  20830719.1334                   20830716.3594
 -12466815.76646  -9703627.32042  22876492.8834                   22876489.7624
 -21284804.53548 -16578178.10244  21104423.9384                   21104420.3204
 11  9 25  3  6 30.0000000  0  8G22G09G29G06G18G15G26G21
   -649281.71947   -497457.97743  23547597.6414                   23547591.9414
   1118219.957 6                  23972027.625
 -21379960.60248 -16650054.94044  21343882.7504                   21343881.7894
   3359407.55946   2627183.88352  24279558.8364                   24279556.4534
 -16589288.12148 -12916448.27044  21322875.2894                   21322871.7274
 -20704682.42248 -16122869.46144  20835812.5164                   20835809.9104
 -12384967.95746  -9639849.88953  22892067.2274                   22892066.0234
 -21356315.15648 -16633900.67344  21090816.0474                   21090812.7034
 11  9 25  3  7  0.0000000  0  8G22G09G29G06G18G15G26G21
   -728188.31646   -558943.47943  23532581.2424                   23532576.6604
   1013286.26646    798979.94353  23952058.6174                   23952057.1604
 -21319079.40248 -16602615.06044  21355468.3054                   21355467.5474
   3264085.40246   2552906.96953  24261420.2814                   24261418.7894
 -16628224.48448 -12946788.23144  21315465.9844                   21315462.7234
 -20677408.81648 -16101617.28944  20841002.2344                   20841000.1174
 -12302763.09446  -9575794.20342  22907710.1024                   22907709.2304
 -21427650.06648 -16689486.30744  21077241.3364                   21077238.2194
 11  9 25  3  7 30.0000000  0  8G22G09G29G06G18G15G26G21
   -806946.78547   -620313.63643  23517594.1564                   23517589.3954
    908399.578 7                  23932099.094
 -21257820.51248 -16554880.86344  21367125.8284                   21367124.5474
   3169083.25447   2478879.29253  24243341.8444                   24243340.6484
 -16666988.85948 -12976994.23444  21308088.9694                   21308086.0044
 -20649629.14848 -16079970.79744  20846288.6564                   20846286.2304
 -12220206.15646  -9511464.32443  22923420.4614                   22923419.8834
 -21498808.57848 -16744934.50044  21063700.5784                   21063696.9064
 11  9 25  3  8  0.0000000  0  8G22G09G29G06G18G15G26G21
   -885557.67647   -681568.85943  23502635.1414                   23502630.3324
    803562.97346    635559.31352  23912149.4614                   23912145.9614
 -21196186.43748 -16506854.31144  21378854.2034                   21378852.5554
   3074402.92647   2405103.95453  24225324.8204                   24225317.0634
 -16705581.88348 -13007066.69644  21300745.3134                   21300741.5704
 -20621345.78148 -16057931.81344  20851670.8284                   20851668.4774
 -12137300.46546  -9446862.43243  22939197.3204                   22939195.0354
 -21569789.00448 -16800243.90044  21050193.3914                   21050189.9494
 11  9 25  3  8 30.0000000  0  8G22G09G29G06G18G15G26G21
   -964023.19547   -742710.88843  23487703.8284                   23487698.2734
    698777.78546    553908.57843  23892208.6254                   23892206.9924
 -21134181.71948 -16458538.94644  21390653.1094                   21390651.9184
   2980045.02346   2331578.21753  24207369.0084                   24207368.7344
 -16744006.32848 -13037007.80244  21293433.4694                   21293429.9454
 -20592562.53148 -16035503.30544  20857148.2034                   20857145.0864
 -12054051.00446  -9381992.64843  22955039.0004                   22955036.7384
 -21640591.06648 -16855414.29044  21036720.1954                   21036716.6684
 11  9 25  3  9  0.0000000  0  8G22G09G29G06G18G15G26G21
  -1042344.80147   -803740.52043  23472799.2194                   23472794.5594
    594046.01246    472299.71653  23872279.3984                   23872281.5234
 -21071810.30148 -16409937.84344  21402522.0864                   21402520.4454
   2886010.11746   2258304.29753  24189474.5474                   24189473.0234
 -16782264.43748 -13066819.35444  21286153.0474                   21286149.6484
 -20563282.82448 -16012687.95044  20862719.8984                   20862717.3244
 -11970462.53546  -9316858.87453  22970945.3754                   22970943.2504
 -21711214.39848 -16910445.46444  21023281.0314                   21023277.2894
 11  9 25  3  9 30.0000000  0  8G22G09G29G06G18G15G26G21
  -1120519.94947   -864656.20943  23457923.2664                   23457917.1844
    489373.87946    390736.88742  23852360.6484                   23852361.3524
 -21009071.69948 -16361050.68344  21414460.7274                   21414459.8324
   2792303.50447   2185286.14653  24171642.8754                   24171633.0784
 -16820353.61748 -13096499.17844  21278904.9924                   21278901.7734
 -20533505.47348 -15989484.78344  20868386.2734                   20868384.2384
 -11886535.13747  -9251460.77343  22986916.5314                   22986913.6054
 -21781653.75448 -16965333.29044  21009876.8284                   21009872.8244
 11  9 25  3 10  0.0000000  0  8G22G09G29G06G18G15G26G21
  -1198550.03147   -925458.77342  23443074.2344                   23443069.2114
    384763.85947    309222.69253  23832454.6804                   23832452.3674
 -20945969.39548 -16311880.04544  21426468.7424                   21426467.5594
   2698926.14846   2112524.60552  24153873.5164                   24153872.7894
 -16858276.38348 -13126049.39744  21271688.1334                   21271685.3444
 -20503233.91848 -15965896.57344  20874146.8754                   20874144.2304
 -11802273.52746  -9185802.49953  23002950.9844                   23002948.5274
 -21851908.52748 -17020077.24344  20996507.8834                   20996504.3404
 11  9 25  3 10 30.0000000  0  8G22G09G29G06G18G15G26G21
  -1276435.63747   -986148.69143  23428253.4304                   23428248.1994
    280218.34047    227758.65253  23812560.6644                   23812554.8794
 -20882506.71548 -16262428.64244  21438545.2584                   21438544.0044
   2605879.71946   2040020.90853  24136166.4384                   24136167.8204
 -16896033.56248 -13155470.56344  21264503.5004                   21264499.9384
 -20472470.94548 -15941925.44044  20880000.8524                   20879998.5824
 -11717681.38746  -9119886.52643  23019047.5704                   23019044.6334
 -21921977.14148 -17074676.17644  20983174.5634                   20983170.3914
 11  9 25  3 11  0.0000000  0  8G22G09G29G06G18G15G26G21
  -1354176.82447  -1046726.37542  23413459.4454                   23413454.2734
    175741.45347    146348.04352  23792679.0004                   23792675.4344
 -20818685.46948 -16212697.80343  21450690.4924                   21450688.2504
   2513166.94547   1967775.20352  24118526.1024                   24118520.7544
 -16933625.23848 -13184762.73244  21257349.8914                   21257346.7304
 -20441217.33648 -15917571.95644  20885947.7734                   20885945.3634
 -11632761.43746  -9053715.13342  23035207.5084                   23035206.5704
 -21991856.89548 -17129127.92644  20969876.5394                   20969872.9344
 11  9 25  3 11 30.0000000  0  8G22G09G29G06G18G15G26G21
  -1431772.98047  -1107190.73043  23398693.6174                   23398687.8794
     71337.11347     64994.09842  23772810.9924                   23772809.4344
 -20754507.33248 -16162688.82744  21462902.9064                   21462901.2814
   2420790.668 6                  24100945.016
 -16971051.48448 -13213926.02244  21250227.5864                   21250225.1484
 -20409474.76648 -15892837.50344  20891988.2894                   20891986.5824
 -11547516.25047  -8987290.30753  23051429.1174                   23051425.0864
 -22061545.08248 -17183430.37444  20956615.1024                   20956612.1374
 11  9 25  3 12  0.0000000  0  8G22G09G29G06G18G15G26G21
  -1509223.84447  -1167542.21243  23383954.9534                   23383950.4024
    -32990.73047    -16300.22742  23752958.5864                   23752955.6174
 -20689974.36748 -16112403.48144  21475183.3524                   21475181.4104
   2328753.609 6                  24083431.594
 -17008312.38748 -13242960.50444  21243137.4454                   21243134.4304
 -20377244.68748 -15867723.14044  20898121.8594                   20898119.6764
 -11461948.40646  -8920614.08252  23067712.3204                   23067707.9694
 -22131039.23048 -17237581.63744  20943390.9224                   20943387.0044
 11  9 25  3 12 30.0000000  0  8G22G09G29G06G18G15G26G21
  -1586530.87547  -1227781.27343  23369244.3204                   23369238.0904
   -137239.77347    -97533.19952  23733120.2194                   23733115.4144
 -20625090.65648 -16061844.73544  21487530.2274                   21487528.2384
   2237056.74247   1752624.64152  24065983.0864                   24065980.3954
 -17045410.03148 -13271867.74044  21236078.0704                   21236074.9104
 -20344530.16848 -15842231.35044  20904346.9384                   20904343.9384
 -11376062.60247  -8853690.17652  23084056.0234                   23084052.8444
 -22200338.38748 -17291581.00244  20930203.3674                   20930200.1914
 11  9 25  3 13  0.0000000  0  8G22G09G29G06G18G15G26G21
  -1663693.07046  -1287907.74643  23354560.0864                   23354555.8444
   -241405.81247   -178701.52943  23713298.5944                   23713296.0944
 -20559857.73047 -16011013.90844  21499943.7814                   21499942.3054
   2145702.92247   1681439.80653  24048598.3594                   24048594.6294
 -17082344.54348 -13300647.86944  21229049.5554                   21229046.9884
 -20311332.65248 -15816363.14044  20910664.4694                   20910661.5824
 -11289861.22347  -8786520.45353  23100459.5004                   23100462.1134
 -22269439.84448 -17345426.24344  20917054.1024                   20917050.6254
 11  9 25  3 13 30.0000000  0  8G22G09G29G06G18G15G26G21
  -1740712.77747  -1347922.92243  23339903.9384                   23339898.8914
   -345486.69947   -259803.43843  23693492.2584                   23693491.5474
 -20494279.46147 -15959914.01344  21512422.7034                   21512420.9694
   2054693.172 7                  24031279.492
 -17119117.21148 -13329301.88844  21222051.7734                   21222049.3554
 -20277655.25848 -15790121.00944  20917073.0864                   20917070.9614
 -11203348.43747  -8719107.72753  23116922.7894                   23116922.1414
 -22338342.69548 -17399116.81944  20903942.3204                   20903939.3794
 11  9 25  3 14  0.0000000  0  8G22G09G29G06G18G15G26G21
   -242164.77747   -180223.14043  23625068.2664                   23625062.6724
   1125947.46947    886768.66442  23973496.1884                   23973497.2194
 -18852937.55947 -14680946.28044  21824760.2664                   21824758.3364
   3539455.62147   2767480.85553  24313821.3134                   24313816.8984
 -15580305.34848 -12130227.64943  21514878.0864                   21514874.9304
 -18668078.72748 -14535905.48944  21223364.9694                   21223363.3284
  -9541107.99247  -7423855.45953  23433236.1414                   23433235.5904
 -20831619.59448 -16225046.81544  21190662.4614                   21190658.6524
 11  9 25  3 14 30.0000000  0  8G22G09G29G06G18G15G26G21
   -318897.28147   -240014.68043  23610466.7734                   23610462.2384
   1022049.62947    805809.52043  23953725.6804                   23953725.7934
 -18786673.62947 -14629312.07844  21837369.7814                   21837367.9024
   3449142.996 6                                                  24296634.102
 -15616754.98848 -12158630.00844  21507941.7344                   21507938.4574
 -18633445.78948 -14508918.82944  21229955.7584                   21229953.4454
  -9453980.07447  -7355963.49242  23449816.3524                   23449815.2034
 -20900116.16448 -16278420.77044  21177627.6094                   21177623.6724
 11  9 25  3 15  0.0000000  0  8G22G09G29G06G18G15G26G21
   -395489.25847   -299696.70943  23595891.9304                   23595886.9844
    918245.36747    724922.84253  23933972.6484                   23933971.3874
 -18720073.75447 -14577416.02744  21850042.8754                   21850041.3594
   3359179.09847   2627005.90353  24279515.4614                   24279512.2504
 -15653046.67248 -12186909.22644  21501035.7584                   21501032.4884
 -18598341.14548 -14481564.58144  21236635.8914                   21236633.7034
  -9366552.58247  -7287838.15843  23466453.6804                   23466452.0164
 -20968409.70348 -16331636.51544  21164631.8444                   21164628.2894
 11  9 25  3 15 30.0000000  0  8G22G09G29G06G18G15G26G21
   -471938.08647   -359267.21143  23581343.8754                   23581339.9224
    814541.20347    644114.45343  23914238.3204                   23914236.2774
 -18653137.10547 -14525257.64644  21862780.4224                   21862778.5824
   3269569.13347   2557179.61853  24262463.0314                   24262460.2704
 -15689178.51648 -12215063.91244  21494160.0084                   21494157.4384
 -18562763.67648 -14453841.84344  21243405.9384                   21243403.7074
  -9278825.36347  -7219479.35252  23483147.4454                   23483145.0744
 -21036494.85548 -16384689.86444  21151675.7034                   21151671.5704
 11  9 25  3 16  0.0000000  0  8G22G09G29G06G18G15G26G21
   -548244.16447   -418726.45643  23566823.5084                   23566818.6414
    710940.50047    563386.95253  23894523.0704                   23894521.2974
 -18585866.92647 -14472839.29644  21875581.6174                   21875580.0634
   3180315.109 6                  24245478.234
 -15725150.89548 -12243094.30744  21487314.8054                   21487311.6334
 -18526715.70348 -14425752.48944  21250265.5314                   21250263.6334
  -9190801.87146  -7150890.05543  23499897.6094                   23499895.6764
 -21104369.41048 -16437579.10044  21138759.7034                   21138756.5234
 11  9 25  3 16 30.0000000  0  8G22G09G29G06G18G15G26G21
   -624410.66447   -478076.78843  23552329.2974                   23552324.6564
    607443.61347    482739.94942  23874828.5784                   23874826.8524
 -18518268.67247 -14420165.38843  21888444.7894                   21888443.6414
   3091416.28947   2418359.72753  24228561.8134                   24228557.4694
 -15760967.32048 -12271003.21244  21480499.2344                   21480495.9384
 -18490202.34448 -14397300.55944  21257213.9454                   21257211.3714
  -9102488.098 6                  23516702.500
 -21172034.03948 -16490304.78144  21125883.4064                   21125880.0634
 11  9 25  3 17  0.0000000  0  8G22G09G29G06G18G15G26G21
   -700435.61347   -537317.14743  23537862.4064                   23537858.4224
    504056.44547    402178.58643  23855154.5474                   23855151.8954
 -18450342.73447 -14367236.05744  21901371.2664                   21901369.0744
   3002877.059 6                  24211713.055
 -15796626.47748 -12298789.54544  21473713.2974                   21473710.4454
 -18453223.32048 -14368485.74344  21264250.6724                   21264248.2234
  -9013885.355 6                  23533563.477
 -21239485.36348 -16542864.25944  21113047.7424                   21113044.2664
 11  9 25  3 17 30.0000000  0  8G22G09G29G06G18G15G26G21
   -776319.69547   -596447.52843  23523421.8524                   23523417.4654
    400782.33247    321705.23842  23835501.9774                   23835500.7464
 -18382091.80947 -14314053.59143  21914358.6804                   21914357.0314
   2914699.17647   2280657.89552  24194933.5634                   24194932.7774
 -15832129.27048 -12326454.06944  21466957.6414                   21466954.5784
 -18415781.01248 -14339309.90144  21271375.6644                   21271373.4024
  -8924996.656 6                  23550478.531
 -21306720.70348 -16595255.41244  21100253.1094                   21100249.6804
 11  9 25  3 18  0.0000000  0  8G22G09G29G06G18G15G26G21
   -852063.36347   -655468.52043  23509007.9694                   23509004.0274
    297624.12147    241322.31143  23815872.1564                   23815870.1884
 -18313518.77747 -14260620.03243  21927408.0474                   21927406.3594
   2826884.39847   2212230.80643  24178223.4844                   24178220.4024
 -15867476.75448 -12353997.50944  21460231.1954                   21460227.6334
 -18377878.19548 -14309775.23544  21278588.5634                   21278586.0554
  -8835825.816 6                  23567447.273
 -21373738.35248 -16647476.94644  21087500.2274                   21087496.8014
 11  9 25  3 18 30.0000000  0  8G22G09G29G06G18G15G26G21
   -927663.52347   -714377.63843  23494621.6334                   23494616.4654
    194588.59447    161034.97743  23796265.2734                   23796263.5704
 -18244623.13347 -14206935.18443  21940518.0004                   21940516.1054
   2739438.14846   2144090.75953  24161581.9774                   24161580.9574
 -15902665.98048 -12381417.68444  21453534.6954                   21453530.9414
 -18339513.52048 -14279880.68044  21285889.2114                   21285886.5434
  -8746372.871 6                  23584469.227
 -21440532.76248 -16699524.52944  21074789.8754                   21074785.7034
 11  9 25  3 19  0.0000000  0  8G22G09G29G06G18G15G26G21
  -1003123.53947   -773177.50943  23480262.2424                   23480257.3134
     91676.42247     80843.67353  23776681.2974                   23776679.6684
 -18175410.20747 -14153002.97644  21953689.1094                   21953687.7114
   2652359.67247   2076237.73443  24145012.0314                   24145011.5514
 -15937700.76248 -12408717.50944  21446867.9774                   21446864.8484
 -18300692.31648 -14249630.37744  21293276.3674                   21293273.8444
  -8656643.54347  -6734661.67854  23601544.3754                   23601540.2974
 -21507104.68448 -16751398.78044  21062121.4614                   21062117.6374
 11  9 25  3 19 30.0000000  0  8G22G09G29G06G18G15G26G21
  -1078442.72747   -831867.84543  23465929.4534                   23465924.9534
    -11108.12547       751.78942  23757122.1174                   23757121.0824
 -18105881.99247 -14098825.25444  21966920.2114                   21966918.2974
   2565651.71946   2008673.10952  24128511.3204                   24128505.3404
 -15972580.92247 -12435896.86144  21440230.5864                   21440227.6094
 -18261415.56248 -14219025.13744  21300750.6174                   21300748.2194
  -8566640.49247  -6664529.57553  23618671.7504                   23618666.6484
 -21573451.37947 -16803097.47344  21049496.2344                   21049492.7584
 11  9 25  3 20  0.0000000  0  8G22G09G29G06G18G15G26G21
  -1153622.29747   -890449.49343  23451623.1414                   23451618.8404
   -113762.48447    -79238.54342  23737587.7974                   23737585.5904
 -18036041.85947 -14044404.31743  21980210.1254                   21980208.6214
   2479315.59447   1941398.17643  24112082.3204                   24112079.0004
 -16007307.84848 -12462956.76044  21433621.9454                   21433618.4884
 -18221686.53548 -14188067.47744  21308310.7974                   21308308.0944
  -8476367.53947  -6594187.91554  23635849.8984                   23635846.8284
 -21639571.24648 -16854619.45444  21036914.0554                   21036911.0164
 11  9 25  3 20 30.0000000  0  8G22G09G29G06G18G15G26G21
  -1228660.43447   -948920.53743  23437343.7424                   23437339.0204
   -216280.69547   -159122.78943  23718078.6954                   23718077.5514
 -17965890.33647 -13989740.82743  21993559.6804                   21993558.2114
   2393355.43047   1874416.26642  24095724.9454                   24095722.5274
 -16041879.82447 -12489895.98744  21427043.2344                   21427040.0864
 -18181505.02348 -14156757.17944  21315957.1644                   21315954.6644
  -8385825.75447  -6523638.99753  23653079.3054                   23653085.4844
 -21705460.22748 -16905961.50244  21024375.8834                   21024372.3874
 11  9 25  3 21  0.0000000  0  8G22G09G29G06G18G15G26G21
  -1303558.74647  -1007282.73643  23423091.2584                   23423085.1174
   -318660.80147   -238899.49143  23698596.5554                   23698595.0274
 -17895431.51247 -13934837.82743  22006966.7894                   22006965.5004
   2307771.836 6                  24079438.195
 -16076298.89148 -12516716.02544  21420493.4534                   21420490.1804
 -18140875.06248 -14125097.49744  21323688.6954                   21323685.7624
  -8295020.00447  -6452881.12353  23670359.9384                   23670359.3324
 -21771117.75048 -16957123.22144  21011881.7504                   21011878.2304
 11  9 25  3 21 30.0000000  0  8G22G09G29G06G18G15G26G21
  -1378317.23847  -1065536.11243  23408865.0234                   23408860.8404
   -420899.11347   -318565.76543  23679141.1644                   23679140.0744
 -17824667.69947 -13879697.22643  22020433.1954                   22020431.4414
   2222567.195 6                  24063225.281
 -16110565.51647 -12543417.21844  21413972.7274                   21413969.6524
 -18099798.36348 -14093089.65844  21331505.2274                   21331502.5354
  -8203952.74247  -6381919.66853  23687689.1174                   23687685.0314
 -21836541.01647 -17008102.35844  20999431.8204                   20999427.9494
 11  9 25  3 22  0.0000000  0  8G22G09G29G06G18G15G26G21
  -1452936.914 7                  23394665.258
   -522993.10247   -398119.52653  23659713.2114                   23659713.9224
 -17753602.36747 -13824321.69243  22033956.3984                   22033954.6604
   2137742.82046   1675236.43853  24047082.8984                   24047080.4574
 -16144681.41048 -12570001.04344  21407480.5474                   21407477.2894
 -18058278.07448 -14060736.18544  21339406.3834                   21339404.1254
  -8112628.453 6                  23705067.211
 -21901728.75448 -17058897.98644  20987026.9844                   20987022.8954
 11  9 25  3 22 30.0000000  0  8G22G09G29G06G18G15G26G21
  -1527419.84847  -1181719.88853  23380491.3204                   23380487.3324
   -624940.43747   -477558.89543  23640314.0704                   23640312.0664
 -17682239.66447 -13768714.42543  22047536.2584                   22047534.8014
   2053299.258 6                  24031013.617
 -16178648.53148 -12596468.94744  21401017.1254                   21401014.2544
 -18016317.69148 -14028039.80244  21347390.9774                   21347388.9574
  -8021051.22346  -6239399.15653  23722493.8524                   23722494.7584
 -21966680.14848 -17109509.46144  20974667.2814                   20974663.3834
 11  9 25  3 23  0.0000000  0  9G22G09G29G06G18G14G15G26G21
  -1601764.76247  -1239650.97243  23366344.1414                   23366339.9734
   -726736.32847   -556880.25943  23620942.5704                   23620939.6254
 -17610581.09847 -13712876.54643  22061172.2814                   22061170.8984
   1969239.78546   1543935.71552  24015018.4614                   24015012.0984
 -16212466.00848 -12622820.19044  21394581.8364                   21394578.0824
   7693496.99616                  24668218.852
 -17973918.29747 -13995001.32444  21355459.4534                   21355456.7814
  -7929223.26246  -6167844.81353  23739967.6884                   23739968.4184
 -22031391.52748 -17159933.91844  20962352.9144                   20962349.7734
 11  9 25  3 23 30.0000000  0  9G22G09G29G06G18G14G15G26G21
  -1675979.15247  -1297480.34643  23352221.5704                   23352216.6294
   -828384.22747   -636086.60043  23601599.4384                   23601598.5864
 -17538636.38347 -13656815.76144  22074863.2734                   22074861.6054
   1885559.41446   1478730.27352  23999093.2504                   23999089.3674
 -16246141.54748 -12649060.87844  21388173.3834                   21388169.8324
   7568142.480 6                  24644364.539
 -17931089.23448 -13961628.03444  21363609.7344                   21363607.0124
  -7837154.41046  -6096102.77052  23757488.0704                   23757487.6954
 -22095867.43048 -17210174.88344  20950083.6024                   20950079.4184
 11  9 25  3 24  0.0000000  0  9G22G09G29G06G18G14G15G26G21
  -1750067.21547  -1355211.27243  23338123.4064                   23338118.1994
   -929884.75447   -715177.89543  23582284.3054                   23582283.0824
 -17466411.87947 -13600536.96444  22088606.9844                   22088605.7384
   1802255.75847   1413818.29353  23983242.2664                   23983238.2384
 -16279679.94548 -12675194.69544  21381791.2584                   21381788.0434
   7442875.082 5                  24620526.188
 -17887836.51647 -13927924.59144  21371840.0554                   21371837.6644
  -7744852.211 6                  23775052.680
 -22160111.07448 -17260234.86544  20937858.7974                   20937854.8404
 11  9 25  3 24 30.0000000  0  9G22G09G29G06G18G14G15G26G21
  -1824026.68747  -1412842.08543  23324049.1094                   23324043.2344
  -1031232.16847   -794149.66243  23562998.2974                   23562997.4024
 -17393908.04747 -13544040.45943  22102403.9304                   22102403.3794
   1719333.504 7                  23967462.664
 -16313079.34848 -12701220.21044  21375435.6174                   21375431.9344
   7317699.672 5                  24596707.445
 -17844160.46547 -13893891.33044  21380151.5704                   21380149.1174
  -7652317.250 6                  23792661.758
 -22224116.91048 -17310109.56144  20925679.0314                   20925674.7774
 11  9 25  3 25  0.0000000  0  8G22G09G29G06G18G15G26G21
  -1897854.40647  -1470369.92443  23310000.1174                   23309994.6764
  -1132419.01247   -872996.18443  23543743.1884                   23543741.6254
 -17321124.15647 -13487325.72243  22116254.3204                   22116253.2464
   1636798.18847   1284890.49252  23951756.3834                   23951753.1764
 -16346336.41848 -12727134.78944  21369107.0004                   21369103.5044
 -17800059.47747 -13859526.91544  21388543.6644                   21388541.2034
  -7559549.08647  -5879787.17153  23810314.9224                   23810314.3054
 -22287879.24248 -17359794.47444  20913545.1254                   20913541.3164
 11  9 25  3 25 30.0000000  0  8G22G09G29G06G18G15G26G21
  -1971548.59447  -1527794.04743  23295976.8284                   23295971.4414
  -1233440.08647   -951714.19843  23524519.3284                   23524518.8014
 -17248060.70347 -13430393.25743  22130157.6954                   22130156.4844
   1554653.68847   1220881.79843  23936125.3984                   23936121.7074
 -16379450.05548 -12752937.59144  21362805.5474                   21362802.3364
 -17755534.11347 -13824831.84744  21397016.3444                   21397013.9734
  -7466548.93447  -5807319.79043  23828013.0164                   23828012.5514
 -22351393.95748 -17409286.47144  20901458.6644                   20901455.8954
 11  9 25  3 26  0.0000000  0  9G22G09G29G06G18G14G15G26G21
  -2045109.77047  -1585114.33743  23281978.5164                   23281973.1684
  -1334291.63747  -1030299.94243  23505328.3054                   23505326.0434
 -17174720.52047 -13373245.03143  22144113.9844                   22144112.5234
   1472902.13346   1157179.11043  23920568.0314                   23920565.4534
 -16412420.45748 -12778628.80944  21356531.6334                   21356528.5784
   6942764.14515                  24525361.180
 -17710586.20348 -13789807.50544  21405570.1254                   21405567.3524
  -7373319.67247  -5734680.34553  23845753.5784                   23845751.4454
 -22414658.37148 -17458583.39744  20889419.7664                   20889416.5164
 11  9 25  3 26 30.0000000  0  9G22G09G29G06G18G14G15G26G21
  -2118538.04747  -1642331.20243  23268005.5314                   23267999.9304
  -1434970.05547  -1108750.59243  23486169.4844                   23486168.0594
 -17101106.11747 -13315883.18043  22158122.4614                   22158121.5594
   1391545.457 6                  23905086.102
 -16445248.48048 -12804209.07544  21350284.7664                   21350281.6844
   6818001.855 6                  24501619.727
 -17665218.37148 -13754455.93544  21414203.1334                   21414201.5904
  -7279864.35947  -5661858.42353  23863537.7034                   23863524.6374
 -22477670.64548 -17507683.88844  20877428.8204                   20877425.8874
 11  9 25  3 27  0.0000000  0  9G22G09G29G06G18G14G15G26G21
  -2191830.71147  -1699442.31343  23254058.0474                   23254052.6024
  -1535468.91047  -1187061.31642  23467045.5394                   23467042.7464
 -17027217.05947 -13258307.30843  22172183.3914                   22172181.6804
   1310588.45346   1030700.93553  23889680.2034                   23889679.0594
 -16477931.86348 -12829676.66144  21344065.1024                   21344062.4734
   6693352.137 6                  24477899.453
 -17619429.77348 -13718776.52344  21422916.2734                   21422914.2034
  -7186183.348 6                  23881363.828
 -22540425.22348 -17556583.53844  20865487.3834                   20865483.4694
 11  9 25  3 27 30.0000000  0  9G22G09G29G06G18G14G15G26G21
  -2264988.33247  -1756448.20043  23240136.9144                   23240131.8094
  -1635784.85947  -1265229.47143  23447955.9924                   23447954.5474
 -16953056.88747 -13200520.18243  22186295.5474                   22186293.6414
   1230032.97347    967930.69143  23874351.1254                   23874349.3444
 -16510471.13348 -12855031.94344  21337873.3444                   21337870.1374
   6568817.148 6                  24454201.336
 -17573223.19548 -13682771.38844  21431709.5164                   21431707.0084
  -7092279.855 6                  23899233.586
 -22602920.64148 -17605281.26044  20853594.7814                   20853591.1724
 11  9 25  3 28  0.0000000  0  9G22G09G29G06G18G14G15G26G21
  -2338011.80547  -1813349.61543  23226241.1564                   23226235.5704
  -1735914.91047  -1343253.01043  23428901.6804                   23428900.2384
 -16878628.63747 -13142524.19544  22200458.7814                   22200457.0704
   1149880.03146    905473.94653  23859098.9144                   23859095.2234
 -16542867.69148 -12880276.02544  21331708.2974                   21331705.3754
   6444398.62546   5033012.93452  24430525.5704                   24430525.9224
 -17526601.39548 -13646442.71344  21440581.3984                   21440578.5704
  -6998157.789 6                  23917144.047
 -22665155.20348 -17653775.70144  20841752.0084                   20841748.1844
